     2.11           OBSERVATION DATA    G (GPS)             RINEX VERSION / TYPE
teqc 2010Oct21 OPUS Account 20111031 20:43:32UTC            PGM / RUN BY / DATE
V 1521                                                      MARKER NAME
1151                                                        MARKER NUMBER
CSMIDDLETON NGS                                             OBSERVER / AGENCY
4624K01631 TRIMBLE NETR5 4.41                               REC # / TYPE / VERS
12481390 TRM41249.00 NONE                                   ANT # / TYPE
  -739464.3031 -5473419.1465  3179552.1112                  APPROX POSITION XYZ
        2.0000        0.0000        0.0000                  ANTENNA: DELTA H/E/N
     1     1                                                WAVELENGTH FACT L1/2
     5    L1    L2    C1    P1    P2                        # / TYPES OF OBSERV
    15                                                      LEAP SECONDS
  2011     7    26    16     8    0.0000000     GPS         TIME OF FIRST OBS
                                                            END OF HEADER
 11  7 26 16  8  0.0000000  0  8G06G32G16G03G20G07G13G23
 117644707.84217  91671230.75055  22387044.305                    22387053.578
 118485650.83117  92326506.60855  22547070.406                    22547080.109
 107419843.65318  83703795.43956  20441316.547                    20441323.859
 115278733.84017  89827610.95055  21936814.297                    21936823.543
 114654876.11017  89341379.11655  21818071.820                    21818079.852
 128381346.04916                  24430163.313
 115849462.12117  90272329.32655  22045420.117                    22045428.145
 107461194.29418  83736013.81656  20449185.797                    20449191.449
 11  7 26 16  8 30.0000000  0 10G06G31G32G16G03G20G07G19G13G23
 117600475.398 7  91636763.93445  22378627.352                    22378636.504
 130684513.31916                  24868428.766
 118570410.832 7  92392553.28545  22563199.469                    22563209.387
 107457135.650 8  83732854.12746  20448413.219                    20448419.887
 115203966.767 7  89769350.90445  21922586.539                    21922595.969
 114720519.502 7  89392529.76845  21830563.211                    21830571.691
 128318063.360 6                  24418121.148
 126609908.21616  98657041.85353  24093048.516                    24093058.020
 115767455.088 7  90208427.74745  22029814.508                    22029822.645
 107414483.348 8  83699615.67446  20440297.148                    20440303.012
 11  7 26 16  9  0.0000000  0  9G06G32G16G03G20G07G19G13G23
 117556653.993 7  91602617.40645  22370287.930                    22370297.293
 118655400.186 7  92458778.68445  22579372.328                    22579382.195
 107494941.249 8  83762313.03546  20455607.391                    20455614.785
 115129532.129 7  89711349.91145  21908421.852                    21908431.531
 114786534.357 7  89443969.87145  21843125.453                    21843133.809
 128254835.845 6                  24406088.594
 126516655.695 6  98584377.67543  24075303.125                    24075312.898
 115685584.761 7  90144632.69745  22014234.797                    22014243.547
 107368124.361 8  83663491.78846  20431475.563                    20431480.730
 11  7 26 16  9 30.0000000  0  9G06G32G16G03G20G07G19G13G23
 117513246.268 7  91568793.21545  22362027.945                    22362036.973
 118740616.503 7  92525180.92845  22595588.625                    22595598.445
 107533258.555 8  83792170.67246  20462899.023                    20462906.320
 115055432.799 7  89653610.18245  21894321.367                    21894330.715
 114852918.296 7  89495697.56945  21855758.234                    21855766.500
 128191663.503 6                  24394068.219
 126423364.733 6  98511683.53143  24057550.797                    24057559.922
 115603853.787 7  90080946.23245  21998682.367                    21998690.184
 107322119.515 8  83627643.85346  20422720.953                    20422726.926
 11  7 26 16 10  0.0000000  0  9G06G32G16G03G20G07G19G13G23
 117470254.456 7  91535293.11345  22353846.695                    22353855.848
 118826056.988 7  92591757.84345  22611847.648                    22611857.566
 107572085.239 8  83822425.22746  20470287.328                    20470294.531
 114981672.178 7  89596134.39445  21880284.906                    21880294.266
 114919668.392 7  89547710.58845  21868460.180                    21868468.227
 128128545.170 6                  24382057.023
 126330038.268 6  98438961.71643  24039791.211                    24039800.477
 115522264.323 7  90017370.04745  21983156.258                    21983164.465
 107276471.146 8  83592073.68846  20414034.086                    20414040.000
 11  7 26 16 10 30.0000000  0  9G06G32G16G03G20G07G19G13G23
 117427681.017 7  91502119.00645  22345745.273                    22345754.582
 118911718.934 7  92658507.33745  22628148.859                    22628158.320
 107611419.641 8  83853075.39946  20477772.695                    20477779.145
 114908253.600 7  89538925.12945  21866313.703                    21866322.805
 114986782.171 7  89600006.99445  21881231.734                    21881239.949
 128065480.892 6                  24370056.391
 126236679.801 6  98366214.97344  24022025.242                    24022035.230
 115440818.758 7  89953905.97945  21967657.672                    21967665.926
 107231181.902 8  83556783.35546  20405415.797                    20405421.809
 11  7 26 16 11  0.0000000  0  9G06G32G16G03G20G07G19G13G23
 117385528.635 7  91469273.00045  22337723.930                    22337733.203
 118997600.181 7  92725427.71645  22644490.789                    22644501.367
 107651259.811 8  83884119.67846  20485353.617                    20485361.105
 114835180.664 7  89481985.19045  21852408.719                    21852417.965
 115054256.973 7  89652584.71845  21894071.977                    21894079.965
 128002470.456 6                  24358065.516
 126143291.834 6  98293445.23244  24004254.273                    24004263.559
 115359518.960 7  89890555.50345  21952186.836                    21952194.832
 107186253.902 8  83521774.52646  20396866.266                    20396872.508
 11  7 26 16 11 30.0000000  0  9G06G32G16G03G20G07G19G13G23
 117343799.336 7  91436756.67045  22329783.461                    22329792.324
 119083697.855 7  92792516.73045  22660874.953                    22660885.078
 107691603.107 8  83915556.00446  20493030.953                    20493037.824
 114762456.464 7  89425317.01045  21838569.453                    21838578.969
 115122089.885 7  89705441.49545  21906979.789                    21906988.012
 127939513.504 6                  24346085.055
 126049877.632 6  98220655.09444  23986478.172                    23986487.660
 115278367.346 7  89827320.50645  21936744.172                    21936752.559
 107141689.904 8  83487049.32146  20388386.328                    20388392.363
 11  7 26 16 12  0.0000000  0  9G06G32G16G03G20G07G19G13G23
 117302495.624 7  91404571.96345  22321923.391                    22321932.703
 119170009.333 7  92859772.35445  22677299.758                    22677309.910
 107732447.840 8  83947383.06046  20500803.266                    20500810.262
 114690083.977 7  89368922.88045  21824797.742                    21824806.941
 115190278.523 7  89758575.44945  21919955.852                    21919964.328
 127876609.422 6                  24334115.141
 125956440.158 6  98147846.76844  23968697.344                    23968706.598
 115197366.531 7  89764202.99845  21921330.172                    21921338.004
 107097491.860 8  83452609.28746  20379975.523                    20379981.629
 11  7 26 16 12 30.0000000  0  9G06G32G16G03G20G07G19G13G23
 117261620.018 7  91372720.83545  22314145.352                    22314154.039
 119256532.224 7  92927192.69944  22693764.828                    22693774.711
 107773792.039 8  83979599.30546  20508670.906                    20508678.113
 114618066.609 7  89312805.47945  21811093.117                    21811102.547
 115258820.068 7  89811984.41245  21932998.539                    21933007.012
 127813757.916 6                  24322154.734
 125862982.343 6  98075022.62144  23950912.563                    23950922.023
 115116518.672 7  89701204.68145  21905945.547                    21905953.680
 107053662.073 8  83418456.20046  20371635.125                    20371641.125
 11  7 26 16 13  0.0000000  0  9G06G32G16G03G20G07G19G13G23
 117221174.719 7  91341205.02445  22306448.328                    22306457.684
 119343263.771 7  92994775.64744  22710269.328                    22710279.434
 107815633.191 8  84012202.79346  20516633.016                    20516640.121
 114546407.250 7  89256967.02645  21797456.125                    21797466.055
 115327711.470 7  89865665.97745  21946108.445                    21946116.730
 127750958.524 6                  24310204.367
 125769507.067 7  98002184.83844  23933125.180                    23933134.176
 115035825.995 7  89638327.29045  21890590.109                    21890598.172
 107010202.818 8  83384591.84446  20363365.109                    20363371.211
 11  7 26 16 13 30.0000000  0  9G06G32G16G03G20G07G19G13G23
 117181161.842 7  91310026.15345  22298834.117                    22298843.281
 119430200.969 7  93062518.83544  22726812.641                    22726822.742
 107857969.166 8  84045191.84646  20524689.266                    20524696.340
 114475109.208 7  89201410.13645  21783889.234                    21783898.656
 115396949.969 7  89919618.00445  21959283.711                    21959292.434
 127688210.828 6                  24298263.578
 125676017.341 7  97929335.81444  23915334.016                    23915343.688
 114955290.407 7  89575572.30445  21875264.836                    21875273.023
 106967116.257 8  83351017.90146  20355166.063                    20355171.965
 11  7 26 16 14  0.0000000  0  9G06G32G16G03G20G07G19G13G23
 117141583.675 7  91279186.03745  22291302.828                    22291311.816
 119517341.515 7  93130420.48344  22743395.156                    22743405.168
 107900797.821 8  84078564.80646  20532839.414                    20532846.160
 114404175.726 7  89146137.32745  21770391.047                    21770400.242
 115466532.929 8  89973838.45245  21972525.383                    21972533.707
 127625514.742 6                  24286332.328
 125582516.505 6  97856478.13144  23897542.016                    23897551.160
 114874914.257 7  89512941.54545  21859969.648                    21859977.789
 106924404.896 8  83317736.31646  20347037.953                    20347044.367
 11  7 26 16 14 30.0000000  0  9G06G32G16G03G20G07G19G13G23
 117102442.135 7  91248686.14644  22283854.258                    22283863.395
 119604682.088 7  93198477.98544  22760015.680                    22760026.020
 107944116.641 8  84112319.72246  20541082.867                    20541089.672
 114333609.709 7  89091150.83945  21756962.859                    21756972.168
 115536457.270 8  90028324.90545  21985831.703                    21985839.613
 127562869.169 6                  24274411.945
 125489007.092 6  97783613.75244  23879747.063                    23879756.902
 114794700.329 7  89450437.21045  21844705.602                    21844713.832
 106882070.513 8  83284748.48746  20338982.273                    20338988.328
 11  7 26 16 15  0.0000000  0  9G06G32G16G03G20G07G19G13G23
 117063740.180 7  91218528.78445  22276489.625                    22276498.535
 119692220.988 7  93266690.03444  22776673.648                    22776683.477
 107987924.036 8  84146455.33646  20549418.758                    20549426.270
 114263414.834 7  89036453.56845  21743604.781                    21743614.496
 115606720.650 7  90083075.55045  21999202.000                    21999210.926
 127500274.256 6                  24262500.844
 125395492.747 7  97710745.53644  23861952.453                    23861961.254
 114714650.277 8  89388060.55645  21829472.375                    21829480.387
 106840115.924 8  83252056.59146  20330998.695                    20331004.699
 11  7 26 16 15 30.0000000  0  9G06G32G16G03G20G07G19G13G23
 117025479.519 7  91188715.28545  22269208.641                    22269217.738
 119779954.663 7  93335053.85244  22793369.156                    22793379.160
 108032217.098 8  84180969.39846  20557847.672                    20557855.070
 114193593.582 7  88982047.41345  21730318.352                    21730328.008
 115677319.655 7  90138087.70245  22012636.977                    22012645.746
 127437729.206 6                  24250599.242
 125301975.742 6  97637875.23544  23844156.320                    23844165.359
 114634766.580 8  89325813.52645  21814271.055                    21814279.262
 106798542.958 8  83219662.06446  20323087.289                    20323093.395
 11  7 26 16 16  0.0000000  0  9G06G32G16G03G20G07G19G13G23
 116987662.282 7  91159247.32345  22262012.016                    22262021.465
 119867880.770 7  93403567.62544  22810100.641                    22810110.676
 108076994.106 8  84215860.56846  20566368.422                    20566375.824
 114124149.283 7  88927935.00545  21717103.578                    21717112.930
 115748251.847 7  90193359.49345  22026134.820                    22026143.059
 127375234.032 6                  24238705.906
 125208459.670 6  97565005.69444  23826360.250                    23826369.902
 114555051.624 8  89263697.98145  21799102.148                    21799109.629
 106757353.983 8  83187566.75346  20315249.711                    20315255.707
 11  7 26 16 16 30.0000000  0  9G06G32G16G03G20G07G19G13G23
 116950290.920 7  91130126.80645  22254900.453                    22254909.930
 119955996.928 7  93472229.48144  22826869.031                    22826878.984
 108122252.660 8  84251126.95846  20574980.867                    20574988.188
 114055085.595 7  88874119.16045  21703961.156                    21703970.641
 115819514.483 7  90248888.76845  22039695.594                    22039704.164
 127312788.030 6                  24226822.805
 125114947.396 6  97492139.11844  23808566.297                    23808575.063
 114475507.860 8  89201715.84045  21783965.086                    21783973.223
 106716551.500 8  83155772.59746  20307484.891                    20307490.719
 11  7 26 16 17  0.0000000  0  9G06G32G16G03G20G07G19G13G23
 116913367.744 7  91101355.51745  22247874.578                    22247883.570
 120044300.293 7  93541037.20344  22843672.563                    22843682.063
 108167990.433 8  84286766.77646  20583684.547                    20583691.844
 113986404.887 7  88820601.75545  21690891.797                    21690901.102
 115891104.591 7  90304673.21145  22053318.750                    22053327.086
 127250390.937 6                  24214949.227
 125021441.889 6  97419277.77443  23790772.203                    23790781.516
 114396137.273 8  89139868.64945  21768861.227                    21768869.508
 106676137.598 8  83124281.24346  20299794.391                    20299800.516
 11  7 26 16 17 30.0000000  0  9G06G32G16G03G20G07G19G13G23
 116876894.653 7  91072934.94445  22240933.750                    22240943.195
 120132787.987 7  93609988.59444  22860510.641                    22860521.098
 108214205.138 8  84322778.23146  20592478.844                    20592486.402
 113918110.704 7  88767385.53145  21677895.914                    21677905.152
 115963019.192 7  90360710.52045  22067003.609                    22067012.176
 127188042.534 6                  24203084.055
 124927946.125 6  97346424.06743  23772980.219                    23772989.801
 114316941.785 8  89078157.89745  21753791.250                    21753799.160
 106636114.205 8  83093094.17546  20292178.305                    20292184.430
 11  7 26 16 18  0.0000000  0  9G06G32G16G03G20G07G19G13G23
 116840873.400 7  91044866.46245  22234079.125                    22234088.410
 120221457.196 7  93679081.37044  22877384.531                    22877394.816
 108260894.074 8  84359159.20646  20601363.594                    20601370.887
 113850205.767 7  88714472.62545  21664974.102                    21664983.262
 116035255.132 7  90416998.22145  22080749.422                    22080758.418
 127125741.698 6                  24191229.141
 124834463.148 6  97273580.27644  23755190.797                    23755200.383
 114237924.284 8  89016585.81545  21738754.250                    21738762.441
 106596483.488 8  83062213.09846  20284636.773                    20284643.156
 11  7 26 16 18 30.0000000  0  9G06G32G16G03G20G07G19G13G23
 116805306.601 7  91017152.09645  22227310.875                    22227320.527
 120310305.713 7  93748313.89544  22894291.664                    22894301.641
 108308055.412 8  84395908.29146  20610338.070                    20610345.219
 113782693.592 7  88661865.76345  21652126.938                    21652136.199
 116107810.263 7  90473534.64145  22094556.602                    22094565.438
 127063488.461 6                  24179382.609
 124740996.282 6  97200749.06044  23737404.563                    23737414.215
 114159087.440 7  88955154.52845  21723752.336                    21723760.695
 106557248.249 8  83031640.17446  20277170.453                    20277176.750
 11  7 26 16 19  0.0000000  0  9G06G32G16G03G20G07G19G13G23
 116770196.498 7  90989793.59745  22220629.844                    22220639.258
 120399330.692 7  93817683.92644  22911232.719                    22911242.559
 108355687.189 8  84433023.94246  20619402.109                    20619409.324
 113715577.280 7  88609567.36645  21639354.898                    21639364.035
 116180681.618 7  90530317.45845  22108423.484                    22108432.285
 127001282.495 6                  24167545.336
 124647548.520 6  97127932.72544  23719622.125                    23719631.109
 114080433.395 8  88893865.66545  21708784.898                    21708793.363
 106518410.573 8  83001377.04546  20269780.070                    20269786.355
 11  7 26 16 19 30.0000000  0  9G06G32G16G03G20G07G19G13G23
 116735544.461 7  90962792.02545  22214036.031                    22214045.207
 120488529.064 7  93887189.05544  22928206.766                    22928216.730
 108403786.093 8  84470503.59546  20628554.813                    20628562.199
 113648859.397 7  88557579.43245  21626658.844                    21626668.184
 116253865.731 7  90587343.98945  22122350.125                    22122358.828
 126939123.119 6                  24155716.586
 124554122.802 6  97055133.55544  23701844.297                    23701852.758
 114001963.926 8  88832720.63445  21693852.492                    21693860.883
 106479972.018 8  82971424.92246  20262465.500                    20262471.887
 11  7 26 16 20  0.0000000  0  9G06G32G16G03G20G07G19G13G23
 116701352.791 7  90936149.18945  22207529.594                    22207538.699
 120577898.178 7  93956827.22744  22945212.992                    22945223.070
 108452350.181 8  84508345.72046  20637796.258                    20637803.875
 113582542.869 7  88505904.24145  21614038.898                    21614048.137
 116327359.826 7  90644612.06545  22136335.430                    22136344.074
 126877009.974 6                  24143897.203
 124460722.264 6  96982353.99544  23684070.609                    23684079.418
 113923681.576 8  88771721.41145  21678955.984                    21678964.145
 106441934.855 8  82941785.57046  20255227.234                    20255233.066
 11  7 26 16 20 30.0000000  0  9G06G32G16G03G20G07G19G13G23
 116667623.405 7  90909866.56545  22201111.055                    22201120.277
 120667435.287 7  94026596.29644  22962251.141                    22962261.688
 108501377.015 8  84546548.43246  20647125.945                    20647133.219
 113516630.765 7  88454544.18745  21601496.133                    21601506.066
 116401161.085 7  90702119.48745  22150379.820                    22150388.301
 126814942.679 6                  24132085.992
 124367349.794 6  96909596.31544  23666301.750                    23666311.215
 113845588.783 8  88710869.88945  21664095.445                    21664103.500
 106404301.394 8  82912460.79046  20248065.609                    20248071.594
 11  7 26 16 21  0.0000000  0  9G06G32G16G03G20G07G19G13G23
 116634359.029 7  90883946.30045  22194781.117                    22194790.242
 120757138.336 7  94096494.67344  22979321.758                    22979331.559
 108550864.716 8  84585110.26746  20656543.086                    20656550.426
 113451127.100 7  88403502.40645  21589031.359                    21589040.727
 116475266.941 7  90759864.25045  22164481.727                    22164490.367
 126752921.291 6                  24120283.156
 124274009.056 6  96836863.35444  23648539.914                    23648548.766
 113767688.135 8  88650168.09245  21649271.453                    21649279.637
 106367074.650 8  82883452.93446  20240981.719                    20240987.844
 11  7 26 16 21 30.0000000  0  9G06G32G16G03G20G07G19G13G23
 116601561.309 7  90858389.64845  22188540.016                    22188549.262
 120847004.465 7  94166520.11844  22996422.617                    22996432.895
 108600810.734 8  84624029.23946  20666047.188                    20666054.563
 113386034.610 7  88352781.00845  21576644.594                    21576654.133
 116549674.594 7  90817844.19345  22178640.867                    22178649.504
 126690944.970 6                  24108489.625
 124180703.080 6  96764157.45944  23630784.594                    23630793.469
 113689982.061 8  88589617.90845  21634484.672                    21634492.277
 106330256.379 8  82854763.36246  20233975.672                    20233981.555
 11  7 26 16 22  0.0000000  0  9G06G32G16G03G20G07G19G13G23
 116569231.877 7  90833197.90345  22182387.727                    22182396.887
 120937030.454 7  94236670.15144  23013554.539                    23013564.340
 108651212.266 8  84663303.13746  20675638.555                    20675646.035
 113321355.645 7  88302381.83045  21564336.430                    21564345.852
 116624380.654 7  90876056.65245  22192856.953                    22192865.594
 126629013.068 6                  24096704.781
 124087434.557 6  96691480.75944  23613035.938                    23613044.680
 113612472.558 8  88529220.90445  21619735.039                    21619742.625
 106293848.055 8  82826393.23546  20227047.586                    20227053.633
 11  7 26 16 22 30.0000000  0  9G06G32G16G03G20G07G19G13G23
 116537372.343 7  90808372.30745  22176325.078                    22176334.094
 121027213.493 7  94306942.56544  23030715.578                    23030725.176
 108702066.537 8  84702929.83346  20685315.758                    20685323.051
 113257092.690 7  88252306.83145  21552107.977                    21552117.414
 116699381.717 7  90934498.98845  22207128.945                    22207138.195
 126567125.389 6                  24084928.359
 123994206.312 6  96618835.44944  23595294.953                    23595303.609
 113535161.855 8  88468978.78645  21605023.359                    21605030.727
 106257851.739 8  82798344.14546  20220197.820                    20220203.805
 11  7 26 16 23  0.0000000  0  9G06G32G16G03G20G07G19G13G23
 116505985.372 7  90783914.94445  22170351.641                    22170361.117
 121117551.173 7  94377335.48344  23047906.508                    23047917.035
 108753371.708 8  84742907.86646  20695078.875                    20695086.125
 113193249.580 7  88202558.97945  21539958.938                    21539968.520
 116774675.550 7  90993169.45545  22221457.500                    22221465.762
 126505281.783 6                  24073159.813
 123901021.929 6  96546224.32844  23577562.406                    23577571.141
 113458052.503 8  88408893.57745  21590349.703                    21590357.770
 106222270.241 8  82770618.29846  20213426.727                    20213432.500
 11  7 26 16 23 30.0000000  0  9G06G32G16G03G20G07G19G13G23
 116475072.638 7  90759827.11345  22164469.594                    22164478.984
 121208040.818 7  94447846.78244  23065125.266                    23065136.500
 108805125.510 8  84783235.49146  20704927.352                    20704934.633
 113129828.690 7  88153140.12645  21527890.336                    21527899.473
 116850259.163 7  91052065.73045  22235840.820                    22235848.949
 126443481.587 6                  24061399.094
 123807884.103 6  96473649.47144  23559838.898                    23559847.844
 113381146.908 8  88348967.15245  21575715.039                    21575723.258
 106187105.203 8  82743216.95846  20206734.727                    20206741.176
 11  7 26 16 24  0.0000000  0  9G06G32G16G03G20G07G19G13G23
 116444635.822 7  90736110.12945  22158677.422                    22158686.645
 121298679.457 7  94518474.20044  23082374.078                    23082384.438
 108857324.941 8  84823910.35046  20714860.914                    20714868.203
 113066833.387 7  88104052.89245  21515902.922                    21515912.176
 116926129.237 7  91111185.21645  22250278.164                    22250286.352
 126381724.157 6                  24049647.156
 123714796.538 6  96401113.80744  23542125.031                    23542134.445
 113304447.270 8  88289201.22245  21561119.594                    21561127.922
 106152358.809 8  82716141.83346  20200123.063                    20200128.969
 11  7 26 16 24 30.0000000  0  9G06G32G16G03G20G07G19G13G23
 116414676.876 7  90712765.51945  22152976.625                    22152986.047
 121389464.377 7  94589215.58444  23099649.813                    23099659.859
 108909967.759 8  84864930.70446  20724878.203                    20724885.465
 113004266.826 7  88055299.75445  21503996.625                    21504005.953
 117002282.971 7  91170525.73245  22264769.234                    22264778.512
 126320009.331 6                  24037903.406
 123621762.259 6  96328619.67044  23524420.734                    23524430.320
 113227956.192 8  88229597.80545  21546563.961                    21546572.117
 106118033.325 8  82689394.68946  20193590.938                    20193596.879
 11  7 26 16 25  0.0000000  0  9G06G32G16G03G20G07G19G13G23
 116385198.159 7  90689795.10545  22147367.000                    22147375.824
 121480393.694 7  94660069.48444  23116953.383                    23116963.453
 108963051.965 8  84906294.99646  20734979.555                    20734986.922
 112942131.874 7  88006882.93745  21492172.914                    21492181.926
 117078717.922 7  91230085.37645  22279314.836                    22279323.852
 126258336.823 6                  24026166.648
 123528784.520 6  96256169.56244  23506728.141                    23506736.996
 113151676.547 8  88170159.12645  21532048.164                    21532056.199
 106084131.362 8  82662977.56346  20187139.602                    20187145.656
 11  7 26 16 25 30.0000000  0  9G06G32G16G03G20G07G19G13G23
 116356201.120 7  90667200.03045  22141848.914                    22141858.383
 121571463.925 7  94731033.22844  23134283.078                    23134293.430
 109016574.585 8  84948000.91846  20745164.523                    20745172.305
 112880431.052 7  87958804.37945  21480431.406                    21480440.781
 117155430.721 7  91289861.52745  22293912.805                    22293921.301
 126196706.336 6                  24014439.234
 123435866.130 6  96183765.72744  23489046.000                    23489054.887
 113075610.081 8  88110886.56545  21517573.109                    21517581.281
 106050654.591 8  82636891.75946  20180769.141                    20180774.988
 11  7 26 16 26  0.0000000  0  9G06G32G16G03G20G07G19G13G23
 116327687.394 7  90644981.55945  22136423.102                    22136431.852
 121662672.325 7  94802104.62544  23151639.984                    23151650.207
 109070533.274 8  84990046.62146  20755432.992                    20755440.258
 112819167.167 7  87911066.30245  21468773.305                    21468782.434
 117232418.406 7  91349851.86945  22308563.102                    22308571.785
 126135117.166 6                  24002719.172
 123343010.423 6  96111410.70144  23471375.195                    23471384.836
 112999759.630 8  88051782.31845  21503139.422                    21503147.297
 106017604.829 8  82611138.68046  20174480.102                    20174485.918
 11  7 26 16 26 30.0000000  0  9G06G32G16G03G20G07G19G13G23
 116299658.778 7  90623141.08845  22131089.188                    22131098.090
 121754016.228 7  94873281.58144  23169022.141                    23169032.773
 109124925.073 8  85032429.82046  20765783.195                    20765790.816
 112758343.294 7  87863671.08645  21457198.961                    21457208.258
 117309677.773 7  91410053.91245  22323265.211                    22323273.695
 126073568.830 6                  23991006.727
 123250220.219 6  96039106.74144  23453718.406                    23453728.145
 112924127.043 8  87992847.84045  21488746.922                    21488754.738
 105984983.981 8  82585719.83346  20168272.531                    20168278.277
 11  7 26 16 27  0.0000000  0  9G06G32G16G03G20G07G19G13G23
 116272117.472 7  90601680.35545  22125848.586                    22125857.934
 121845493.302 6  94944562.31844  23186429.648                    23186440.777
 109179748.246 8  85075149.14446  20776216.008                    20776223.746
 112697962.581 7  87816621.20545  21445709.242                    21445718.047
 117387206.536 7  91470465.87645  22338018.180                    22338027.715
 126012061.155 6                  23979302.992
 123157499.309 6  95966856.77044  23436074.445                    23436083.484
 112848715.470 8  87934085.57645  21474396.883                    21474404.578
 105952794.652 8  82560637.23446  20162147.289                    20162153.160
 11  7 26 16 27 30.0000000  0  9G06G32G16G03G20G07G19G13G23
 116245065.213 7  90580600.68445  22120700.570                    22120709.367
 121937100.845 7  95015944.71944  23203862.305                    23203872.172
 109235000.414 8  85118202.75646  20786730.320                    20786737.121
 112638028.062 7  87769918.98745  21434303.797                    21434312.738
 117465001.480 7  91531085.25345  22352822.656                    22352831.180
 125950593.959 6                  23967605.383
 123064850.618 7  95894663.06444  23418443.922                    23418452.855
 112773527.013 8  87875497.18145  21460089.039                    21460096.750
 105921039.072 8  82535892.62546  20156104.039                    20156110.285
 11  7 26 16 28  0.0000000  0  9G06G32G16G03G20G07G19G13G23
 116218502.788 7  90559902.70545  22115645.539                    22115654.848
 122028835.248 7  95087425.97744  23221318.930                    23221329.316
 109290678.008 7  85161587.87046  20797325.195                    20797332.691
 112578541.744 7  87723566.02645  21422983.953                    21422993.012
 117543058.755 7  91591909.04445  22367675.789                    22367685.020
 125889166.500 6                  23955916.727
 122972276.846 6  95822527.73844  23400827.508                    23400836.340
 112698563.755 8  87817084.25645  21445823.914                    21445832.141
 105889718.262 8  82511486.79646  20150144.008                    20150149.961
 11  7 26 16 28 30.0000000  0  9G06G32G16G03G20G07G19G13G23
 116192433.187 7  90539588.74345  22110684.953                    22110693.688
 122120694.998 6  95159004.90744  23238798.859                    23238809.512
 109346779.703 8  85205303.45546  20808001.102                    20808008.254
 112519507.478 7  87677565.31445  21411750.211                    21411759.254
 117621376.850 7  91652936.07845  22382579.375                    22382588.273
 125827778.746 6                  23944234.469
 122879782.050 6  95750453.94744  23383226.773                    23383235.828
 112623828.954 8  87758849.34645  21431602.211                    21431610.672
 105858835.673 8  82487422.43146  20144267.180                    20144272.938
 11  7 26 16 29  0.0000000  0  9G06G32G16G03G20G07G19G13G23
 116166857.661 7  90519659.76845  22105818.227                    22105827.223
 122212676.828 6  95230678.97044  23256302.992                    23256313.176
 109403302.558 7  85249347.22646  20818756.719                    20818764.316
 112460927.605 7  87631918.67845  21400602.734                    21400611.684
 117699951.937 7  91714163.35145  22397531.703                    22397540.898
 125766430.055 6                  23932560.125
 122787369.028 6  95678443.88544  23365640.781                    23365649.254
 112549324.435 8  87700793.89745  21417424.406                    21417432.652
 105828392.565 8  82463700.51946  20138474.250                    20138479.996
 11  7 26 16 29 30.0000000  0  9G06G32G16G03G20G07G19G13G23
 116141777.585 7  90500116.86745  22101045.203                    22101054.379
 122304777.845 6  95302445.89644  23273829.117                    23273840.238
 109460243.836 8  85293717.03046  20829592.375                    20829599.852
 112402804.679 7  87586628.11245  21389542.180                    21389550.945
 117778781.126 7  91775588.64545  22412532.555                    22412541.586
 125705119.913 6                  23920893.758
 122695040.721 6  95606499.82744  23348071.078                    23348079.914
 112475052.927 8  87642919.99645  21403290.836                    21403298.832
 105798390.769 8  82440322.48746  20132764.805                    20132770.813
 11  7 26 16 30  0.0000000  0 10G06G10G32G16G03G20G07G19G13G23
 116117194.882 7  90480961.53345  22096367.414                    22096376.500
 129118408.05415 100611824.81652  24570424.578                    24570435.758
 122396995.630 6  95374303.80244  23291377.234                    23291388.695
 109517600.927 8  85338410.85246  20840506.984                    20840514.316
 112345141.995 7  87541696.17845  21378569.664                    21378578.441
 117857861.389 7  91837209.55745  22427581.180                    22427589.973
 125643848.423 6                  23909233.430
 122602800.059 7  95534624.06244  23330518.461                    23330526.207
 112401016.691 8  87585229.43045  21389202.305                    21389210.418
 105768832.630 8  82417290.16646  20127140.250                    20127146.539
 11  7 26 16 30 30.0000000  0 10G06G10G32G16G03G20G07G19G13G23
 116093110.665 7  90462194.62845  22091784.273                    22091793.480
 129056700.332 5 100563740.86042  24558682.102                    24558692.391
 122489326.880 7  95446250.12544  23308947.305                    23308958.418
 109575371.124 8  85383426.57146  20851500.523                    20851507.863
 112287941.433 7  87497124.33345  21367684.469                    21367693.461
 117937189.330 7  91899023.49145  22442676.891                    22442685.340
 125582614.570 6                  23897581.109
 122510650.792 7  95462819.49344  23312983.219                    23312990.867
 112327217.792 8  87527723.81345  21375159.063                    21375167.238
 105739719.411 8  82394604.53246  20121600.672                    20121606.129
 11  7 26 16 31  0.0000000  0 10G06G10G32G16G03G20G07G19G13G23
 116069527.078 7  90443817.80945  22087296.188                    22087305.570
 128995424.72515 100515993.63252  24547021.672                    24547032.719
 122581769.323 7  95518283.09544  23326539.039                    23326549.859
 109633552.180 8  85428762.43746  20862572.078                    20862579.039
 112231206.499 7  87452915.31445  21356888.281                    21356897.367
 118016762.609 7  91961028.56745  22457819.805                    22457828.367
 125521418.078 6                  23885936.016
 122418596.035 6  95391088.59344  23295465.039                    23295473.383
 112253659.293 8  87470405.51545  21361161.289                    21361168.992
 105711053.672 8  82372267.58446  20116145.602                    20116151.563
 11  7 26 16 31 30.0000000  0 10G06G10G32G16G03G20G07G19G13G23
 116046445.519 7  90425832.19445  22082904.391                    22082913.367
 128934582.548 5 100468584.20742  24535443.734                    24535454.371
 122674320.283 6  95590400.63943  23344150.641                    23344161.207
 109692141.243 8  85474416.23146  20873721.203                    20873728.383
 112174939.896 7  87409071.23845  21346180.539                    21346190.180
 118096577.871 7  92023222.22545  22473007.602                    22473016.531
 125460258.802 6                  23874297.320
 122326638.933 7  95319433.76744  23277966.617                    23277974.559
 112180343.570 8  87413276.38445  21347209.664                    21347217.695
 105682837.552 8  82350280.98746  20110776.180                    20110782.063
 11  7 26 16 32  0.0000000  0 10G06G10G32G16G03G20G07G19G13G23
 116023867.797 7  90408239.17345  22078608.367                    22078616.855
 128874175.530 5 100421513.83742  24523949.523                    24523959.094
 122766977.322 7  95662600.84144  23361782.516                    23361793.055
 109751136.350 8  85520386.43346  20884947.617                    20884954.961
 112119144.388 7  87365594.25445  21335563.664                    21335572.926
 118176632.459 7  92085602.34845  22488241.977                    22488250.762
 125399136.703 6                  23862665.961
 122234783.013 7  95247857.81144  23260487.000                    23260495.113
 112107273.421 8  87356338.61945  21333304.844                    21333313.086
 105655073.283 8  82328646.48746  20105492.539                    20105498.945
 11  7 26 16 32 30.0000000  0 10G06G10G32G16G03G20G07G19G13G23
 116001795.418 7  90391039.92945  22074407.484                    22074416.793
 128814205.376 5 100374783.89243  24512537.094                    24512547.449
 122859737.308 6  95734881.25544  23379435.063                    23379444.902
 109810534.354 8  85566670.57146  20896250.797                    20896257.996
 112063822.274 7  87322486.13945  21325035.828                    21325045.215
 118256923.027 7  92148166.37545  22503520.445                    22503529.340
 125338051.106 6                  23851042.063
 122143031.195 7  95176362.97144  23243026.672                    23243034.934
 112034450.826 8  87299593.75545  21319447.289                    21319455.238
 105627762.109 8  82307365.04746  20100295.719                    20100301.613
 11  7 26 16 33  0.0000000  0 10G06G10G32G16G03G20G07G19G13G23
 115980229.665 7  90374235.44845  22070303.742                    22070313.051
 128754673.900 6 100328395.79643  24501208.305                    24501218.797
 122952597.666 6  95807239.87344  23397105.594                    23397116.469
 109870333.100 7  85613266.98346  20907629.969                    20907637.523
 112008976.505 7  87279749.21346  21314598.688                    21314608.590
 118337446.828 7  92210912.13444  22518843.945                    22518852.828
 125277001.629 7                  23839425.258
 122051387.002 6  95104951.99444  23225587.641                    23225595.652
 111961878.598 8  87243043.97646  21305637.156                    21305645.305
 105600906.399 8  82286438.50746  20095184.984                    20095190.895
 11  7 26 16 33 30.0000000  0 10G06G10G32G16G03G20G07G19G13G23
 115959172.305 7  90357827.12245  22066296.672                    22066306.383
 128695582.774 6 100282350.78743  24489963.883                    24489974.199
 123045555.868 6  95879674.71944  23414795.633                    23414805.555
 109930529.887 8  85660173.54746  20919084.813                    20919092.074
 111954609.764 7  87237385.55345  21304253.789                    21304262.930
 118418200.932 7  92273837.34945  22534211.008                    22534219.348
 125215987.970 6                  23827814.656
 121959853.440 7  95033627.21044  23208169.141                    23208177.566
 111889559.227 8  87186691.23345  21291875.445                    21291882.930
 105574508.024 8  82265868.34246  20090161.820                    20090168.223
 11  7 26 16 34  0.0000000  0 10G06G10G32G16G03G20G07G19G13G23
 115938624.755 7  90341816.04945  22062386.563                    22062395.453
 128636933.534 6 100236650.12243  24478803.289                    24478813.781
 123138609.259 6  95952183.74844  23432502.164                    23432513.145
 109991121.991 8  85707388.16346  20930615.328                    20930622.691
 111900724.643 7  87195397.16646  21293999.281                    21294008.590
 118499182.153 7  92336939.53045  22549621.289                    22549630.207
 125155009.875 6                  23816210.773
 121868433.720 7  94962391.13944  23190772.258                    23190781.105
 111817494.860 8  87130537.20146  21278161.688                    21278169.801
 105548568.891 8  82245656.02346  20085225.438                    20085231.824
 11  7 26 16 34 30.0000000  0 10G06G10G32G16G03G20G07G19G13G23
 115918588.307 7  90326203.23745  22058573.430                    22058582.617
 128578727.787 6 100191294.99243  24467726.805                    24467737.711
 123231754.661 6  96024764.48243  23450227.367                    23450238.293
 110052106.838 8  85754908.79846  20942220.359                    20942227.707
 111847323.997 7  87153786.30845  21283837.523                    21283846.730
 118580387.184 7  92400216.12044  22565073.453                    22565083.066
 125094066.751 6                  23804613.461
 121777131.070 7  94891246.30344  23173398.414                    23173406.813
 111745688.135 8  87074583.91746  21264497.484                    21264505.867
 105523090.644 8  82225802.83746  20080377.258                    20080383.566
 11  7 26 16 35  0.0000000  0 10G06G10G32G16G03G20G07G19G13G23
 115899064.507 7  90310989.91245  22054858.766                    22054867.758
 128520967.397 6 100146286.88543  24456735.492                    24456746.246
 123324989.680 6  96097415.03844  23467969.219                    23467980.410
 110113481.834 8  85802733.45246  20953899.664                    20953906.992
 111794410.297 7  87112554.88345  21273768.203                    21273777.484
 118661813.536 7  92463665.15345  22580568.781                    22580577.523
 125033158.274 6                  23793023.063
 121685948.793 7  94820195.24545  23156046.555                    23156055.102
 111674141.622 8  87018833.39345  21250882.906                    21250890.422
 105498075.365 8  82206310.40146  20075617.016                    20075622.977
 11  7 26 16 35 30.0000000  0 10G06G10G32G16G03G20G07G19G13G23
 115880054.590 7  90296177.00945  22051241.539                    22051250.398
 128463654.090 6 100101627.22743  24445828.953                    24445840.090
 123418311.556 6  96170133.27644  23485728.344                    23485738.699
 110175244.080 8  85850859.86446  20965652.734                    20965659.945
 111741985.967 7  87071704.77545  21263792.125                    21263801.762
 118743457.706 7  92527283.94044  22596105.414                    22596114.125
 124972283.950 6                  23781438.984
 121594890.163 7  94749240.51845  23138719.055                    23138727.039
 111602857.764 8  86963287.53146  21237317.594                    21237325.594
 105473524.903 8  82187180.16946  20070945.117                    20070951.445
 11  7 26 16 36  0.0000000  0 10G06G10G32G16G03G20G07G19G13G23
 115861560.305 7  90281765.88845  22047721.914                    22047730.383
 128406789.267 6 100057316.99843  24435007.789                    24435018.262
 123511717.446 6  96242916.96544  23503503.313                    23503513.902
 110237391.362 8  85899286.29646  20977479.023                    20977486.164
 111690053.984 7  87031238.31445  21253910.031                    21253918.805
 118825317.194 7  92591070.46744  22611682.547                    22611691.754
 124911443.780 6                  23769861.328
 121503958.174 7  94678384.49544  23121414.867                    23121423.398
 111531839.345 8  86907948.51446  21223803.508                    21223811.156
 105449441.156 8  82168413.60146  20066362.273                    20066368.391
 11  7 26 16 36 30.0000000  0 10G06G10G32G16G03G20G07G19G13G23
 115843582.727 7  90267757.40145  22044301.031                    22044309.711
 128350374.279 6 100013357.31343  24424272.758                    24424283.137
 123605204.995 6  96315764.28844  23521293.047                    23521304.453
 110299920.980 8  85948010.65046  20989378.211                    20989385.266
 111638616.797 7  86991157.41645  21244121.688                    21244130.559
 118907388.618 7  92655022.17844  22627300.320                    22627309.453
 124850637.319 6                  23758290.023
 121413156.219 7  94607629.77344  23104135.844                    23104143.637
 111461088.412 8  86852817.92245  21210340.109                    21210348.121
 105425825.823 8  82150012.03147  20061868.375                    20061874.641
 11  7 26 16 37  0.0000000  0 10G06G10G32G16G03G20G07G19G13G23
 115826123.404 7  90254152.75145  22040978.305                    22040987.398
 128294410.866 6  99969749.51743  24413622.969                    24413633.809
 123698771.366 6  96388673.05744  23539098.000                    23539109.070
 110362830.428 8  85997030.98146  21001349.344                    21001356.641
 111587676.973 7  86951464.07245  21234428.484                    21234437.660
 118989669.052 7  92719136.73044  22642958.313                    22642967.063
 124789864.144 6                  23746725.164
 121322487.930 7  94536979.21544  23086882.789                    23086890.242
 111390607.675 8  86797897.87245  21196928.008                    21196935.863
 105402680.914 8  82131977.02847  20057464.188                    20057469.996
 11  7 26 16 37 30.0000000  0 10G06G10G32G16G03G20G07G19G13G23
 115809183.176 7  90240952.59045  22037754.188                    22037763.980
 128238900.444 6  99926494.69243  24403059.305                    24403070.141
 123792413.640 6  96461640.94644  23556917.586                    23556928.457
 110426116.735 8  86046344.95946  21013392.031                    21013398.922
 111537236.885 7  86912160.12945  21224829.836                    21224838.922
 119072155.067 7  92783411.48444  22658654.188                    22658663.609
 124729123.686 6                  23735167.023
 121231956.056 7  94466434.95944  23069654.617                    23069662.824
 111320399.392 8  86743190.11646  21183567.695                    21183575.551
 105380007.784 8  82114309.64746  20053149.719                    20053155.539
 11  7 26 16 38  0.0000000  0 10G06G10G32G16G03G20G07G19G13G23
 115792763.844 7  90228158.31845  22034630.125                    22034639.488
 128183844.867 6  99883594.31343  24392583.742                    24392593.496
 123886129.397 6  96534666.09544  23574751.969                    23574762.879
 110489777.582 8  86095950.79346  21025506.852                    21025513.730
 111487299.100 7  86873247.58945  21215327.117                    21215336.145
 119154844.279 7  92847844.56644  22674389.813                    22674398.605
 124668416.230 6                  23723614.477
 121141564.074 7  94395999.69844  23052453.383                    23052461.492
 111250466.526 8  86688696.98446  21170259.984                    21170267.965
 105357808.882 8  82097011.78947  20048925.109                    20048930.984
 11  7 26 16 38 30.0000000  0 10G06G10G32G16G03G20G07G19G13G23
 115776867.074 7  90215771.24245  22031604.789                    22031614.664
 128129245.765 6  99841049.58043  24382193.266                    24382203.758
 123979916.220 7  96607746.61744  23592598.727                    23592609.609
 110553810.712 8  86145846.72046  21037691.766                    21037698.539
 111437866.822 7  86834728.95345  21205920.211                    21205929.141
 119237734.050 7  92912433.93844  22690163.398                    22690172.129
 124607741.282 6                  23712068.367
 121051315.533 7  94325676.23244  23035279.453                    23035287.977
 111180812.032 8  86634420.75945  21157004.867                    21157013.219
 105336086.359 8  82080085.13847  20044791.539                    20044797.402
 11  7 26 16 39  0.0000000  0 10G06G10G32G16G03G20G07G19G13G23
 115761493.375 7  90203791.75945  22028679.297                    22028688.680
 128075103.987 6  99798861.20743  24371890.031                    24371900.707
 124073770.798 6  96680879.93044  23610458.828                    23610469.262
 110618212.395 8  86196029.83546  21049947.039                    21049954.250
 111388941.643 7  86796605.45045  21196610.578                    21196619.090
 119320820.295 7  92977176.40244  22705973.977                    22705982.984
 124547098.023 6                  23700528.500
 120961213.378 7  94255466.80544  23018133.617                    23018141.867
 111111437.146 8  86580362.41145  21143803.352                    21143811.484
 105314840.903 8  82063530.22547  20040749.125                    20040754.738
 11  7 26 16 39 30.0000000  0 10G06G10G32G16G03G20G07G19G13G23
 115746644.662 7  90192221.35245  22025854.289                    22025863.563
 128021421.940 6  99757031.05343  24361674.547                    24361685.328
 124167691.230 7  96754064.57544  23628331.141                    23628342.098
 110682981.186 8  86246499.00746  21062272.023                    21062279.148
 111340526.765 8  86758879.58345  21187396.742                    21187405.816
 119404101.007 7  93042070.38144  22721821.891                    22721831.359
 124486486.713 6                  23688994.172
 120871261.024 7  94185374.12444  23001016.000                    23001024.188
 111042345.623 8  86526524.85846  21130655.617                    21130663.727
 105294075.651 8  82047349.49447  20036797.641                    20036803.367
 11  7 26 16 40  0.0000000  0 10G06G10G32G16G03G20G07G19G13G23
 115732321.428 7  90181060.39545  22023128.469                    22023137.941
 127968200.391 5  99715559.72743  24351547.078                    24351556.820
 124261674.053 6  96827297.81444  23646215.109                    23646226.398
 110748113.557 8  86297251.48346  21074666.375                    21074673.402
 111292623.934 7  86721552.72145  21178281.438                    21178290.277
 119487572.494 7  93107113.03944  22737705.914                    22737714.711
 124425906.890 6                  23677466.570
 120781461.627 7  94115400.60544  22983927.859                    22983936.129
 110973539.323 8  86472909.56246  21117562.594                    21117570.566
 105273791.014 8  82031543.27847  20032937.258                    20032943.398
 11  7 26 16 40 30.0000000  0 10G06G10G32G16G03G20G07G19G13G23
 115718525.085 7  90170310.01445  22020503.125                    22020512.078
 127915440.730 6  99674448.33742  24341507.586                    24341517.305
 124355716.889 6  96900577.82443  23664111.109                    23664122.531
 110813606.982 8  86348285.29846  21087129.250                    21087136.773
 111245236.049 7  86684627.12345  21169263.688                    21169272.766
 119571231.631 7  93172301.91444  22753625.953                    22753634.840
 124365357.950 7                  23665944.203
 120691818.453 7  94045548.83644  22966869.680                    22966877.555
 110905020.624 8  86419518.37746  21104523.906                    21104531.668
 105253989.081 8  82016113.18846  20029169.242                    20029175.313
 11  7 26 16 41  0.0000000  0 10G06G10G32G16G03G20G07G19G13G23
 115705257.020 7  90159971.26945  22017978.383                    22017987.609
 127863144.695 5  99633698.22242  24331555.766                    24331566.152
 124449817.194 6  96973902.59443  23682018.461                    23682029.352
 110879459.124 8  86399598.62746  21099660.594                    21099668.051
 111198365.440 7  86648104.58745  21160344.688                    21160353.730
 119655075.620 7  93237634.82144  22769581.055                    22769590.094
 124304840.009 7                  23654428.141
 120602335.066 7  93975821.57944  22949841.383                    22949849.594
 110836792.752 8  86366353.80746  21091540.328                    21091548.750
 105234671.941 8  82001060.86447  20025493.367                    20025499.094
 11  7 26 16 41 30.0000000  0 10G06G10G32G16G03G20G07G19G13G23
 115692518.145 7  90150044.87245  22015553.984                    22015562.734
 127811313.590 6  99593310.39443  24321692.141                    24321702.785
 124543972.252 6  97047270.04743  23699935.563                    23699946.383
 110945667.227 8  86451189.34146  21112259.438                    21112266.836
 111152014.332 7  86611986.84746  21151524.344                    21151533.141
 119739101.430 7  93303109.40144  22785570.352                    22785579.270
 124244352.475 7                  23642917.820
 120513014.247 7  93906220.98144  22932844.555                    22932851.914
 110768857.640 8  86313417.36846  21078612.680                    21078620.875
 105215841.011 8  81986387.40747  20021909.664                    20021915.813
 11  7 26 16 42  0.0000000  0 10G06G10G32G16G03G20G07G19G13G23
 115680309.747 7  90140531.84645  22013230.984                    22013239.719
 127759949.004 6  99553286.08143  24311918.102                    24311928.148
 124638179.393 6  97120678.09443  23717862.977                    23717873.207
 111012228.720 8  86503055.41346  21124925.852                    21124933.086
 111106185.258 7  86576275.88745  21142803.352                    21142812.496
 119823306.182 7  93368723.42244  22801594.602                    22801603.289
 124183895.056 7                  23631413.234
 120423859.973 7  93836750.17945  22915879.000                    22915886.699
 110701218.240 8  86260711.35246  21065741.953                    21065749.438
 105197498.386 8  81972094.44047  20018419.367                    20018425.352
 11  7 26 16 42 30.0000000  0 10G06G10G32G16G03G20G07G19G13G23
 115668632.707 7  90131432.86645  22011008.508                    22011017.500
 127709052.015 6  99513626.11943  24302232.430                    24302243.172
 124732435.825 6  97194124.53043  23735799.023                    23735810.113
 111079140.686 8  86555194.58946  21137658.727                    21137666.621
 111060880.586 7  86540973.56545  21134182.148                    21134191.016
 119907686.470 7  93434474.20944  22817651.641                    22817660.754
 124123467.460 7                  23619913.766
 120334874.966 7  93767411.26444  22898945.609                    22898953.645
 110633876.806 8  86208237.52246  21052927.203                    21052934.965
 105179645.240 8  81958182.89047  20015021.938                    20015028.129
 11  7 26 16 43  0.0000000  0 10G06G10G32G16G03G20G07G19G13G23
 115657488.376 7  90122748.97445  22008887.969                    22008896.941
 127658624.110 6  99474331.66942  24292636.578                    24292647.070
 124826738.954 6  97267607.40143  23753744.844                    23753754.867
 111146400.561 8  86607604.85646  21150457.844                    21150465.359
 111016102.754 7  86506081.77145  21125661.266                    21125669.965
 119992239.702 7  93500359.76744  22833741.008                    22833749.727
 124063069.479 7                  23608420.281
 120246062.558 7  93698206.81944  22882044.992                    22882052.934
 110566836.043 8  86155997.96246  21040169.438                    21040177.422
 105162283.422 8  81944654.19247  20011718.172                    20011724.391
 11  7 26 16 43 30.0000000  0 10G06G10G32G16G03G20G07G19G13G23
 115646877.726 7  90114480.92445  22006868.445                    22006878.152
 127608666.765 5  99435403.90342  24283129.641                    24283140.145
 124921086.191 6  97341124.59043  23771698.234                    23771709.727
 111214005.567 8  86660284.05646  21163322.820                    21163329.953
 110971853.971 7  86471602.21645  21117241.000                    21117249.984
 120076962.677 7  93566377.58144  22849864.188                    22849872.496
 124002700.687 7                  23596932.680
 120157426.031 7  93629139.45544  22865178.141                    22865185.477
 110500098.264 8  86103994.50246  21027469.195                    21027477.582
 105145414.754 8  81931509.77147  20008508.453                    20008514.121
 11  7 26 16 44  0.0000000  0 10G06G10G32G16G03G20G07G19G13G23
 115636801.373 7  90106629.22945  22004951.289                    22004960.602
 127559181.060 6  99396843.58942  24273713.070                    24273722.691
 125015474.608 6  97414673.90143  23789659.773                    23789670.766
 111281953.375 8  86713230.37746  21176252.813                    21176260.129
 110928135.935 7  86437536.24745  21108921.578                    21108930.648
 120161852.387 7  93632525.32644  22866017.883                    22866026.785
 123942360.756 7                  23585450.266
 120068968.965 7  93560211.91645  22848345.102                    22848353.141
 110433666.214 8  86052229.27046  21014827.930                    21014835.941
 105129040.472 8  81918750.58447  20005392.422                    20005398.266
 11  7 26 16 44 30.0000000  0 10G06G10G32G16G03G20G07G19G13G23
 115627261.088 7  90099195.24345  22003135.938                    22003145.383
 127510168.522 6  99358652.03242  24264385.867                    24264396.469
 125109902.213 6  97488253.74644  23807629.109                    23807640.188
 111350241.468 8  86766441.85946  21189247.672                    21189254.938
 110884951.621 7  86403886.15046  21100703.703                    21100712.895
 120246906.280 7  93698800.99444  22882203.164                    22882211.836
 123882049.927 7                  23573973.805
 119980694.756 7  93491426.87744  22831547.211                    22831555.031
 110367542.576 8  86000704.36046  21002244.734                    21002252.777
 105113162.892 8  81906378.42847  20002371.008                    20002376.855
 11  7 26 16 45  0.0000000  0 10G06G10G32G16G03G20G07G19G13G23
 115618257.263 7  90092179.27545  22001422.648                    22001431.980
 127461630.227 6  99320830.00143  24255150.461                    24255159.531
 125204365.732 6  97561861.54243  23825605.031                    23825615.930
 111418866.534 8  86819915.91246  21202306.711                    21202314.039
 110842302.989 8  86370653.46845  21092587.906                    21092597.090
 120332120.661 7  93765201.73044  22898419.047                    22898428.059
 123821767.385 7                  23562502.211
 119892606.267 7  93422786.54045  22814784.664                    22814792.664
 110301729.670 8  85949421.58446  20989721.242                    20989728.938
 105097782.988 8  81894394.07347  19999444.117                    19999450.406
 11  7 26 16 45 30.0000000  0 10G06G10G32G16G03G20G07G19G13G23
 115609790.902 7  90085582.10745  21999811.578                    21999821.000
 127413567.517 6  99283378.54743  24246003.578                    24246013.305
 125298862.381 6  97635495.15543  23843586.555                    23843598.375
 111487826.030 8  86873650.55446  21215428.859                    21215436.672
 110800192.448 7  86337840.08146  21084574.969                    21084583.688
 120417492.459 7  93831725.11644  22914665.281                    22914673.309
 123761512.761 7                  23551036.172
 119804706.722 7  93354293.42245  22798057.273                    22798065.238
 110236229.752 8  85898382.69346  20977257.102                    20977265.094
 105082902.245 8  81882798.68047  19996612.664                    19996618.309
 11  7 26 16 46  0.0000000  0 10G06G10G32G16G03G20G07G19G13G23
 115601862.760 7  90079404.34445  21998302.961                    21998311.875
 127365981.575 6  99246298.61543  24236948.508                    24236958.316
 125393389.862 6  97709152.80843  23861574.867                    23861586.352
 111557117.499 8  86927643.88046  21228614.500                    21228622.109
 110758622.201 7  86305447.69145  21076664.281                    21076673.109
 120503018.887 7  93898369.00644  22930940.289                    22930948.559
 123701286.149 7                  23539575.375
 119716999.498 7  93285950.17745  22781366.992                    22781375.582
 110171045.625 8  85847589.87246  20964852.531                    20964860.871
 105068522.431 8  81871593.62147  19993876.211                    19993882.086
 11  7 26 16 46 30.0000000  0 10G06G10G32G16G03G20G07G19G13G23
 115594474.191 7  90073647.00145  21996896.984                    21996905.738
 127318873.892 6  99209591.35143  24227984.227                    24227994.281
 125487945.601 6  97782832.44943  23879568.969                    23879580.328
 111626738.509 8  86981893.99646  21241863.148                    21241870.555
 110717594.447 8  86273478.02846  21068856.898                    21068865.590
 120588697.288 7  93965131.28744  22947243.953                    22947253.082
 123641087.219 7                  23528119.938
 119629488.248 7  93217759.63545  22764714.383                    22764722.313
 110106180.029 8  85797045.25046  20952509.313                    20952517.270
 105054645.426 8  81860780.35147  19991235.594                    19991241.391
 11  7 26 16 47  0.0000000  0 10G06G10G32G16G03G20G07G19G13G23
 115587625.925 7  90068310.71145  21995593.773                    21995602.617
 127272245.328 6  99173257.43243  24219110.680                    24219121.258
 125582526.899 6  97856532.02543  23897566.672                    23897578.680
 111696685.909 8  87036398.44046  21255173.672                    21255181.254
 110677110.857 7  86241932.38346  21061152.914                    21061162.121
 120674524.075 7  94032009.23044  22963576.375                    22963585.133
 123580915.164 7                  23516669.961
 119542176.079 7  93149724.22645  22748098.961                    22748107.059
 110041635.249 8  85746750.61746  20940227.063                    20940234.906
 105041272.327 8  81850359.73147  19988690.438                    19988696.434
 11  7 26 16 47 30.0000000  0 10G06G10G32G16G03G20G07G19G13G23
 115581318.955 7  90063396.20845  21994393.664                    21994402.621
 127226097.428 6  99137298.04243  24210329.992                    24210339.766
 125677131.246 6  97930249.52643  23915569.055                    23915581.223
 111766957.802 8  87091155.73546  21268545.703                    21268553.500
 110637174.293 8  86210812.99345  21053553.422                    21053562.355
 120760496.789 7  94099000.87444  22979936.563                    22979945.434
 123520770.818 7                  23505224.328
 119455066.455 7  93081846.64144  22731522.883                    22731530.770
 109977414.166 8  85696708.22246  20928006.109                    20928013.887
 105028405.337 8  81840333.48647  19986241.703                    19986248.109
 11  7 26 16 48  0.0000000  0 10G06G10G32G16G03G20G07G19G13G23
 115575553.705 7  90058903.79545  21993295.953                    21993305.879
 127180431.110 6  99101713.91043  24201639.297                    24201649.492
 125771755.724 6  98003982.74243  23933576.445                    23933587.984
 111837550.572 8  87146163.06245  21281979.273                    21281986.988
 110597786.446 7  86180121.16646  21046058.336                    21046067.344
 120846611.828 7  94166103.40544  22996323.758                    22996332.680
 123460653.023 6                  23493784.961
 119368162.496 7  93014129.31545  22714985.617                    22714993.344
 109913518.782 8  85646919.61346  20915846.992                    20915854.910
 105016045.242 8  81830702.22247  19983890.258                    19983896.207
 11  7 26 16 48 30.0000000  0 10G06G10G32G16G03G20G07G19G13G23
 115570331.263 7  90054834.34645  21992302.609                    21992311.727
 127135247.466 6  99066505.90843  24193041.555                    24193051.598
 125866397.933 6  98077729.75643  23951586.492                    23951597.730
 111908462.020 8  87201418.71146  21295473.258                    21295481.008
 110558949.587 7  86149858.69746  21038667.836                    21038676.902
 120932866.760 7  94233314.96844  23012737.406                    23012746.723
 123400561.842 6                  23482349.531
 119281467.587 7  92946574.89244  22698487.898                    22698495.957
 109849951.873 8  85597386.95746  20903750.992                    20903759.082
 105004193.748 8  81821467.26447  19981635.086                    19981640.852
 11  7 26 16 49  0.0000000  0 10G06G10G32G16G03G20G07G19G13G23
 115565652.342 7  90051188.46745  21991411.922                    21991421.387
 127090547.772 6  99031674.99643  24184535.125                    24184545.223
 125961055.119 6  98151488.47843  23969598.828                    23969610.070
 111979689.247 8  87256920.42546  21309027.875                    21309035.121
 110520665.779 7  86120027.18146  21031382.211                    21031391.789
 121019258.304 7  94300632.93844  23029177.258                    23029186.672
 123340496.876 7                  23470919.461
 119194984.797 7  92879185.76545  22682030.797                    22682038.734
 109786716.129 8  85548112.35646  20891717.586                    20891725.438
 104992852.225 8  81812629.69547  19979476.625                    19979482.680
 11  7 26 16 49 30.0000000  0 10G06G10G32G16G03G20G07G19G13G23
 115561517.783 7  90047966.72345  21990625.156                    21990634.262
 127046333.339 6  98997222.18943  24176121.656                    24176131.887
 126055725.025 6  98225257.11843  23987614.453                    23987625.770
 112051230.013 8  87312666.45746  21322641.164                    21322648.988
 110482937.037 7  86090628.17146  21024202.688                    21024211.957
 121105783.641 7  94368055.18744  23045642.992                    23045651.355
 123280458.292 6                  23459494.484
 119108717.658 7  92811964.68745  22665615.148                    22665622.605
 109723814.139 7  85499097.82346  20879747.594                    20879755.520
 104982022.650 8  81804191.04847  19977416.055                    19977421.969
 11  7 26 16 50  0.0000000  0 10G06G10G32G16G03G20G07G19G13G23
 115557928.350 7  90045169.76945  21989942.242                    21989951.570
 127002605.099 6  98963148.26843  24167800.172                    24167811.027
 126150404.500 7  98299033.16143  24005631.398                    24005642.398
 112123081.241 8  87368654.40746  21336314.180                    21336321.727
 110445765.526 8  86061663.36846  21017129.391                    21017138.566
 121192439.432 7  94435579.10344  23062132.555                    23062141.457
 123220445.623 6                  23448074.438
 119022669.564 7  92744914.29245  22649240.367                    22649248.395
 109661248.575 7  85450345.44346  20867841.719                    20867849.766
 104971705.964 8  81796152.04947  19975452.891                    19975458.352
 11  7 26 16 50 30.0000000  0 10G06G10G32G16G03G20G07G19G13G23
 115554884.519 7  90042797.94845  21989363.070                    21989371.973
 126959364.231 6  98929454.09943  24159571.836                    24159581.863
 126245091.191 7  98372814.85143  24023649.656                    24023661.582
 112195240.427 8  87424882.33345  21350045.781                    21350053.352
 110409153.111 8  86033134.21846  21010162.281                    21010171.301
 121279222.701 7  94503202.32144  23078646.969                    23078656.539
 123160458.310 6                  23436658.977
 118936843.273 7  92678036.74445  22632908.336                    22632916.172
 109599021.489 8  85401856.80946  20856000.305                    20856008.246
 104961903.577 8  81788513.81247  19973587.531                    19973593.598
 11  7 26 16 51  0.0000000  0 10G06G10G32G16G03G20G07G19G13G23
 115552387.070 7  90040851.88745  21988887.375                    21988897.016
 126916611.505 6  98896140.28444  24151435.797                    24151446.203
 126339782.342 7  98446600.06943  24041668.766                    24041679.980
 112267704.794 8  87481348.04246  21363835.008                    21363842.738
 110373101.970 7  86005042.42346  21003302.383                    21003311.012
 121366130.703 6  94570922.73844  23095184.828                    23095194.551
 123100496.494 6                  23425248.953
 118851242.481 7  92611334.89145  22616618.805                    22616626.832
 109537135.504 7  85353633.97146  20844223.742                    20844231.434
 104952616.870 8  81781277.40347  19971820.086                    19971826.121
 11  7 26 16 51 30.0000000  0 10G06G10G32G16G03G20G07G19G13G23
 115550436.683 7  90039332.09745  21988516.477                    21988525.809
 126874348.038 6  98863207.71643  24143393.773                    24143403.773
 126434475.639 6  98520386.91543  24059688.750                    24059700.008
 112340471.546 8  87538049.39346  21377682.289                    21377689.750
 110337613.940 7  85977389.41845  20996549.023                    20996557.879
 121453160.360 6  94638737.97144  23111746.844                    23111755.738
 123040559.661 7                  23413843.688
 118765870.498 7  92544811.34345  22600372.969                    22600381.039
 109475593.433 8  85305679.11346  20832512.461                    20832520.430
 104943847.241 8  81774443.90947  19970151.406                    19970157.586
 11  7 26 16 52  0.0000000  0 10G06G10G32G16G03G20G07G19G13G23
 115549033.919 7  90038239.03545  21988250.016                    21988259.094
 126832574.800 6  98830657.15643  24135444.672                    24135454.742
 126529168.151 6  98594173.16843  24077708.000                    24077719.633
 112413538.287 8  87594984.49145  21391586.570                    21391593.789
 110302690.857 7  85950176.63146  20989903.242                    20989912.105
 121540308.520 6  94706645.51444  23128329.969                    23128339.844
 122980647.868 7                  23402442.164
 118680730.522 7  92478468.57445  22584171.297                    22584179.563
 109414397.392 8  85257993.88446  20820867.266                    20820875.305
 104935595.876 8  81768014.25447  19968581.281                    19968587.184
 11  7 26 16 52 30.0000000  0 10G06G10G32G16G03G20G07G19G13G23
 115548179.556 7  90037573.28845  21988087.141                    21988096.531
 126791292.927 6  98798489.45343  24127588.891                    24127599.094
 126623857.591 6  98667956.98443  24095726.969                    24095738.273
 112486902.297 8  87652151.23446  21405547.063                    21405554.434
 110268334.641 7  85923405.55846  20983365.664                    20983374.145
 121627572.556 6  94774643.38544  23144936.172                    23144945.012
 122920761.088 7                  23391045.883
 118595826.070 7  92412309.33745  22568014.398                    22568022.242
 109353549.884 8  85210580.24246  20809288.492                    20809296.371
 104927864.877 8  81761990.08747  19967109.977                    19967115.902
 11  7 26 16 53  0.0000000  0 10G06G10G32G16G03G20G07G19G13G23
 115547874.298 7  90037335.41645  21988029.219                    21988038.188
 126750503.512 6  98766705.50943  24119826.938                    24119837.336
 126718541.618 6  98741736.61443  24113744.977                    24113756.492
 112560561.251 8  87709547.79446  21419563.922                    21419571.820
 110234547.545 7  85897077.95445  20976936.227                    20976945.051
 121714949.395 6  94842729.13444  23161563.508                    23161572.711
 122860899.347 7                  23379655.086
 118511160.479 7  92346336.21445  22551903.133                    22551910.891
 109293054.662 8  85163441.11446  20797776.648                    20797784.488
 104920655.382 8  81756372.30047  19965738.086                    19965744.008
 11  7 26 16 53 30.0000000  0 10G06G10G32G16G03G20G07G19G13G23
 115548118.621 7  90037525.79745  21988075.688                    21988084.770
 126710207.185 6  98735305.79043  24112158.594                    24112168.770
 126813217.299 6  98815509.68743  24131761.250                    24131773.164
 112634511.983 8  87767171.71046  21433636.438                    21433643.750
 110201331.138 7  85871195.04046  20970615.063                    20970623.875
 121802435.759 6  94910900.22444  23178211.680                    23178220.813
 122801061.830 7                  23368268.000
 118426736.740 7  92280551.54745  22535837.484                    22535845.859
 109232913.139 8  85116577.58446  20786332.055                    20786340.031
 104913968.330 8  81751161.59947  19964465.563                    19964471.742
 11  7 26 16 54  0.0000000  0 10G06G10G32G16G03G20G07G19G13G23
 115548913.097 7  90038144.87045  21988226.875                    21988236.094
 126670404.953 6  98704291.06043  24104584.156                    24104594.590
 126907882.324 6  98889274.46443  24149775.063                    24149787.941
 112708752.296 8  87825021.28545  21447763.906                    21447771.539
 110168687.497 7  85845758.44445  20964403.195                    20964411.980
 121890029.269 6  94979154.80644  23194879.961                    23194889.992
 122741248.237 6                  23356885.867
 118342558.401 7  92214958.10445  22519818.945                    22519827.402
 109173128.150 8  85069991.88346  20774955.617                    20774963.070
 104907805.164 8  81746359.11447  19963292.727                    19963298.520
 11  7 26 16 54 30.0000000  0 10G06G10G32G16G03G20G07G19G13G23
 115550257.797 7  90039192.68745  21988482.898                    21988491.867
 126631097.844 6  98673662.16843  24097105.039                    24097114.887
 127002533.489 6  98963028.44343  24167786.523                    24167798.855
 112783279.092 8  87883094.09046  21461946.141                    21461953.477
 110136618.043 7  85820769.27446  20958300.758                    20958309.516
 121977726.321 6  95047490.06844  23211568.313                    23211578.359
 122681458.655 7                  23345508.461
 118258628.460 7  92149558.20245  22503847.375                    22503855.602
 109113701.685 7  85023685.54746  20763646.969                    20763654.418
 104902166.766 8  81741965.55847  19962219.992                    19962226.293
 11  7 26 16 55  0.0000000  0 10G06G10G32G16G03G20G07G19G13G23
 115552153.192 7  90040669.60445  21988843.289                    21988852.434
 126592286.658 6  98643419.71443  24089718.852                    24089728.973
 127097168.457 6  99036769.77643  24185795.250                    24185807.469
 112858089.169 8  87941387.63046  21476182.172                    21476189.449
 110105124.543 7  85796228.88445  20952307.430                    20952316.426
 122065523.784 6  95115903.57144  23228275.797                    23228285.516
 122621692.627 7                  23334135.164
 118174950.040 7  92084354.30445  22487923.938                    22487931.590
 109054636.411 8  84977660.65846  20752407.453                    20752415.020
 104897054.125 8  81737981.66647  19961246.531                    19961253.266
 11  7 26 16 55 30.0000000  0 10G06G10G32G16G03G20G07G19G13G23
 115554600.235 7  90042576.39945  21989308.820                    21989318.422
 126553972.515 6  98613564.53043  24082427.766                    24082438.570
 127191784.752 6  99110496.58243  24203800.328                    24203812.074
 112933180.679 8  87999900.47646  21490471.555                    21490478.473
 110074209.239 7  85772139.03546  20946424.813                    20946433.398
 122153419.149 6  95184393.37844  23245001.523                    23245011.207
 122561950.431 7                  23322766.773
 118091526.626 7  92019349.10545  22472048.898                    22472056.805
 108995935.255 7  84931919.50846  20741236.594                    20741244.457
 104892469.357 8  81734409.11747  19960374.766                    19960380.238
 11  7 26 16 56  0.0000000  0 10G06G10G32G16G03G20G07G19G13G23
 115557599.473 7  90044913.46945  21989880.047                    21989889.039
 126516156.055 6  98584097.17843  24075231.117                    24075241.945
 127286380.440 6  99184207.33043  24221801.742                    24221813.648
 113008551.216 8  88058630.74845  21504813.570                    21504820.934
 110043873.729 7  85748500.98045  20940652.000                    20940660.707
 122241409.670 6  95252957.29644  23261745.938                    23261755.555
 122502232.157 7                  23311402.430
 118008362.043 7  91954545.58445  22456223.492                    22456231.270
 108937600.792 7  84886464.08546  20730136.227                    20730143.785
 104888413.938 8  81731249.03147  19959602.953                    19959608.938
 11  7 26 16 56 30.0000000  0 10G06G10G32G16G03G20G07G19G13G23
 115561150.925 7  90047680.82145  21990555.789                    21990564.563
 126478838.194 6  98555018.33043  24068130.398                    24068141.297
 127380952.232 6  99257899.45543  24239798.000                    24239810.531
 113084197.780 8  88117576.10145  21519208.922                    21519216.480
 110014119.431 7  85725315.81746  20934989.828                    20934998.809
 122329492.047 6  95321592.82344  23278507.336                    23278517.313
 122442536.822 6                  23300042.883
 117925459.182 7  91889946.00045  22440447.727                    22440455.285
 108879635.259 8  84841296.14446  20719105.766                    20719113.598
 104884888.343 8  81728501.80547  19958931.773                    19958937.938
 11  7 26 16 57  0.0000000  0 10G06G10G32G16G03G20G07G19G13G23
 115565255.083 7  90050878.84545  21991337.047                    21991345.762
 126442019.491 6  98526328.44943  24061124.273                    24061134.074
 127475497.775 6  99331571.17744  24257789.906                    24257801.992
 113160117.545 8  88176734.33246  21533655.977                    21533663.441
 109984948.450 7  85702585.20346  20929439.094                    20929447.758
 122417663.251 6  95390297.55243  23295286.680                    23295295.613
 122382864.655 6                  23288687.516
 117842821.176 7  91825552.79945  22424721.797                    22424729.543
 108822041.223 8  84796417.67746  20708145.922                    20708153.957
 104881893.776 8  81726168.36547  19958362.391                    19958368.266
 11  7 26 16 57 30.0000000  0 10G06G10G32G16G03G20G07G19G13G23
 115569912.209 7  90054507.78145  21992222.883                    21992232.254
 126405701.035 6  98498028.38943  24054212.219                    24054223.391
 127570014.437 6  99405220.31643  24275775.477                    24275788.586
 113236307.781 8  88236103.32345  21548154.516                    21548162.238
 109956362.293 7  85680310.25945  20923999.227                    20924007.801
 122505920.419 6  95459069.24644  23312081.008                    23312090.980
 122323215.323 6                  23277336.656
 117760451.157 7  91761368.41045  22409047.406                    22409055.164
 108764821.071 8  84751830.54946  20697257.047                    20697264.879
 104879431.321 8  81724249.54847  19957893.383                    19957899.516
 11  7 26 16 58  0.0000000  0 10G06G10G32G16G03G20G07G19G13G23
 115575122.866 7  90058568.02145  21993214.633                    21993223.637
 126369883.472 6  98470118.62343  24047396.734                    24047407.145
 127664499.811 6  99478845.13143  24293755.594                    24293767.926
 113312766.166 8  88295681.25445  21562704.500                    21562711.602
 109928362.605 7  85658492.33546  20918670.977                    20918679.898
 122594260.591 6  95527905.63143  23328891.695                    23328900.895
 122263588.938 6                  23265989.711
 117678352.411 7  91697395.41445  22393424.609                    22393432.234
 108707977.483 8  84707536.85046  20686440.188                    20686447.816
 104877502.234 8  81722746.35047  19957526.219                    19957532.781
 11  7 26 16 58 30.0000000  0 10G06G10G32G16G03G20G07G19G13G23
 115580887.070 7  90063059.60645  21994311.258                    21994320.203
 126334567.502 6  98442599.69443  24040676.078                    24040686.820
 127758951.415 6  99552443.59943  24311729.453                    24311742.094
 113389490.018 8  88355466.05245  21577304.258                    21577311.754
 109900950.683 7  85637132.39745  20913454.430                    20913463.633
 122682680.741 6  95596804.34044  23345717.391                    23345726.742
 122203985.217 6                  23254648.234
 117596528.681 7  91633636.70045  22377854.094                    22377861.570
 108651512.918 8  84663538.49846  20675695.320                    20675702.992
 104876107.663 8  81721659.65447  19957260.961                    19957266.883
 11  7 26 16 59  0.0000000  0 10G06G10G32G16G03G20G07G19G13G23
 115587205.339 7  90067982.94245  21995513.492                    21995522.980
 126299753.913 6  98415472.24643  24034051.688                    24034061.281
 127853366.643 6  99626013.71743  24329696.734                    24329708.941
 113466476.684 8  88415455.63545  21591954.242                    21591961.750
 109874128.787 7  85616232.22145  20908350.523                    20908359.250
 122771178.139 6  95665763.23844  23362558.414                    23362567.813
 122144404.120 7                  23243309.617
 117514983.131 7  91570094.75945  22362336.578                    22362344.348
 108595429.965 8  84619837.50246  20665023.070                    20665031.113
 104875248.968 8  81720990.52647  19957097.461                    19957103.684
 11  7 26 16 59 30.0000000  0 10G06G10G32G16G03G20G07G19G13G23
 115594077.853 7  90073338.13945  21996821.398                    21996830.363
 126265443.305 6  98388736.72943  24027523.813                    24027532.762
 127947743.057 6  99699553.59343  24347655.906                    24347668.137
 113543723.471 8  88475647.90445  21606653.719                    21606661.305
 109847897.887 7  85595792.56146  20903358.797                    20903368.051
 122859749.756 6  95734779.96144  23379412.945                    23379422.742
 122084845.246 7                  23231975.953
 117433718.735 7  91506771.90245  22346872.211                    22346879.754
 108539731.051 8  84576435.75346  20654423.930                    20654431.801
 104874926.624 8  81720739.33347  19957036.219                    19957042.227
 11  7 26 17  0  0.0000000  0 10G06G10G32G16G03G20G07G19G13G23
 115601505.109 7  90079125.60045  21998234.617                    21998244.258
 126231636.502 6  98362393.77143  24021089.656                    24021099.492
 128042078.156 6  99773061.28442  24365606.938                    24365619.734
 113621227.879 8  88536040.91845  21621402.516                    21621409.609
 109822259.869 7  85575814.89446  20898480.156                    20898488.922
 122948392.871 6  95803852.37644  23396280.883                    23396291.141
 122025308.766 7                  23220646.508
 117352739.228 7  91443671.04045  22331462.016                    22331469.781
 108484418.693 8  84533335.22846  20643898.344                    20643906.449
 104875142.389 8  81720907.45747  19957077.586                    19957083.438
 11  7 26 17  0 30.0000000  0 10G06G10G32G16G03G20G07G19G13G23
 115609486.850 7  90085345.13045  21999753.797                    21999762.836
 126198333.893 6  98336443.69143  24014752.438                    24014762.477
 128136369.389 6  99846534.74943  24383550.352                    24383562.883
 113698987.069 8  88596632.45145  21636199.344                    21636206.828
 109797216.216 7  85556300.36745  20893714.469                    20893723.336
 123037104.068 6  95872977.86744  23413162.555                    23413172.594
 121965794.662 7                  23209320.906
 117272047.276 7  91380794.23345  22316106.711                    22316114.656
 108429495.034 8  84490537.58246  20633446.406                    20633454.336
 104875896.763 8  81721495.26147  19957221.016                    19957226.723
 11  7 26 17  1  0.0000000  0 10G06G10G32G16G03G20G07G19G13G23
 115618023.511 7  90091997.07845  22001378.031                    22001387.375
 126165536.361 6  98310887.16843  24008510.797                    24008521.355
 128230614.043 6  99919971.95742  24401484.938                    24401497.070
 113776998.461 8  88657420.52345  21651044.609                    21651052.324
 109772768.213 8  85537249.97945  20889062.516                    20889071.035
 123125880.674 6  95942154.32344  23430056.141                    23430066.402
 121906302.388 7                  23198000.648
 117191646.186 7  91318144.08545  22300807.047                    22300814.980
 108374962.744 8  84448044.89446  20623069.406                    20623078.059
 104877190.669 8  81722503.49047  19957466.914                    19957473.309
 11  7 26 17  1 30.0000000  0 10G06G10G32G16G03G20G07G19G13G23
 115627115.269 7  90099081.55445  22003108.180                    22003117.289
 126133244.596 6  98285724.72343  24002366.016                    24002376.328
 128324809.889 5  99993371.12542  24419408.969                    24419422.531
 113855259.586 8  88718403.23345  21665937.188                    21665944.531
 109748917.648 7  85518665.14345  20884523.641                    20884532.379
 123214719.856 7  96011379.53344  23446961.797                    23446971.781
 121846832.130 6                  23186683.063
 117111539.416 7  91255723.25645  22285563.469                    22285570.824
 108320824.477 8  84405859.23846  20612767.359                    20612775.105
 104879025.486 8  81723933.20247  19957816.328                    19957822.406
 11  7 26 17  2  0.0000000  0 10G06G10G32G16G03G20G07G19G13G23
 115636761.960 7  90106598.44145  22004943.688                    22004952.941
 126101458.738 6  98260956.53043  23996317.695                    23996327.473
 128418954.224 6 100066730.15342  24437324.727                    24437337.367
 113933767.726 8  88779578.39845  21680877.109                    21680884.629
 109725665.583 7  85500546.65445  20880098.617                    20880107.633
 123303618.584 7  96080651.16844  23463878.289                    23463888.453
 121787383.643 6                  23175370.625
 117031730.163 7  91193534.26445  22270376.203                    22270383.801
 108267082.358 8  84363982.26846  20602540.641                    20602548.578
 104881401.714 8  81725784.78047  19958268.398                    19958274.727
 11  7 26 17  2 30.0000000  0 10G06G10G32G16G03G20G07G19G13G23
 115646964.062 7  90114548.12345  22006885.117                    22006894.320
 126070179.780 6  98236583.29543  23990364.484                    23990375.238
 128513044.611 6 100140047.09043  24455229.922                    24455242.320
 114012520.264 8  88840943.99545  21695862.867                    21695870.516
 109703013.879 7  85482895.99445  20875788.320                    20875797.164
 123392573.927 6  96149966.88444  23480806.719                    23480816.633
 121727956.960 6                  23164061.984
 116952221.783 7  91131579.71245  22255245.992                    22255253.727
 108213738.900 8  84322415.93646  20592389.586                    20592397.348
 104884320.868 8  81728059.44747  19958824.117                    19958830.246
 11  7 26 17  3  0.0000000  0 10G06G10G32G16G03G20G07G19G13G23
 115657721.624 7  90122930.63645  22008932.625                    22008941.641
 126039408.235 6  98212605.48543  23984509.742                    23984519.465
 128607078.865 6 100213320.28443  24473124.219                    24473137.516
 114091514.613 8  88902498.01145  21710895.156                    21710902.871
 109680963.642 7  85465713.99745  20871592.227                    20871600.914
 123481582.937 7  96219324.43044  23497744.813                    23497754.609
 121668551.912 7                  23152757.914
 116873017.682 7  91069862.26345  22240174.336                    22240181.934
 108160796.706 8  84281162.27446  20582315.078                    20582323.160
 104887783.653 8  81730757.70247  19959482.938                    19959489.133
 11  7 26 17  3 30.0000000  0 10G06G10G32G16G03G20G07G19G13G23
 115669034.233 7  90131745.65145  22011085.383                    22011094.406
 126009144.466 6  98189023.29443  23978750.336                    23978760.789
 128701053.883 6 100286547.33343  24491007.492                    24491020.363
 114170747.923 8  88964238.22145  21725972.516                    21725980.293
 109659515.997 7  85449001.56445  20867510.750                    20867519.844
 123570642.458 6  96288721.33543  23514691.492                    23514702.441
 121609167.931 7                  23141457.820
 116794120.205 7  91008383.74445  22225160.367                    22225168.137
 108108257.688 8  84240222.78646  20572316.977                    20572325.168
 104891790.531 8  81733879.93547  19960245.242                    19960251.813
 11  7 26 17  4  0.0000000  0 10G06G10G32G16G03G20G07G19G13G23
 115680902.552 7  90140993.68745  22013343.766                    22013353.027
 125979389.184 6  98165837.36043  23973088.242                    23973098.914
 128794967.952 6 100359726.87643  24508878.641                    24508891.309
 114250217.986 8  89026162.93145  21741095.477                    21741102.949
 109638672.695 7  85432760.02646  20863544.617                    20863553.320
 123659750.243 7  96358155.82144  23531648.469                    23531659.023
 121549805.857 7                  23130161.195
 116715533.450 7  90947147.34245  22210205.945                    22210213.480
 108056125.134 8  84199600.01946  20562396.750                    20562404.875
 104896343.050 8  81737427.33447  19961111.750                    19961118.105
 11  7 26 17  4 30.0000000  0 10G06G10G32G16G03G20G07G19G13G23
 115693326.467 7  90150674.65545  22015708.016                    22015717.359
 125950142.912 6  98143048.02543  23967523.852                    23967533.258
 128888818.415 6 100432856.84543  24526737.781                    24526751.258
 114329922.175 8  89088270.07745  21756262.406                    21756270.129
 109618435.037 7  85416990.43245  20859693.438                    20859702.637
 123748903.333 6  96427625.62843  23548614.016                    23548624.629
 121490465.312 7                  23118868.844
 116637260.395 7  90886155.38045  22195311.070                    22195318.652
 108004401.253 8  84159295.69946  20552553.914                    20552561.930
 104901441.997 8  81741400.52647  19962081.945                    19962088.340
 11  7 26 17  5  0.0000000  0 10G06G10G32G16G03G20G07G19G13G23
 115706305.809 7  90160788.40845  22018177.773                    22018187.172
 125921405.785 6  98120655.43643  23962054.773                    23962064.004
 128982602.329 6 100505934.94043  24544584.305                    24544597.785
 114409857.587 8  89150557.37445  21771473.547                    21771481.324
 109598803.797 7  85401693.36545  20855957.906                    20855967.047
 123838098.488 6  96497128.21044  23565588.117                    23565597.684
 121431145.881 7                  23107581.117
 116559304.127 7  90825410.27645  22180476.273                    22180484.156
 107953088.250 8  84119311.53546  20542789.570                    20542797.574
 104907087.644 8  81745799.70947  19963156.516                    19963162.582
 11  7 26 17  5 30.0000000  0 10G06G10G32G16G03G20G07G19G13G23
 115719840.445 7  90171334.86245  22020752.758                    22020762.582
 125893178.361 6  98098660.04343  23956683.242                    23956692.859
 129076317.720 6 100578959.64443  24562418.406                    24562431.426
 114490021.796 8  89213022.96545  21786728.242                    21786736.457
 109579780.388 7  85386869.92746  20852338.117                    20852346.543
 123927332.708 7  96566661.23744  23582568.547                    23582578.039
 121371847.839 7                  23096297.133
 116481667.906 7  90764914.55045  22165702.680                    22165710.254
 107902188.483 7  84079649.38046  20533103.188                    20533111.367
 104913281.106 8  81750625.76847  19964334.875                    19964341.227
 11  7 26 17  6  0.0000000  0 10G06G10G32G16G03G20G07G19G13G23
 115733930.634 7  90182314.21845  22023434.547                    22023443.688
 125865461.387 6  98077062.39343  23951409.031                    23951419.074
 129169962.058 6 100651929.02143  24580238.273                    24580251.223
 114570412.662 8  89275665.17345  21802026.227                    21802034.113
 109561366.358 7  85372521.34246  20848834.031                    20848842.484
 124016603.612 6  96636222.88244  23599555.586                    23599566.332
 121312570.806 7                  23085017.469
 116404355.189 7  90704670.90945  22150990.914                    22150998.121
 107851704.702 7  84040311.36246  20523496.828                    20523504.891
 104920023.555 8  81755879.60947  19965618.117                    19965623.871
 11  7 26 17  6 30.0000000  0 10G06G10G32G16G03G20G07G19G13G23
 115748575.803 7  90193726.01945  22026221.484                    22026230.664
 125838254.757 6  98055862.39343  23946231.211                    23946241.559
 129263532.873 6 100724841.04443  24598044.727                    24598057.492
 114651026.976 8  89338481.50045  21817366.656                    21817374.531
 109543562.637 7  85358648.31245  20845445.695                    20845454.781
 124105907.940 6  96705810.49244  23616549.695                    23616560.582
 121253315.026 7                  23073741.000
 116327368.562 7  90644681.36845  22136340.359                    22136347.945
 107801638.736 7  84001298.91746  20513969.633                    20513977.543
 104927315.194 8  81761561.38647  19967005.445                    19967011.438
 11  7 26 17  7  0.0000000  0 10G06G10G32G16G03G20G07G19G13G23
 115763776.419 7  90205570.64645  22029114.188                    22029123.207
 125811559.316 6  98035060.75343  23941151.445                    23941161.633
 129357027.997 6 100797694.08843  24615836.070                    24615849.848
 114731862.528 8  89401470.21545  21832749.273                    21832757.184
 109526371.039 7  85345252.25946  20842174.570                    20842183.172
 124195243.287 6  96775422.31343  23633549.883                    23633560.258
 121194080.626 7                  23062469.102
 116250711.907 7  90584948.94445  22121753.242                    22121760.938
 107751993.951 7  83962614.68646  20504522.570                    20504530.418
 104935157.526 8  81767672.27847  19968498.180                    19968503.867
 11  7 26 17  7 30.0000000  0 10G06G10G32G16G03G20G07G19G13G23
 115779531.988 7  90217847.70445  22032112.102                    22032121.598
 125785375.067 6  98014657.42143  23936169.148                    23936178.559
 129450444.543 6 100870485.85942  24633612.797                    24633627.109
 114812916.649 8  89464629.25345  21848173.602                    21848181.207
 109509791.785 7  85332333.35946  20839019.641                    20839028.313
 124284606.464 7  96845055.84443  23650555.102                    23650565.973
 121134867.119 7                  23051200.992
 116174387.971 7  90525475.78745  22107228.953                    22107236.656
 107702771.608 8  83924259.61646  20495155.898                    20495163.887
 104943550.548 8  81774212.28247  19970095.070                    19970101.117
 11  7 26 17  8  0.0000000  0 10G06G10G32G16G03G20G07G19G13G23
 115795842.329 7  90230557.04945  22035215.930                    22035225.398
 125759702.241 6  97994652.63343  23931283.570                    23931292.836
 129543780.107 5                  24651374.461
 114894186.640 8  89527956.49945  21863638.828                    21863646.453
 109493826.374 7  85319892.78146  20835981.273                    20835990.066
 124373994.577 6  96914708.78944  23667565.922                    23667575.793
 121075674.720 7                  23039937.414
 116098399.936 7  90466264.37145  22092768.961                    22092776.695
 107653974.447 7  83886235.86146  20485870.352                    20485877.852
 104952494.890 8  81781181.88146  19971797.133                    19971803.371
 11  7 26 17  8 30.0000000  0 10G06G10G32G16G03G20G07G19G13G23
 115812707.219 7  90243698.51345  22038425.477                    22038434.496
 125734541.284 6  97975046.68643  23926495.492                    23926505.523
 129637032.609 6                  24669120.344
 114975669.913 8  89591449.93845  21879144.508                    21879152.156
 109478475.616 7  85307931.15045  20833059.969                    20833069.148
 124463404.700 6  96984378.84943  23684580.156                    23684590.543
 121016503.293 7                  23028676.820
 116022751.159 7  90407317.30645  22078373.406                    22078381.008
 107605605.078 8  83848545.44646  20476665.641                    20476673.586
 104961991.475 8  81788581.80446  19973604.531                    19973610.563
 11  7 26 17  9  0.0000000  0 10G06G10G32G16G03G20G07G19G13G23
 115830126.534 7  90257271.99045  22041740.102                    22041749.105
 125709892.561 6  97955839.88243  23921805.422                    23921815.238
 129730199.332 6                  24686850.070
 115057363.848 8  89655107.51845  21894690.594                    21894698.164
 109463740.968 7  85296449.61145  20830256.180                    20830264.813
 124552833.441 6  97054063.44143  23701597.891                    23701607.828
 120957352.552 7                  23017420.891
 115947444.364 7  90348636.72445  22064043.031                    22064050.703
 107557665.501 7  83811189.92746  20467543.188                    20467551.031
 104972040.856 8  81796412.47947  19975516.820                    19975522.961
 11  7 26 17  9 30.0000000  0 10G06G10G32G16G03G20G07G19G13G23
 115848100.073 7  90271277.33245  22045160.547                    22045169.355
 125685756.145 6  97937032.28643  23917212.109                    23917221.891
 129823278.094 6                  24704562.453
 115139266.134 7  89718927.45645  21910275.773                    21910283.863
 109449622.696 8  85285448.35845  20827569.305                    20827578.461
 124642279.085 7  97123761.20043  23718619.289                    23718629.355
 120898222.779 7                  23006169.086
 115872483.124 7  90290225.40545  22049778.719                    22049785.883
 107510158.355 8  83774171.36746  20458502.805                    20458510.578
 104982643.760 8  81804674.46247  19977534.188                    19977540.402
 11  7 26 17 10  0.0000000  0 10G06G10G32G16G03G20G07G19G13G23
 115866627.628 7  90285714.37545  22048686.148                    22048695.348
 125662132.451 7  97918624.20843  23912716.563                    23912726.918
 129916266.566 6                  24722256.844
 115221374.387 8  89782907.88345  21925900.797                    21925908.168
 109436122.755 7  85274928.92545  20825000.563                    20825009.535
 124731738.504 7  97193469.68744  23735642.914                    23735653.527
 120839114.185 7                  22994921.055
 115797870.569 7  90232085.79045  22035580.289                    22035587.855
 107463085.957 8  83737491.58446  20449545.031                    20449552.773
 104993800.978 8  81813368.37646  19979657.688                    19979663.316
 11  7 26 17 10 30.0000000  0 10G06G10G32G16G03G20G07G19G13G23
 115885708.829 7  90300582.83745  22052317.047                    22052326.281
 125639021.825 6  97900615.95843  23908318.992                    23908329.203
 130009162.304 6                  24739934.898
 115303685.959 7  89847046.73845  21941563.789                    21941571.691
 109423241.824 8  85264891.83946  20822549.406                    20822558.246
 124821208.645 7  97263186.53044  23752668.453                    23752678.602
 120780026.595 7                  22983676.883
 115723609.957 7  90174220.41445  22021448.844                    22021456.309
 107416450.686 8  83701152.40946  20440670.836                    20440678.336
 105005513.072 8  81822494.66546  19981886.383                    19981892.285
 11  7 26 17 11  0.0000000  0 10G06G10G32G16G03G20G07G19G13G23
 115905343.453 7  90315882.53645  22056053.391                    22056062.676
 125616424.693 6  97883007.76343  23904018.836                    23904028.926
 130101963.156 6                  24757594.344
 115386198.541 7  89911342.22745  21957265.492                    21957273.332
 109410980.901 8  85255337.87546  20820216.484                    20820225.355
 124910687.137 6  97332909.88543  23769695.813                    23769705.637
 120720960.525 7                  22972437.172
 115649704.466 7  90116631.75645  22007384.266                    22007392.793
 107370255.538 7  83665156.17946  20431879.781                    20431887.617
 105017781.019 8  81832054.08346  19984220.820                    19984227.168
 11  7 26 17 11 30.0000000  0 10G06G10G32G16G03G20G07G19G13G23
 115925531.639 7  90331613.58145  22059895.086                    22059904.594
 125594340.777 6  97865799.51043  23899816.234                    23899825.945
 130194666.740 6                  24775236.117
 115468909.550 7  89975792.33645  21973004.930                    21973012.820
 109399340.938 8  85246267.78246  20818001.516                    20818010.176
 125000170.953 6  97402637.36143  23786723.781                    23786734.488
 120661915.347 7                  22961201.117
 115576157.211 7  90059322.24345  21993389.125                    21993396.891
 107324501.886 8  83629503.99046  20423173.359                    20423181.180
 105030605.006 8  81842046.77547  19986660.969                    19986667.125
 11  7 26 17 12  0.0000000  0  9G06G10G16G03G20G07G19G13G23
 115946272.578 7  90347775.34845  22063841.914                    22063851.285
 125572770.499 6  97848991.50343  23895711.531                    23895721.586
 115551816.724 7  90040395.30245  21988781.891                    21988789.230
 109388323.028 8  85237682.39446  20815904.797                    20815913.387
 125089657.469 6  97472366.94844  23803752.992                    23803763.645
 120602891.882 7                  22949969.266
 115502971.352 7  90002294.33945  21979462.008                    21979470.086
 107279192.459 7  83594197.93846  20414551.359                    20414559.211
 105043985.646 8  81852473.22146  19989207.430                    19989213.559
 11  7 26 17 12 30.0000000  0  9G06G10G16G03G20G07G19G13G23
 115967566.196 7  90364367.77845  22067894.102                    22067903.301
 125551713.938 6  97832583.78143  23891704.680                    23891714.527
 115634917.374 7  90105149.02545  22004595.438                    22004603.004
 109377927.751 8  85229582.18446  20813926.250                    20813935.164
 125179143.554 6  97542096.17144  23820781.539                    23820792.297
 120543889.656 7                  22938741.203
 115430149.908 7  89945550.38745  21965604.883                    21965612.707
 107234329.765 8  83559239.99946  20406014.289                    20406021.902
 105057923.437 8  81863333.81446  19991859.547                    19991865.699
 11  7 26 17 13  0.0000000  0  9G06G10G16G03G20G07G19G13G23
 115989411.244 7  90381389.88545  22072051.383                    22072060.148
 125531170.917 6  97816576.23743  23887794.875                    23887805.488
 115718208.558 7  90170051.22145  22020444.984                    22020452.730
 109368155.420 7  85221967.37945  20812066.523                    20812075.469
 125268626.335 6  97611822.86543  23837809.625                    23837820.313
 120484908.357 7                  22927518.078
 115357695.544 7  89889092.46445  21951817.570                    21951824.789
 107189915.389 8  83524631.40246  20397562.453                    20397570.262
 105072418.442 8  81874628.59446  19994618.266                    19994623.688
 11  7 26 17 13 30.0000000  0  9G06G10G16G03G20G07G19G13G23
 116011807.866 7  90398841.78845  22076312.602                    22076322.207
 125511141.630 6  97800969.00243  23883983.648                    23883994.496
 115801688.277 7  90235100.33145  22036330.938                    22036338.633
 109359007.161 7  85214838.86346  20810325.938                    20810335.000
 125358103.225 6  97681544.92543  23854836.734                    23854848.016
 120425948.300 7                  22916298.180
 115285611.805 7  89832923.34545  21938100.250                    21938107.773
 107145951.980 8  83490374.20246  20389196.453                    20389204.301
 105087471.524 8  81886358.24147  19997482.625                    19997488.691
 11  7 26 17 14  0.0000000  0  9G06G10G16G03G20G07G19G13G23
 116034755.494 7  90416723.05245  22080679.703                    22080689.125
 125491626.221 6  97785762.17743  23880270.188                    23880280.629
 115885353.395 7  90300293.89945  22052251.898                    22052259.480
 109350484.030 7  85208197.46445  20808703.938                    20808713.238
 125447570.998 6  97751259.86043  23871862.141                    23871872.793
 120367009.325 7                  22905082.109
 115213901.259 7  89777045.02645  21924454.594                    21924461.922
 107102441.581 8  83456470.00646  20380916.703                    20380924.512
 105103082.742 8  81898522.79646  20000453.500                    20000459.492
 11  7 26 17 14 30.0000000  0  9G06G10G16G03G20G07G19G13G23
 116058253.512 7  90435033.18945  22085151.188                    22085160.473
 125472624.628 6  97770955.75443  23876654.516                    23876664.586
 115969201.807 7  90365630.29845  22068207.641                    22068215.219
 109342586.572 7  85202043.59746  20807201.414                    20807210.066
 125537027.261 6  97820965.83643  23888885.758                    23888896.219
 120308091.805 7                  22893870.633
 115142567.183 7  89721460.05145  21910879.594                    21910887.027
 107059386.694 8  83422920.74046  20372723.531                    20372731.602
 105119252.557 8  81911122.62346  20003530.406                    20003536.605
 11  7 26 17 15  0.0000000  0  9G06G10G16G03G20G07G19G13G23
 116082301.533 7  90453771.90145  22089727.383                    22089736.855
 125454136.903 6  97756549.71543  23873136.219                    23873146.844
 116053231.167 7  90431107.67945  22084197.828                    22084205.492
 109335315.763 8  85196378.02946  20805817.563                    20805826.566
 125626469.386 6  97890660.80343  23905905.914                    23905916.113
 120249195.770 7                  22882662.891
 115071612.753 7  89666170.91045  21897378.023                    21897384.961
 107016789.722 8  83389728.30046  20364617.609                    20364625.543
 105135981.637 8  81924158.24846  20006713.750                    20006720.129
 11  7 26 17 15 30.0000000  0  9G06G10G16G03G20G07G19G13G23
 116106899.009 7  90472938.74745  22094408.438                    22094417.676
 125436162.738 6  97742543.87543  23869716.000                    23869726.109
 116137438.931 7  90496724.08645  22100221.922                    22100229.723
 109328671.601 8  85191200.76646  20804553.195                    20804562.621
 125715894.393 6  97960342.42443  23922922.461                    23922933.547
 120190320.906 7                  22871459.250
 115001040.852 7  89611179.84345  21883948.453                    21883955.727
 106974652.408 8  83356894.03146  20356599.242                    20356607.258
 105153270.035 8  81937629.70147  20010003.703                    20010009.820
 11  7 26 17 16  0.0000000  0  9G06G10G16G03G20G07G19G13G23
 116132045.522 7  90492533.42845  22099193.211                    22099202.590
 125418702.023 6  97728938.13043  23866393.477                    23866403.273
 116221822.489 7  90562477.46545  22116280.109                    22116287.422
 109322655.100 8  85186512.58546  20803408.508                    20803417.461
 125805299.165 6  98030008.28443  23939936.289                    23939947.059
 120131467.550 7                  22860259.945
 114930854.655 7  89556489.32645  21870592.008                    21870599.484
 106932977.240 8  83324419.87846  20348669.109                    20348676.184
 105171117.674 8  81951536.92846  20013399.984                    20013406.078
 11  7 26 17 16 30.0000000  0  9G06G10G16G03G20G07G19G13G23
 116157740.289 7  90512555.32745  22104082.891                    22104092.188
 125401755.269 6  97715732.84943  23863168.672                    23863178.648
 116306379.377 7  90628365.91745  22132370.625                    22132378.230
 109317267.014 8  85182314.08845  20802383.156                    20802391.926
 125894681.554 6  98099656.71343  23956944.836                    23956955.609
 120072636.086 7                  22849064.578
 114861057.423 7  89502101.89645  21857310.195                    21857317.277
 106891766.442 8  83292307.57046  20340826.563                    20340834.598
 105189525.867 8  81965880.95346  20016903.180                    20016909.352
 11  7 26 17 17  0.0000000  0  9G06G10G16G03G20G07G19G13G23
 116183982.355 7  90533003.69745  22109076.977                    22109086.309
 125385322.115 6  97702927.79343  23860041.258                    23860051.406
 116391107.184 7  90694387.56145  22148493.602                    22148501.422
 109312507.528 7  85178605.39545  20801477.727                    20801486.059
 125984039.014 6  98169285.72243  23973949.305                    23973960.000
 120013825.944 7                  22837873.367
 114791651.651 7  89448019.50545  21844102.422                    21844109.484
 106851021.918 8  83260558.57946  20333073.125                    20333080.840
 105208494.279 8  81980661.51147  20020512.539                    20020518.758
 11  7 26 17 17 30.0000000  0 10G06G10G08G16G03G20G07G19G13G23
 116210771.932 7  90553878.68845  22114174.859                    22114184.063
 125369402.778 6  97690523.12043  23857012.023                    23857022.621
 131228219.86915 102255688.92852  24971870.852                    24971883.480
 116476003.651 7  90760540.60745  22164648.875                    22164656.477
 109308377.284 7  85175387.02946  20800691.391                    20800700.633
 126073368.331 6  98238892.80343  23990947.688                    23990958.789
 119955037.955 7                  22826686.250
 114722640.860 7  89394244.89045  21830969.977                    21830977.555
 106810746.352 8  83229175.01446  20325409.008                    20325416.609
 105228023.713 8  81995879.22247  20024228.898                    20024235.258
 11  7 26 17 18  0.0000000  0 10G06G10G08G16G03G20G07G19G13G23
 116238108.171 7  90575179.66345  22119376.500                    22119385.813
 125353996.904 6  97678518.54043  23854080.211                    23854090.453
 131162449.495 5 102204439.34642  24959355.367                    24959367.441
 116561066.232 7  90826823.11445  22180835.578                    22180843.637
 109304877.115 8  85172659.62746  20800025.164                    20800034.320
 126162666.581 6  98308475.65243  24007941.148                    24007951.984
 119896271.774 7                  22815503.891
 114654027.714 7  89340780.13445  21817913.180                    21817921.188
 106770941.487 8  83198158.21946  20317834.375                    20317842.535
 105248113.942 8  82011533.92446  20028052.047                    20028057.980
 11  7 26 17 18 30.0000000  0 10G06G10G08G16G03G20G07G19G13G23
 116265989.945 7  90596905.72045  22124682.172                    22124691.410
 125339104.336 6  97666913.94043  23851246.320                    23851256.730
 131096635.603 5 102153155.89142  24946831.266                    24946842.867
 116646292.565 7  90893233.20745  22197053.688                    22197061.801
 109302007.618 8  85170423.65746  20799479.234                    20799488.055
 126251931.356 6  98378032.45143  24024928.078                    24024938.938
 119837527.624 7                  22804325.109
 114585815.035 7  89287627.42745  21804933.547                    21804940.840
 106731609.652 8  83167510.01746  20310350.148                    20310357.906
 105268764.916 8  82027625.56546  20031981.672                    20031987.633
 11  7 26 17 19  0.0000000  0 10G06G10G08G16G03G20G07G19G13G23
 116294416.812 7  90619056.52445  22130091.633                    22130101.074
 125324724.456 6  97655708.84043  23848509.633                    23848520.316
 131030778.243 5 102101838.51542  24934299.750                    24934309.938
 116731680.294 7  90959769.07045  22213302.719                    22213310.715
 109299768.863 7  85168679.17346  20799053.188                    20799061.949
 126341159.915 6  98447561.02543  24041907.523                    24041918.777
 119778805.690 7                  22793150.672
 114518006.150 7  89234789.36445  21792029.227                    21792037.242
 106692752.711 8  83137231.87446  20302955.641                    20302963.680
 105289977.156 8  82044154.55346  20036018.297                    20036024.414
 11  7 26 17 19 30.0000000  0 10G06G10G08G16G03G20G07G19G13G23
 116323388.093 7  90641631.55145  22135604.633                    22135613.586
 125310857.604 6  97644903.49243  23845870.617                    23845881.406
 130964877.299 5 102050487.17842  24921758.375                    24921769.813
 116817226.939 7  91026428.76045  22229581.711                    22229589.645
 109298161.480 8  85167426.66746  20798747.008                    20798756.215
 126430349.786 6  98517059.43643  24058879.938                    24058891.727
 119720106.375 7                  22781980.320
 114450604.103 7  89182268.31945  21779203.266                    21779210.969
 106654373.458 8  83107325.97746  20295652.555                    20295660.195
 105311751.181 8  82061121.30246  20040161.969                    20040167.887
 11  7 26 17 20  0.0000000  0 10G06G10G08G16G03G20G07G19G13G23
 116352903.155 7  90664630.30445  22141221.664                    22141230.609
 125297503.366 6  97634497.60243  23843329.453                    23843340.258
 130898932.295 6 101999101.50643  24909209.633                    24909220.777
 116902930.138 7  91093210.43045  22245890.344                    22245898.219
 109297185.727 7  85166666.33346  20798561.906                    20798570.680
 126519497.958 6  98586525.33143  24075844.633                    24075856.066
 119661429.408 7                  22770814.477
 114383611.612 7  89130066.41145  21766454.789                    21766462.594
 106616473.660 8  83077793.67146  20288440.414                    20288448.285
 105334086.688 8  82078525.56746  20044411.953                    20044418.617
 11  7 26 17 20 30.0000000  0 10G06G10G08G16G03G20G07G19G13G23
 116382961.363 7  90688052.28345  22146940.797                    22146949.938
 125284661.831 6  97624491.20743  23840886.445                    23840896.684
 130832942.665 6 101947681.05343  24896651.922                    24896663.176
 116988787.405 7  91160112.17145  22262228.664                    22262236.152
 109296842.117 7  85166398.59746  20798496.031                    20798505.051
 126608601.772 6  98655956.69343  24092800.352                    24092812.027
 119602774.739 7                  22759652.953
 114317031.411 7  89078185.76145  21753784.875                    21753792.434
 106579055.598 8  83048636.74346  20281319.961                    20281327.813
 105356983.639 8  82096367.31947  20048769.438                    20048775.805
 11  7 26 17 21  0.0000000  0 10G06G10G08G16G03G20G07G19G13G23
 116413561.554 7  90711896.59545  22152764.438                    22152773.453
 125272332.300 6  97614883.78243  23838539.867                    23838550.414
 130766908.038 6 101896225.56643  24884085.867                    24884097.063
 117074796.662 7  91227132.34145  22278595.672                    22278603.211
 109297131.092 7  85166623.77245  20798551.023                    20798560.465
 126697658.735 6  98725351.51943  24109747.492                    24109759.320
 119544142.923 7                  22748495.375
 114250866.808 7  89026628.95745  21741194.133                    21741201.781
 106542120.998 8  83019856.52646  20274291.320                    20274298.859
 105380442.772 8  82114647.14346  20053233.430                    20053239.602
 11  7 26 17 21 30.0000000  0 10G06G10G08G16G03G20G07G19G13G23
 116444703.198 7  90736162.80945  22158690.242                    22158699.629
 125260514.437 6  97605675.04543  23836290.227                    23836301.641
 130700828.364 6 101844734.97943  24871512.352                    24871522.613
 117160955.329 7  91294268.92445  22294991.414                    22294998.820
 109298053.014 8  85167342.16046  20798726.594                    20798735.723
 126786666.373 6  98794707.89243  24126685.586                    24126697.203
 119485534.603 7                  22737342.375
 114185120.847 7  88975398.36445  21728683.859                    21728690.887
 106505672.459 8  82991455.05946  20267355.438                    20267363.367
 105404464.045 8  82133364.99346  20057804.539                    20057810.527
 11  7 26 17 22  0.0000000  0 10G06G10G08G16G03G20G07G19G13G23
 116476385.333 7  90760850.18445  22164719.500                    22164728.441
 125249207.874 6  97596864.71543  23834139.250                    23834150.121
 130634702.982 6 101793208.74143  24858928.828                    24858939.469
 117247260.911 7  91361520.01145  22311414.117                    22311422.164
 109299608.128 7  85168553.93246  20799022.734                    20799031.613
 126875621.519 5  98864023.40543  24143613.297                    24143625.367
 119426949.172 7                  22726194.242
 114119796.123 7  88924496.01045  21716252.078                    21716259.547
 106469711.781 8  82963433.74346  20260512.820                    20260520.027
 105429047.086 8  82152520.59546  20062482.727                    20062488.641
 11  7 26 17 22 30.0000000  0 10G06G10G08G16G03G20G07G19G13G23
 116508606.856 7  90785957.85445  22170850.719                    22170859.777
 125238412.746 6  97588452.91243  23832085.703                    23832095.605
 130568532.323 6 101741647.27343  24846336.906                    24846347.801
 117333711.458 7  91428884.05645  22327865.273                    22327872.668
 109301796.668 8  85170259.29446  20799439.250                    20799447.871
 126964521.887 6  98933296.17743  24160530.313                    24160542.758
 119368387.013 7                  22715050.188
 114054895.756 7  88873924.31345  21703902.398                    21703909.398
 106434241.212 8  82935794.34346  20253762.602                    20253770.660
 105454192.215 8  82172114.18446  20067267.539                    20067273.738
 11  7 26 17 23  0.0000000  0 10G06G10G08G16G03G20G07G19G13G23
 116541367.290 7  90811485.46045  22177084.930                    22177094.023
 125228128.293 6  97580439.04244  23830128.406                    23830138.672
 130502315.030 6 101690049.41743  24833735.578                    24833746.941
 117420304.346 7  91496359.00145  22344343.719                    22344351.676
 109304618.713 7  85172458.28945  20799976.211                    20799985.305
 127053364.712 6  99002524.13743  24177437.398                    24177448.676
 119309848.341 7                  22703910.648
 113990422.197 7  88823685.19445  21691633.320                    21691640.172
 106399262.518 8  82908538.20946  20247106.586                    20247114.059
 105479899.338 8  82192145.68146  20072159.344                    20072165.688
 11  7 26 17 23 30.0000000  0 10G06G10G08G16G03G20G07G19G13G23
 116574665.646 7  90837432.21345  22183421.547                    22183430.219
 125218354.781 6  97572823.30443  23828269.133                    23828279.199
 130436051.205 6 101638415.32443  24821126.531                    24821137.188
 117507037.324 7  91563943.10345  22360848.352                    22360856.371
 109308075.079 8  85175151.56746  20800633.750                    20800642.910
 127142146.943 6  99071704.90843  24194332.094                    24194343.617
 119251333.547 7                  22692775.555
 113926378.661 7  88773781.15345  21679446.289                    21679453.922
 106364778.052 8  82881667.19146  20240544.063                    20240551.980
 105506168.510 8  82212615.13646  20077158.242                    20077164.730
 11  7 26 17 24  0.0000000  0 10G06G10G08G16G03G20G07G19G13G23
 116608500.764 7  90863797.23745  22189860.109                    22189869.078
 125209091.288 6  97565604.98143  23826506.047                    23826516.379
 130369740.619 6 101586744.75543  24808507.156                    24808518.824
 117593907.851 7  91631634.39845  22377379.617                    22377387.270
 109312165.223 8  85178338.70345  20801411.969                    20801421.305
 127230866.503 6  99140836.85943  24211214.023                    24211226.102
 119192842.776 7                  22681645.430
 113862767.896 7  88724214.34146  21667342.063                    21667349.016
 106330789.434 8  82855182.55146  20234076.523                    20234084.043
 105532999.645 8  82233522.48646  20082264.180                    20082270.246
 11  7 26 17 24 30.0000000  0 10G06G10G08G16G03G20G07G19G13G23
 116642871.780 7  90890579.82845  22196400.570                    22196409.664
 125200337.397 6  97558783.74443  23824839.750                    23824850.230
 130303382.540 6 101535037.24643  24795879.758                    24795891.203
 117680913.589 7  91699431.04045  22393936.344                    22393943.730
 109316889.260 8  85182019.77946  20802311.055                    20802320.008
 127319520.550 6  99209917.73643  24228085.789                    24228096.930
 119134375.956 7                  22670519.250
 113799592.802 7  88674987.00645  21655319.914                    21655327.379
 106297298.824 8  82829085.97946  20227703.320                    20227711.180
 105560392.425 8  82254867.48746  20087476.813                    20087483.207
 11  7 26 17 25  0.0000000  0 10G06G10G08G16G03G20G07G19G13G23
 116677777.762 7  90917779.28645  22203042.977                    22203051.715
 125192092.557 6  97552359.16843  23823271.016                    23823281.668
 130236976.953 6 101483292.67243  24783243.422                    24783254.824
 117768052.444 7  91767331.40245  22410518.563                    22410526.016
 109322247.425 8  85186194.97946  20803330.594                    20803339.609
 127408106.462 6  99278945.53543  24244942.820                    24244954.289
 119075933.457 7                  22659398.031
 113736855.996 7  88626101.20845  21643381.469                    21643388.531
 106264308.084 8  82803378.90346  20221425.523                    20221433.180
 105588346.746 8  82276650.04746  20092796.383                    20092803.070
 11  7 26 17 25 30.0000000  0 10G06G10G08G16G03G20G07G19G13G23
 116713217.915 7  90945394.97145  22209787.195                    22209796.152
 125184356.419 7  97546330.99443  23821798.859                    23821809.328
 130170523.735 6 101431511.00043  24770597.578                    24770608.598
 117855322.036 7  91835333.64745  22427125.258                    22427133.133
 109328239.982 7  85190864.50246  20804471.039                    20804480.410
 127496621.548 6  99347918.14043  24261787.078                    24261799.098
 119017515.473 7                  22648281.680
 113674560.274 7  88577559.10545  21631526.867                    21631534.223
 106231819.384 8  82778063.04146  20215243.172                    20215250.461
 105616862.721 8  82298870.25346  20098223.008                    20098229.328
 11  7 26 17 26  0.0000000  0 10G06G10G08G16G03G20G07G19G13G23
 116749190.869 7  90973425.83345  22216632.664                    22216641.719
 125177128.354 6  97540698.72143  23820422.938                    23820434.016
 130104022.517 6 101379691.90643  24757942.258                    24757954.055
 117942720.150 7  91903436.03945  22443756.086                    22443764.242
 109334867.050 8  85196028.45146  20805732.461                    20805741.340
 127585063.388 6  99416833.66543  24278617.336                    24278629.516
 118959122.229 7                  22637169.492
 113612708.674 7  88529363.07145  21619756.578                    21619763.594
 106199834.491 8  82753139.74146  20209156.711                    20209164.813
 105645940.160 8  82321527.97746  20103756.219                    20103762.422
 11  7 26 17 26 30.0000000  0 10G06G10G08G16G03G20G07G19G13G23
 116785695.949 7  91001871.33845  22223579.211                    22223588.082
 125170407.946 6  97535462.01143  23819144.758                    23819155.020
 130037472.770 6 101327835.01943  24745279.203                    24745289.973
 118030244.334 7  91971636.67045  22460411.805                    22460419.395
 109342128.563 8  85201686.77046  20807113.891                    20807122.715
 127673429.314 6  99485690.07743  24295432.555                    24295444.922
 118900753.900 7                  22626062.688
 113551304.476 7  88481515.67045  21608071.914                    21608079.352
 106168355.578 7  82728610.71346  20203166.328                    20203174.109
 105675579.140 8  82344623.25346  20109396.227                    20109402.570
 11  7 26 17 27  0.0000000  0 10G06G10G08G16G03G20G07G19G13G23
 116822732.173 7  91030730.73345  22230627.297                    22230636.008
 125164194.836 6  97530620.62743  23817962.438                    23817972.938
 129970874.346 6 101275940.19243  24732605.172                    24732616.582
 118117892.672 7  92039934.04145  22477091.063                    22477098.629
 109350024.530 8  85207839.46546  20808616.477                    20808625.375
 127761716.848 6  99554485.38143  24312232.688                    24312245.543
 118842411.250 7                  22614960.531
 113490349.376 7  88434018.21346  21596472.234                    21596479.906
 106137384.671 7  82704477.54246  20197272.680                    20197280.738
 105705779.253 8  82368155.78246  20115143.422                    20115149.719
 11  7 26 17 27 30.0000000  0 10G06G10G08G16G03G20G07G19G13G23
 116860298.244 7  91060002.98145  22237775.617                    22237784.563
 125158488.575 6  97526174.15344  23816876.242                    23816886.184
 129904226.934 6 101224007.20543  24719922.969                    24719933.516
 118205662.706 7  92108326.23545  22493792.531                    22493800.598
 109358555.146 8  85214486.69245  20810239.539                    20810248.930
 127849923.498 6  99623217.66243  24329018.133                    24329030.184
 118784094.506 7                  22603862.852
 113429846.764 7  88386873.34045  21584959.547                    21584966.324
 106106923.697 7  82680741.71246  20191476.016                    20191483.906
 105736540.359 8  82392125.44446  20120996.734                    20121002.977
 11  7 26 17 28  0.0000000  0 10G06G10G08G16G03G20G07G19G13G23
 116898393.041 7  91089687.23545  22245024.734                    22245033.785
 125153288.272 6  97522121.96144  23815887.039                    23815896.953
 129837530.276 6 101172035.81343  24707231.039                    24707242.113
 118293552.128 7  92176811.46345  22510517.406                    22510525.738
 109367719.843 8  85221628.01045  20811983.641                    20811992.680
 127938046.375 5  99691884.67142  24345787.844                    24345799.422
 118725803.390 7                  22592770.352
 113369799.021 7  88340082.92045  21573532.633                    21573539.801
 106076974.183 7  82657404.42546  20185776.805                    20185785.141
 105767862.007 8  82416531.90646  20126957.203                    20126963.676
 11  7 26 17 28 30.0000000  0 10G06G10G08G16G03G20G07G19G13G23
 116937015.494 7  91119782.64345  22252373.867                    22252383.266
 125148593.627 6  97518463.76244  23814994.336                    23815004.258
 129770784.221 6 101120025.94243  24694530.008                    24694540.168
 118381558.527 7  92245387.83645  22527264.359                    22527272.500
 109377518.742 8  85229263.51945  20813848.742                    20813857.598
 128026082.872 5  99760484.34042  24362540.883                    24362552.965
 118667538.307 7                  22581682.852
 113310209.288 7  88293649.38746  21562193.445                    21562200.445
 106047538.016 7  82634467.14246  20180175.891                    20180183.293
 105799744.185 8  82441375.13246  20133023.875                    20133030.363
 11  7 26 17 29  0.0000000  0 10G06G10G08G16G03G20G07G19G13G23
 116976164.487 7  91150288.32945  22259824.469                    22259833.176
 125144403.849 6  97515198.98644  23814196.883                    23814207.078
 129703988.498 6 101067977.40443  24681818.461                    24681829.305
 118469679.746 7  92314053.69245  22544033.555                    22544041.559
 109387952.064 8  85237393.36945  20815834.000                    20815842.844
 128114031.103 5  99829015.16842  24379276.891                    24379289.145
 118609300.078 7                  22570600.805
 113251080.237 7  88247574.83946  21550941.109                    21550948.574
 106018617.613 7  82611931.75946  20174672.000                    20174679.816
 105832186.618 8  82466654.92046  20139197.719                    20139203.910
 11  7 26 17 29 30.0000000  0 10G06G10G08G16G03G20G07G19G13G23
 117015838.717 7  91181203.29545  22267373.773                    22267382.770
 125140717.931 6  97512326.83443  23813494.969                    23813505.984
 129637142.682 6 101015889.81443  24669097.938                    24669109.328
 118557913.776 7  92382807.45045  22560824.188                    22560831.555
 109399019.053 8  85246016.99246  20817940.305                    20817949.148
 128201887.741 6  99897474.67842  24395996.188                    24396007.391
 118551088.542 7                  22559523.172
 113192414.160 7  88201861.04646  21539777.039                    21539785.219
 105990214.205 7  82589799.22446  20169266.898                    20169275.074
 105865188.716 8  82492370.81246  20145477.555                    20145484.004
 11  7 26 17 30  0.0000000  0 10G06G10G08G16G03G20G07G19G13G23
 117056037.346 7  91212526.88745  22275023.359                    22275032.688
 125137535.571 6  97509847.06143  23812889.016                    23812899.707
 129570246.391 6 100963762.88143  24656367.805                    24656379.051
 118646258.149 7  92451647.18545  22577635.563                    22577643.316
 109410719.845 8  85255134.48146  20820166.539                    20820175.395
 128289650.415 6  99965860.98142  24412696.852                    24412708.371
 118492903.438 7                  22548450.797
 113134213.864 7  88156510.19446  21528702.188                    21528709.715
 105962329.793 8  82568071.10246  20163960.836                    20163968.738
 105898750.262 8  82518522.63646  20151864.438                    20151870.980
 11  7 26 17 30 30.0000000  0 10G06G10G08G16G03G20G07G19G13G23
 117096758.580 7  91244257.71645  22282772.289                    22282781.371
 125134855.920 6  97507758.98843  23812379.891                    23812389.609
 129503299.274 6 100911596.35543  24643628.328                    24643639.496
 118734710.440 7  92520571.01245  22594467.320                    22594475.508
 109423053.930 8  85264745.45446  20822513.609                    20822522.383
 128377316.543 6 100034172.06643  24429378.078                    24429391.195
 118434745.685 7                  22537383.617
 113076481.844 7  88111524.24346  21517715.953                    21517723.242
 105934965.829 8  82546748.51246  20158753.742                    20158761.598
 105932870.400 8  82545109.73046  20158357.453                    20158363.977
 11  7 26 17 31  0.0000000  0 10G06G10G08G16G03G20G07G19G13G23
 117138001.616 7  91276395.12745  22290620.438                    22290629.625
 125132678.613 6  97506062.37043  23811965.078                    23811975.141
 129436301.440 6 100859390.31543  24630879.180                    24630890.336
 118823269.168 7  92589577.77644  22611319.352                    22611327.480
 109436021.545 8  85274850.07745  20824981.289                    20824990.379
 128464884.027 6 100102406.26243  24446043.172                    24446055.074
 118376615.880 7                  22526322.133
 113019221.149 7  88066905.54446  21506819.602                    21506827.410
 105908124.925 7  82525833.51146  20153646.031                    20153653.887
 105967549.638 8  82572132.47446  20164956.406                    20164962.953
 11  7 26 17 31 30.0000000  0 10G06G10G08G16G03G20G07G19G13G23
 117179765.375 7  91308938.30445  22298568.133                    22298577.258
 125131002.677 6  97504756.43643  23811646.438                    23811656.543
 129369252.263 6 100807144.26543  24618120.141                    24618130.523
 118911931.629 7  92658665.36545  22628191.242                    22628199.281
 109449622.078 8  85285447.89345  20827569.531                    20827578.230
 128552349.981 6 100170561.33243  24462687.266                    24462699.207
 118318514.027 7                  22515265.828
 112962434.288 7  88022656.07446  21496013.523                    21496020.965
 105881808.413 8  82505327.13746  20148638.164                    20148645.758
 106002787.204 8  82599590.29346  20171661.719                    20171668.168
 11  7 26 17 32  0.0000000  0 10G06G10G08G16G03G20G07G19G13G23
 117222048.076 7  91341885.84845  22306614.305                    22306623.250
 125129827.114 6  97503840.40944  23811423.273                    23811432.824
 129302151.768 6 100754858.20443  24605350.953                    24605362.148
 119000695.620 7  92727832.07245  22645082.461                    22645091.059
 109463855.377 8  85296538.76446  20830278.219                    20830286.859
 128639711.896 6 100238635.32643  24479312.172                    24479324.383
 118260440.326 7                  22504214.781
 112906123.596 7  87978777.64446  21485298.008                    21485305.367
 105856017.887 7  82485230.61246  20143730.250                    20143738.059
 106038582.361 8  82627482.58446  20178473.727                    20178479.852
 11  7 26 17 32 30.0000000  0 10G06G10G08G16G03G20G07G19G13G23
 117264848.976 7  91375237.18645  22314759.047                    22314768.500
 125129151.548 6  97503313.94443  23811293.852                    23811304.398
 129234999.926 6 100702532.12843  24592573.359                    24592583.855
 119089559.368 7  92797076.51844  22661992.523                    22662001.105
 109478721.294 8  85308122.58546  20833106.391                    20833115.852
 128726967.729 6 100306626.66443  24495916.250                    24495928.777
 118202395.726 7                  22493169.055
 112850292.161 7  87935272.64946  21474673.383                    21474680.715
 105830755.790 7  82465545.85746  20138922.953                    20138931.008
 106074935.278 8  82655809.50346  20185391.172                    20185397.746
 11  7 26 17 33  0.0000000  0 10G06G10G08G16G03G20G07G19G13G23
 117308166.523 7  91408991.10245  22323002.148                    22323011.469
 125128974.896 6  97503176.28844  23811260.258                    23811270.738
 129167796.156 6 100650165.60443  24579784.836                    24579794.816
 119178520.243 7  92866396.63645  22678921.563                    22678929.348
 109494219.634 8  85320199.21145  20836056.070                    20836064.633
 128814114.713 6 100374533.14543  24512500.133                    24512512.371
 118144380.210 7                  22482128.852
 112794942.251 7  87892142.88046  21464141.047                    21464148.141
 105806023.151 8  82446273.66546  20134216.828                    20134224.672
 106111845.086 8  82684570.35346  20192415.195                    20192421.840
 11  7 26 17 33 30.0000000  0 10G06G10G08G16G03G20G07G19G13G23
 117351999.284 7  91443146.48445  22331343.156                    22331352.582
 125129296.089 6  97503426.56444  23811322.359                    23811332.074
 129100540.300 6 100597758.49843  24566986.063                    24566996.523
 119267576.446 7  92935791.03244  22695868.688                    22695876.551
 109510349.505 8  85332767.93545  20839125.461                    20839134.305
 128901150.250 6 100442352.83244  24529062.867                    24529074.488
 118086393.674 7                  22471094.992
 112740076.345 7  87849390.26346  21453700.508                    21453707.379
 105781821.729 7  82427415.40646  20129611.078                    20129619.262
 106149311.240 8  82713764.72346  20199544.859                    20199551.148
 11  7 26 17 34  0.0000000  0 10G06G10G08G16G03G20G07G19G13G23
 117396346.262 7  91477702.55345  22339782.406                    22339791.086
 125130114.623 6  97504064.35543  23811477.469                    23811487.730
 129033232.358 6 100545310.83643  24554178.164                    24554188.930
 119356725.755 7  93005257.98744  22712833.219                    22712840.922
 109527110.589 8  85345828.51545  20842315.094                    20842324.113
 128988071.924 6 100510083.77743  24545603.109                    24545615.715
 118028437.097 7                  22460065.711
 112685697.237 7  87807016.95346  21443352.359                    21443359.176
 105758153.628 8  82408972.72446  20125107.547                    20125115.555
 106187333.295 8  82743392.25946  20206780.500                    20206786.699
 11  7 26 17 34 30.0000000  0 10G06G10G08G16G03G20G07G19G13G23
 117441205.750 7  91512657.98645  22348318.398                    22348328.074
 125131429.543 6  97505088.95044  23811727.109                    23811737.711
 128965871.837 6 100492822.18243  24541359.633                    24541369.875
 119445965.773 7  93074795.62844  22729814.594                    22729822.887
 109544502.287 8  85359380.47945  20845624.461                    20845633.504
 129074877.218 6 100577724.04043  24562121.930                    24562134.480
 117970510.535 7                  22449042.672
 112631807.238 7  87765024.77546  21433097.414                    21433104.449
 105735020.063 7  82390946.56246  20120705.469                    20120713.277
 106225910.564 8  82773452.44046  20214121.289                    20214127.320
 11  7 26 17 35  0.0000000  0 10G06G10G08G16G03G20G07G19G13G23
 117486576.799 7  91548012.03645  22356952.797                    22356961.664
 125133240.644 6  97506500.17044  23812072.273                    23812082.406
 128898458.852 6 100440292.64443  24528531.500                    24528541.691
 119535295.002 7  93144402.78544  22746813.797                    22746821.309
 109562524.889 8  85373424.05545  20849053.914                    20849063.063
 129161564.177 6 100645272.05743  24578617.930                    24578630.594
 117912615.059 7                  22438025.602
 112578409.224 7  87723415.96046  21422935.883                    21422943.305
 105712423.871 8  82373339.12646  20116405.289                    20116413.383
 106265043.002 8  82803945.20946  20221567.680                    20221574.000
 11  7 26 17 35 30.0000000  0 10G06G10G08G16G03G20G07G19G13G23
 117532457.499 7  91583763.21845  22365683.102                    22365692.793
 125135545.819 6  97508296.36243  23812511.102                    23812521.426
 128830992.980 6 100387721.92043  24515692.602                    24515703.094
 119624710.472 7  93214077.13944  22763829.188                    22763836.582
 109581177.247 8  85387958.34845  20852603.563                    20852613.055
 129248129.797 6 100712725.54543  24595090.180                    24595103.652
 117854750.243 7                  22427013.852
 112525505.180 7  87682192.05746  21412868.188                    21412875.500
 105690365.046 8  82356150.42646  20112207.875                    20112215.574
 106304729.446 8  82834869.67946  20229120.102                    20229126.180
 11  7 26 17 36  0.0000000  0 10G06G10G08G16G03G20G07G19G13G23
 117578846.582 7  91619910.55545  22374510.367                    22374520.438
 125138344.627 6  97510477.23144  23813043.719                    23813053.660
 128763473.987 6 100335109.75843  24502844.453                    24502854.844
 119714210.486 7  93283817.38244  22780860.242                    22780868.367
 109600458.740 8  85402982.87445  20856272.703                    20856281.539
 129334571.707 6 100780082.58742  24611540.422                    24611553.453
 117796916.606 7                  22416009.039
 112473097.683 7  87641355.07746  21402895.563                    21402902.664
 105668845.440 7  82339381.88846  20108112.656                    20108120.566
 106344969.418 8  82866225.46446  20236777.656                    20236783.918
 11  7 26 17 36 30.0000000  0 10G06G10G08G16G03G20G07G19G13G23
 117625742.806 7  91656453.04545  22383435.180                    22383444.246
 125141636.002 6  97513041.90243  23813669.836                    23813680.809
 128695901.517 6 100282455.94443  24489985.250                    24489996.723
 119803793.040 7  93353621.93445  22797907.438                    22797914.727
 109620368.751 8  85418497.15945  20860061.758                    20860070.355
 129420887.654 6 100847341.59542  24627966.125                    24627978.984
 117739114.793 7                  22405009.711
 112421189.198 7  87600906.92546  21393017.922                    21393025.035
 105647867.042 8  82323035.07146  20104120.891                    20104128.406
 106385762.030 8  82898011.87846  20244539.898                    20244546.480
 11  7 26 17 37  0.0000000  0 10G06G10G08G16G03G20G07G19G13G23
 117673144.359 7  91693389.29545  22392455.133                    22392464.473
 125145419.195 6  97515989.79243  23814390.602                    23814400.551
 128628275.890 6 100229760.71743  24477116.656                    24477127.223
 119893455.978 7  93423489.13144  22814969.500                    22814977.629
 109640907.172 8  85434501.10746  20863969.875                    20863978.613
 129507075.204 6 100914500.48642  24644366.789                    24644379.887
 117681345.253 7                  22394016.594
 112369782.301 7  87560849.63446  21383235.164                    21383242.398
 105627431.709 7  82307111.42546  20100232.219                    20100239.766
 106427107.002 8  82930228.70046  20252407.984                    20252414.254
 11  7 26 17 37 30.0000000  0 10G06G10G08G16G03G20G07G19G13G23
 117721050.114 7  91730718.43345  22401571.711                    22401580.527
 125149693.323 6  97519320.24243  23815203.711                    23815213.891
 128560596.640 6 100177023.72043  24464237.453                    24464248.328
 119983197.337 7  93493417.43544  22832046.617                    22832054.742
 109662072.988 8  85450993.93846  20867997.500                    20868006.516
 129593131.955 6 100981557.46242  24660742.398                    24660755.996
 117623608.560 7                  22383029.344
 112318879.402 7  87521185.05346  21373548.758                    21373556.227
 105607540.765 7  82291611.98046  20096447.164                    20096454.945
 106469003.403 8  82962875.21146  20260380.547                    20260386.801
 11  7 26 17 38  0.0000000  0 10G06G10G08G16G03G20G07G19G13G23
 117769458.562 7  91768439.27545  22410783.102                    22410792.340
 125154457.367 7  97523032.44143  23816109.555                    23816119.914
 128492863.837 6 100124244.98243  24451348.508                    24451359.313
 120073015.267 7  93563405.38244  22849138.766                    22849146.449
 109683865.819 8  85467975.35345  20872144.203                    20872152.852
 129679055.640 6 101048510.81942  24677094.602                    24677106.609
 117565905.070 7                  22372049.023
 112268482.797 7  87481915.00146  21363958.969                    21363966.055
 105588196.229 8  82276538.30946  20092765.656                    20092773.633
 106511450.890 8  82995951.14046  20268457.672                    20268463.852
 11  7 26 17 38 30.0000000  0 10G06G10G08G16G03G20G07G19G13G23
 117818367.994 7  91806550.49745  22420090.664                    22420099.461
 125159710.211 6  97527125.55343  23817109.180                    23817119.879
 128425077.073 6 100071424.19143  24438449.828                    24438459.891
 120162907.154 7  93633450.97044  22866244.188                    22866252.559
 109706284.796 8  85485444.68746  20876410.945                    20876419.750
 129764843.751 6 101115358.43942  24693420.125                    24693432.363
 117508235.002 7                  22361074.641
 112218594.888 7  87443041.33146  21354465.070                    21354472.313
 105569398.836 7  82261890.97446  20089188.789                    20089196.793
 106554448.439 8  83029455.69046  20276640.133                    20276646.656
 11  7 26 17 39  0.0000000  0 10G06G10G08G16G03G20G07G19G13G23
 117867776.843 7  91845050.88145  22429492.555                    22429501.871
 125165450.278 6  97531598.29343  23818202.055                    23818211.883
 128357236.219 6 100018561.25643  24425539.281                    24425549.910
 120252870.947 7  93703552.57844  22883363.844                    22883371.855
 109729329.521 8  85503401.60245  20880796.094                    20880805.117
 129850493.794 6 101182098.52642  24709718.180                    24709730.379
 117450598.840 7                  22350106.734
 112169217.972 7  87404565.83446  21345069.070                    21345076.492
 105551150.078 8  82247671.14546  20085716.203                    20085724.188
 106597995.159 8  83063388.15646  20284926.742                    20284933.063
 11  7 26 17 39 30.0000000  0 10G06G10G08G16G03G20G07G19G13G23
 117917683.519 7  91883939.18345  22438989.227                    22438998.879
 125171676.905 7  97536450.19043  23819386.688                    23819397.176
 128289341.039 6  99965655.97143  24412619.219                    24412629.617
 120342904.951 7  93773708.90244  22900496.828                    22900504.836
 109752999.062 8  85521845.39745  20885299.961                    20885309.289
 129936003.311 6 101248729.14042  24725990.070                    24726002.719
 117392997.141 7                  22339145.578
 112120354.442 7  87366490.38946  21335770.703                    21335778.398
 105533451.823 8  82233880.29046  20082348.313                    20082356.371
 106642090.102 8  83097747.81646  20293317.734                    20293324.422
 11  7 26 17 40  0.0000000  0 10G06G10G08G16G03G20G07G19G13G23
 117968086.589 7  91923214.27845  22448580.391                    22448590.320
 125178388.907 7  97541680.27243  23820663.773                    23820673.957
 128221391.500 6  99912708.35943  24399688.625                    24399699.813
 120433006.781 7  93843918.08944  22917642.656                    22917650.852
 109777292.522 8  85540775.34845  20889923.164                    20889932.242
 130021369.904 6 101315248.31643  24742235.664                    24742248.348
 117335430.269 7                  22328190.820
 112072006.450 7  87328816.64946  21326570.797                    21326577.828
 105516305.158 8  82220519.23646  20079085.320                    20079092.875
 106686732.535 8  83132534.07846  20301813.000                    20301819.598
 11  7 26 17 40 30.0000000  0 10G06G10G08G16G03G20G07G19G13G23
 118018984.370 7  91962874.88145  22458266.625                    22458275.746
 125185585.304 7  97547287.80444  23822033.227                    23822044.191
 128153387.565 6  99859718.34043  24386748.281                    24386758.121
 120523174.937 7  93914178.95944  22934800.492                    22934809.234
 109802209.518 8  85560191.17646  20894664.531                    20894673.789
 130106591.465 6 101381654.48343  24758452.016                    24758465.918
 117277898.687 7                  22317243.125
 112024176.568 7  87291546.63046  21317468.719                    21317476.074
 105499711.777 7  82207589.32046  20075927.758                    20075935.566
 106731922.129 8  83167746.71046  20310412.258                    20310418.641
 11  7 26 17 41  0.0000000  0 10G06G10G08G16G03G20G07G19G13G23
 118070375.610 7  92002919.98045  22468045.484                    22468055.262
 125193264.721 6  97553271.73143  23823495.055                    23823504.957
 128085328.809 6  99806685.61943  24373796.453                    24373807.281
 120613407.334 7  93984489.89544  22951972.023                    22951980.027
 109827748.999 8  85580092.05145  20899524.547                    20899533.395
 130191665.758 6 101447945.91643  24774642.133                    24774655.320
 117220403.273 7                  22306302.180
 111976866.966 8  87254682.03346  21308465.555                    21308473.219
 105483673.321 8  82195091.80646  20072875.938                    20072883.867
 106777657.876 8  83203384.91746  20319115.641                    20319122.242
 11  7 26 17 41 30.0000000  0  9G06G10G08G16G03G07G19G13G23
 118122259.838 7  92043349.22245  22477919.313                    22477928.563
 125201427.753 7  97559632.51143  23825048.086                    23825058.781
 128017217.036 6  99753611.58643  24360835.211                    24360846.082
 120703703.478 7  94054850.51344  22969155.063                    22969162.832
 109853911.686 8  85600478.53945  20904503.531                    20904512.223
 117162945.823 7                  22295368.094
 111930081.408 8  87218225.78046  21299562.836                    21299569.934
 105468192.446 8  82183028.77146  20069930.125                    20069937.977
 106823940.288 8  83239449.08946  20327923.070                    20327929.387
 11  7 26 17 42  0.0000000  0  9G06G10G08G16G03G07G19G13G23
 118174634.097 7  92084160.32044  22487885.672                    22487894.449
 125210071.753 7  97566368.04343  23826693.430                    23826703.539
 127949050.483 6  99700494.86143  24347864.141                    24347874.301
 120794059.715 7  94125257.93644  22986348.500                    22986356.598
 109880695.127 8  85621348.73546  20909600.102                    20909609.254
 117105525.538 7                  22284441.406
 111883820.376 7  87182178.24546  21290759.500                    21290767.215
 105453269.086 8  82171400.16846  20067089.719                    20067097.867
 106870766.833 8  83275937.26746  20336833.781                    20336840.199
 11  7 26 17 42 30.0000000  0  9G06G10G08G16G03G07G19G13G23
 118227496.235 7  92125351.57044  22497945.172                    22497954.086
 125219195.163 6  97573477.16343  23828429.297                    23828439.863
 127880828.858 6  99647335.21543  24334881.469                    24334892.145
 120884473.822 7  94195710.44544  23003554.250                    23003562.039
 109908098.582 8  85642702.06245  20914815.031                    20914823.723
 117048142.462 7                  22273521.430
 111838086.099 7  87146541.16246  21282056.555                    21282064.023
 105438904.302 8  82160206.81046  20064356.672                    20064364.996
 106918136.049 8  83312848.30046  20345847.672                    20345854.176
 11  7 26 17 43  0.0000000  0  9G06G10G08G16G03G07G19G13G23
 118280844.664 7  92166921.76044  22508096.586                    22508106.137
 125228796.109 6  97580958.38043  23830256.578                    23830267.176
 127812552.066 6  99594132.54843  24321889.367                    24321899.355
 120974943.502 7  94266206.23844  23020769.852                    23020778.539
 109936120.111 8  85664537.00645  20920147.125                    20920156.242
 116990796.851 7                  22262608.992
 111792880.704 7  87111316.20346  21273454.180                    21273461.711
 105425099.215 8  82149449.58246  20061729.891                    20061736.922
 106966047.302 8  83350181.70246  20354965.055                    20354971.711
 11  7 26 17 43 30.0000000  0  9G06G10G08G16G03G07G19G13G23
 118334678.023 7  92208869.80744  22518340.883                    22518349.934
 125238874.297 6  97588811.47543  23832174.547                    23832184.660
 127744220.366 6  99540887.11743  24308886.094                    24308896.332
 121065467.502 7  94336744.38444  23037996.313                    23038004.934
 109964759.836 8  85686853.66645  20925596.836                    20925606.211
 116933489.946 7                  22251704.305
 111748206.663 7  87076505.28146  21264953.203                    21264960.668
 105411855.823 8  82139130.04846  20059209.617                    20059217.332
 107014499.960 8  83387936.97946  20364185.195                    20364191.723
 11  7 26 17 44  0.0000000  0  9G06G10G08G16G03G07G19G13G23
 118388994.333 7  92251194.19445  22528676.836                    22528686.281
 125249427.840 7  97597034.98143  23834182.758                    23834192.344
 127675833.201 6  99487598.47343  24295872.234                    24295882.742
 121156043.542 7  94407323.06844  23055232.367                    23055240.484
 109994016.259 8  85709650.86145  20931164.367                    20931173.168
 116876221.767 7                  22240806.461
 111704065.800 8  87042109.81546  21256553.602                    21256560.828
 105399174.763 8  82129248.69346  20056796.133                    20056804.402
 107063492.731 8  83426113.11846  20373508.375                    20373515.133
 11  7 26 17 44 30.0000000  0  9G06G10G08G16G03G07G19G13G23
 118443792.063 7  92293893.69745  22539104.930                    22539114.109
 125260455.822 6  97605628.19043  23836280.914                    23836291.645
 127607390.750 6  99434266.75543  24282848.188                    24282857.996
 121246670.252 7  94477941.23944  23072478.234                    23072486.313
 110023888.805 7  85732928.15945  20936849.047                    20936858.355
 116818993.417 7                  22229916.219
 111660460.305 7  87008131.51546  21248255.875                    21248262.773
 105387057.642 8  82119806.76146  20054490.695                    20054498.301
 107113024.652 8  83464709.38246  20382934.070                    20382940.570
 11  7 26 17 45  0.0000000  0  9G06G10G08G16G03G07G19G13G23
 118499069.374 7  92336966.91545  22549623.672                    22549632.875
 125271956.748 7  97614589.92743  23838469.586                    23838479.594
 127538892.698 6  99380891.71043  24269813.453                    24269823.324
 121337345.080 7  94548596.90944  23089733.141                    23089741.313
 110054375.974 8  85756684.38245  20942650.773                    20942659.820
 116761804.984 7                  22219033.438
 111617392.373 7  86974572.10046  21240059.695                    21240067.098
 105375505.515 7  82110805.08446  20052292.203                    20052299.914
 107163094.523 8  83503724.82646  20392462.008                    20392468.410
 11  7 26 17 45 30.0000000  0  9G06G10G08G16G03G07G19G13G23
 118554824.681 7  92380412.58745  22560234.008                    22560243.090
 125283929.771 6  97623919.53943  23840748.133                    23840758.492
 127470339.223 6  99327473.44943  24256767.594                    24256777.664
 121428066.484 7  94619288.86744  23106996.594                    23107004.992
 110085477.203 8  85780919.09945  20948568.953                    20948578.016
 116704657.577 7                  22208158.695
 111574864.358 7  86941433.40446  21231967.164                    21231974.063
 105364520.213 7  82102245.09746  20050201.922                    20050209.703
 107213701.891 8  83543159.09946  20402092.328                    20402098.855
 11  7 26 17 46  0.0000000  0  9G06G10G08G16G03G07G19G13G23
 118611056.011 7  92424229.19545  22570934.383                    22570943.320
 125296373.168 7  97633615.64944  23843115.914                    23843127.082
 127401730.141 6  99274011.88343  24243712.547                    24243722.176
 121518832.274 7  94690015.43544  23124269.008                    23124277.156
 110117191.094 8  85805631.20845  20954603.797                    20954612.969
 116647551.381 7                  22197291.680
 111532878.077 7  86908716.84046  21223977.727                    21223985.047
 105354102.341 8  82094127.25446  20048219.789                    20048227.355
 107264845.157 8  83583010.95846  20411824.594                    20411831.168
 11  7 26 17 46 30.0000000  0  9G06G10G08G16G03G07G19G13G23
 118667761.266 7  92468415.09545  22581724.898                    22581734.535
 125309285.341 7  97643677.06143  23845573.258                    23845583.672
 127333065.248 6  99220506.80243  24230645.219                    24230655.828
 121609640.599 7  94760775.13744  23141549.250                    23141556.992
 110149516.523 8  85830819.84645  20960755.531                    20960764.457
 116590486.897 7                  22186432.891
 111491435.244 7  86876423.72946  21216091.094                    21216098.320
 105344252.762 8  82086452.24746  20046345.430                    20046352.770
 107316523.070 8  83623279.41246  20421658.359                    20421665.484
 11  7 26 17 47  0.0000000  0  9G06G10G08G16G03G07G19G13G23
 118724939.825 7  92512969.79844  22592605.328                    22592614.652
 125322665.701 7  97654103.27543  23848119.195                    23848130.000
 127264345.375 6  99166958.90843  24217569.039                    24217578.578
 121700490.233 7  94831567.01444  23158837.109                    23158845.070
 110182452.935 8  85856484.57245  20967022.406                    20967031.699
 116533465.605 7                  22175581.492
 111450538.843 7  86844556.42346  21208308.883                    21208316.051
 105334974.258 8  82079222.21946  20044579.578                    20044587.082
 107368735.376 8  83663964.29346  20431594.109                    20431601.078
 11  7 26 17 47 30.0000000  0  9G06G10G08G16G03G07G19G13G23
 118782588.678 7  92557890.96745  22603575.508                    22603584.914
 125336512.031 7  97664892.59643  23850753.813                    23850764.930
 127195569.440 6  99113367.32143  24204480.859                    24204491.176
 121791378.824 6  94902389.26044  23176133.430                    23176140.586
 110215998.706 8  85882624.12245  20973406.789                    20973415.219
 116476487.201 7                  22164739.516
 111410189.845 7  86813115.65546  21200631.141                    21200638.023
 105326266.196 8  82072436.70246  20042922.867                    20042930.289
 107421479.867 8  83705063.83946  20441631.102                    20441638.086
 11  7 26 17 48  0.0000000  0  9G06G10G08G16G03G07G19G13G23
 118840706.185 7  92603177.32245  22614634.898                    22614644.078
 125350823.025 7  97676043.98343  23853477.672                    23853487.863
 127126737.558 6  99059732.12843  24191382.656                    24191392.863
 121882304.260 6  94973240.20344  23193435.445                    23193442.902
 110250152.311 8  85909237.31845  20979905.656                    20979914.094
 116419552.273 7                  22153904.773
 111370390.304 7  86782103.03846  21193056.742                    21193063.809
 105318129.811 8  82066096.63946  20041374.016                    20041382.172
 107474755.486 8  83746577.26146  20451769.328                    20451776.176
 11  7 26 17 48 30.0000000  0  9G06G10G08G16G03G07G19G13G23
 118899290.848 7  92648827.68045  22625783.359                    22625792.539
 125365597.434 7  97687556.46543  23856289.469                    23856299.609
 127057850.129 6  99006053.66743  24178274.008                    24178283.891
 121973265.091 7  95044118.72444  23210745.078                    23210753.047
 110284913.101 8  85936323.63445  20986520.383                    20986528.969
 116362661.860 7                  22143078.922
 111331142.823 7  86751520.59646  21185588.570                    21185595.602
 105310567.019 8  82060203.53846  20039935.117                    20039942.715
 107528561.514 8  83788503.99146  20462008.133                    20462014.809
 11  7 26 17 49  0.0000000  0  9G06G10G08G16G03G07G19G13G23
 118958340.755 7  92694840.56344  22637020.313                    22637029.516
 125380833.652 7  97699428.80543  23859188.328                    23859198.930
 126988907.297 6  98952332.05143  24165154.297                    24165164.047
 122064259.392 7  95115023.32344  23228061.000                    23228068.570
 110320279.943 8  85963882.21545  20993250.539                    20993259.316
 116305816.643 7                  22132262.016
 111292449.032 7  86721369.60046  21178225.219                    21178232.129
 105303578.642 8  82054758.03446  20038605.297                    20038613.254
 107582896.627 8  83830842.99546  20472347.898                    20472354.684
 11  7 26 17 49 30.0000000  0  9G06G10G08G16G03G07G19G13G23
 119017853.884 7  92741214.40544  22648345.094                    22648354.473
 125396530.037 6  97711659.71743  23862175.477                    23862185.535
 126919908.708 6  98898566.95843  24152024.180                    24152034.258
 122155285.261 7  95185952.54744  23245381.992                    23245390.207
 110356250.982 8  85991911.59245  21000095.359                    21000104.195
 116249017.141 7                  22121452.828
 111254310.570 7  86691651.32846  21170967.758                    21170975.059
 105297165.458 8  82049760.72946  20037385.047                    20037392.855
 107637759.406 8  83873593.15846  20482788.266                    20482794.863
 11  7 26 17 50  0.0000000  0  9G06G10G08G16G03G07G19G13G23
 119077828.487 7  92787947.83844  22659758.039                    22659767.754
 125412685.436 6  97724248.31243  23865249.031                    23865260.566
 126850854.643 6  98844758.66543  24138883.930                    24138894.348
 122246341.078 7  95256905.07844  23262709.359                    23262717.762
 110392825.420 8  86020411.14345  21007055.070                    21007064.031
 116192264.191 7                  22110653.688
 111216729.836 7  86662367.66246  21163816.398                    21163823.691
 105291328.823 8  82045212.68646  20036274.289                    20036282.219
 107693148.821 8  83916753.69246  20493328.438                    20493334.883
 11  7 26 17 50 30.0000000  0  9G06G10G08G16G03G07G19G13G23
 119138262.561 7  92835039.30344  22671258.203                    22671267.863
 125429298.007 6  97737193.10844  23868411.047                    23868421.633
 126781744.854 6  98790906.93544  24125732.945                    24125742.867
 122337424.969 7  95327879.49644  23280042.266                    23280050.434
 110430001.439 8  86049379.47145  21014129.617                    21014138.254
 116135558.240 7                  22099862.320
 111179708.229 7  86633519.66946  21156771.680                    21156778.625
 105286069.446 8  82041114.45246  20035273.539                    20035281.184
 107749063.442 8  83960323.47346  20503968.305                    20503974.977
 11  7 26 17 51  0.0000000  0  9G06G10G08G16G03G07G19G13G23
 119199154.043 7  92882487.18244  22682845.563                    22682855.215
 125446366.206 6  97750492.96143  23871659.039                    23871669.934
 126712579.301 6  98737011.73943  24112570.477                    24112580.961
 122428535.275 7  95398874.49044  23297379.609                    23297388.063
 110467778.113 8  86078815.82845  21021318.578                    21021327.332
 116078899.931 7                  22089081.148
 111143247.718 7  86605108.89946  21149833.133                    21149840.469
 105281388.228 8  82037466.72946  20034382.641                    20034390.344
 107805501.766 8  84004301.34046  20514708.438                    20514714.949
 11  7 26 17 51 30.0000000  0  9G06G10G08G16G03G07G19G13G23
 119260501.149 7  92930290.10744  22694519.609                    22694528.922
 125463888.785 6  97764146.87543  23874993.766                    23875004.344
 126643358.282 6  98683073.34443  24099398.195                    24099408.527
 122519669.847 7  95469888.40544  23314722.055                    23314730.152
 110506154.139 8  86108719.21345  21028620.758                    21028629.734
 116022290.064 7                  22078308.281
 111107350.102 7  86577136.74746  21143001.992                    21143009.148
 105277286.486 8  82034270.54546  20033602.063                    20033610.004
 107862462.926 8  84048686.60946  20525547.875                    20525554.520
 11  7 26 17 52  0.0000000  0  9G06G10G08G16G03G07G19G13G23
 119322301.468 7  92978446.17844  22706279.336                    22706289.141
 125481863.926 6  97778153.42043  23878414.133                    23878424.504
 126574081.514 6  98629091.51743  24086214.953                    24086225.770
 122610826.852 6  95540919.80343  23332069.055                    23332076.793
 110545127.612 8  86139088.15345  21036037.492                    21036046.039
 115965729.272 7                  22067545.367
 111072016.832 7  86549604.34946  21136278.430                    21136285.598
 105273764.525 8  82031526.14746  20032931.930                    20032939.508
 107919945.052 8  84093477.82846  20536486.266                    20536493.367
 11  7 26 17 52 30.0000000  0  9G06G10G08G16G03G07G19G13G23
 119384553.706 7  93026954.38944  22718125.727                    22718135.340
 125500290.321 6  97792511.60043  23881920.844                    23881931.160
 126504749.569 6  98575066.69543  24073021.398                    24073032.445
 122702004.890 6  95611967.57644  23349419.492                    23349427.539
 110584697.564 8  86169921.86745  21043567.367                    21043576.398
 115909218.552 7                  22056791.680
 111037250.193 7  86522513.47446  21129662.734                    21129669.645
 105270824.103 7  82029234.88646  20032372.195                    20032380.176
 107977947.099 8  84138674.17946  20547523.961                    20547530.391
 11  7 26 17 53  0.0000000  0  9G06G10G08G16G03G07G19G13G23
 119447255.392 7  93075812.81644  22730057.961                    22730066.957
 125519166.100 7  97807219.97044  23885512.836                    23885522.762
 126435362.032 6  98520998.55543  24059817.805                    24059827.730
 122793202.040 6  95683030.26544  23366773.727                    23366781.836
 110624862.235 8  86201219.01345  21051210.461                    21051219.023
 115852758.261 7                  22046047.164
 111003051.856 7  86495865.43946  21123154.961                    21123162.086
 105268465.432 8  82027396.94846  20031923.391                    20031931.445
 108036467.307 8  84184274.29246  20558660.156                    20558666.363
 11  7 26 17 53 30.0000000  0  9G06G10G08G16G03G07G19G13G23
 119510404.904 7  93125020.19844  22742074.891                    22742083.789
 125538489.635 7  97822277.22644  23889189.492                    23889200.395
 126365919.065 6  98466887.20244  24046602.930                    24046613.219
 122884416.773 6  95754106.63543  23384131.391                    23384139.727
 110665620.334 8  86232978.56645  21058966.742                    21058975.504
 115796349.211 7                  22035313.375
 110969423.166 7  86469661.28046  21116755.336                    21116762.406
 105266689.654 8  82026013.20446  20031585.773                    20031593.375
 108095504.528 8  84230277.28046  20569894.305                    20569900.859
 11  7 26 17 54  0.0000000  0  9G06G10G08G16G03G07G19G13G23
 119573999.883 7  93174574.68744  22754176.836                    22754185.789
 125558258.909 6  97837681.79843  23892951.219                    23892962.664
 126296420.627 7  98412732.63743  24033377.625                    24033387.699
 122975647.103 6  95825195.16244  23401491.742                    23401500.465
 110706970.065 8  86265199.13845  21066835.250                    21066844.020
 115739991.801 7                  22024588.578
 110936366.146 7  86443902.58546  21110465.109                    21110472.070
 105265497.251 7  82025084.04446  20031358.750                    20031366.824
 108155057.004 8  84276681.75546  20581226.680                    20581233.699
 11  7 26 17 54 30.0000000  0  9G06G10G08G16G03G07G19G13G23
 119638038.791 7  93224475.11944  22766363.156                    22766371.328
 125578472.943 6  97853432.95643  23896798.031                    23896808.992
 126226867.278 7  98358535.30443  24020142.883                    24020152.504
 123066891.845 6  95896294.92044  23418855.563                    23418863.520
 110748910.395 8  86297879.91245  21074816.125                    21074824.855
 115683687.956 7                  22013874.563
 110903882.552 7  86418590.71846  21104283.250                    21104290.535
 105264889.799 8  82024610.68346  20031243.063                    20031250.758
 108215123.911 8  84323487.08346  20592657.234                    20592664.184
 11  7 26 17 55  0.0000000  0 10G06G10G08G28G16G03G07G19G13G23
 119702518.744 7  93274719.21944  22778632.969                    22778642.148
 125599128.902 6  97869528.44743  23900728.523                    23900739.641
 126157257.832 7  98304294.22644  24006896.023                    24006906.191
 129606527.73516 100992003.24752  24663267.883                    24663280.988
 123158148.407 6  95967403.88744  23436220.664                    23436229.598
 110791439.317 8  86331019.33045  21082908.828                    21082917.848
 115627437.196 7                  22003170.328
 110871972.958 7  86393726.13246  21098211.352                    21098218.125
 105264866.627 8  82024592.60446  20031238.648                    20031246.613
 108275702.990 8  84370691.50046  20604185.063                    20604191.816
 11  7 26 17 55 30.0000000  0 10G06G10G08G28G16G03G07G19G13G23
 119767437.420 7  93325305.18044  22790986.703                    22790996.074
 125620225.037 6  97885966.93943  23904743.516                    23904753.855
 126087592.801 7  98250009.84144  23993639.305                    23993649.371
 129531590.045 6 100933610.29042  24649007.727                    24649021.219
 123249415.195 7  96038520.81144  23453588.141                    23453597.230
 110834554.795 8  86364615.79945  21091114.008                    21091122.637
 115571239.677 7                  21992476.125
 110840639.153 7  86369310.20446  21092248.531                    21092255.621
 105265428.708 7  82025030.57346  20031345.617                    20031353.758
 108336792.502 8  84418293.66346  20615810.117                    20615816.738
 11  7 26 17 56  0.0000000  0 10G06G10G08G28G16G03G07G19G13G23
 119832794.243 7  93376232.55145  22803423.586                    22803433.301
 125641761.020 6  97902748.18343  23908841.250                    23908852.590
 126017873.515 7  98195683.17544  23980372.102                    23980382.090
 129456857.554 6 100875377.32242  24634786.539                    24634799.953
 123340691.053 6  96109644.81844  23470957.828                    23470966.527
 110878256.609 8  86398669.14445  21099429.875                    21099438.535
 115515097.814 7                  21981792.602
 110809883.900 7  86345345.09346  21086395.906                    21086402.957
 105266578.510 7  82025926.49846  20031564.453                    20031572.211
 108398392.026 8  84466293.23846  20627532.195                    20627538.996
 11  7 26 17 56 30.0000000  0 10G06G10G08G28G16G03G07G19G13G23
 119898586.356 7  93427499.11644  22815943.430                    22815953.035
 125663734.639 6  97919870.42443  23913023.445                    23913034.344
 125948099.528 7  98141313.89543  23967094.750                    23967103.926
 129382329.905 6 100817303.89842  24620605.016                    24620617.191
 123431974.483 6  96180774.71944  23488328.313                    23488337.430
 110922542.483 8  86433177.60545  21107857.500                    21107866.227
 115459011.845 7                  21971120.102
 110779708.193 7  86321831.57746  21080653.930                    21080661.047
 105268315.563 7  82027280.02046  20031895.016                    20031902.906
 108460499.652 8  84514688.73546  20639351.086                    20639357.945
 11  7 26 17 57  0.0000000  0 10G06G10G08G28G16G03G07G19G13G23
 119964811.690 7  93479103.25244  22828545.781                    22828555.555
 125686143.949 6  97937332.14443  23917287.586                    23917298.750
 125878270.435 7  98086901.67344  23953806.500                    23953816.168
 129308007.681 6 100759390.61043  24606460.969                    24606474.398
 123523263.331 6  96251908.83943  23505700.422                    23505708.934
 110967410.454 8  86468139.64645  21116395.547                    21116404.211
 115402982.274 7                  21960457.898
 110750113.367 7  86298770.70746  21075022.070                    21075029.063
 105270640.188 7  82029091.39746  20032337.359                    20032345.301
 108523113.757 8  84563478.89746  20651265.617                    20651272.953
 11  7 26 17 57 30.0000000  0 10G06G10G08G28G16G03G07G19G13G23
 120031468.410 7  93531043.51944  22841229.625                    22841239.402
 125708987.425 6  97955132.22643  23921634.875                    23921645.527
 125808386.888 7  98032447.01743  23940508.203                    23940517.809
 129233891.577 6 100701637.92443  24592357.828                    24592370.426
 123614556.440 6  96323046.26444  23523073.109                    23523081.344
 111012859.667 8  86503554.60945  21125043.703                    21125052.977
 115347010.518 7                  21949807.109
 110721101.530 7  86276164.10246  21069501.531                    21069508.270
 105273553.860 8  82031361.76646  20032892.117                    20032899.906
 108586233.044 8  84612662.70146  20663277.313                    20663284.285
 11  7 26 17 58  0.0000000  0 10G06G10G08G28G16G03G07G19G13G23
 120098554.592 7  93583318.44244  22853996.367                    22854005.781
 125732263.072 6  97973269.01044  23926063.773                    23926074.488
 125738449.008 7  97977950.01743  23927199.961                    23927208.891
 129159982.191 6 100644046.34343  24578292.703                    24578305.258
 123705852.392 6  96394185.92643  23540445.641                    23540454.563
 111058888.318 8  86539421.07845  21133802.797                    21133811.988
 115291097.502 7                  21939167.219
 110692674.077 7  86254012.86546  21064091.672                    21064098.488
 105277057.324 8  82034091.71646  20033558.648                    20033566.473
 108649855.770 8  84662238.80046  20675384.242                    20675391.094
 11  7 26 17 58 30.0000000  0 10G06G10G08G28G16G03G07G19G13G23
 120166067.814 7  93635926.11144  22866843.961                    22866853.074
 125755969.188 6  97991741.26143  23930575.117                    23930586.133
 125668456.906 6  97923410.76843  23913880.242                    23913889.957
 129086279.837 6 100586616.04943  24564267.586                    24564280.086
 123797149.156 6  96465326.21743  23557819.039                    23557827.613
 111105494.605 8  86575737.65445  21142672.234                    21142681.121
 115235243.416 7                  21928538.180
 110664831.958 7  86232317.73046  21058793.500                    21058800.250
 105281150.914 8  82037281.50346  20034337.906                    20034345.840
 108713980.354 8  84712205.95146  20687586.891                    20687593.605
 11  7 26 17 59  0.0000000  0 10G06G10G08G28G16G03G07G19G13G23
 120234005.426 6  93688864.47644  22879771.609                    22879780.859
 125780103.656 6  98010547.28343  23935168.070                    23935178.598
 125598410.482 6  97868829.17743  23900550.219                    23900560.336
 129012784.611 6 100529347.10443  24550281.242                    24550294.152
 123888444.776 6  96536465.62943  23575192.305                    23575200.344
 111152676.171 8  86612502.49545  21151650.250                    21151659.141
 115179448.901 7                  21917920.664
 110637576.593 7  86211079.81146  21053606.664                    21053614.145
 105285834.547 8  82040931.05946  20035228.938                    20035236.477
 108778604.429 8  84762562.32246  20699884.398                    20699891.426
 11  7 26 17 59 30.0000000  0 10G06G10G08G28G16G03G07G19G13G23
 120302365.899 6  93742132.35844  22892780.023                    22892789.375
 125804664.792 6  98029685.77743  23939841.641                    23939852.141
 125528310.044 7  97814205.53143  23887210.875                    23887220.809
 128939497.276 6 100472240.18543  24536335.578                    24536348.395
 123979738.052 7  96607603.19944  23592564.266                    23592572.934
 111200432.060 8  86649714.86845  21160737.734                    21160746.547
 115123715.288 7                  21907315.227
 110610909.736 7  86190300.46546  21048532.305                    21048539.246
 105291109.417 8  82045041.32646  20036232.219                    20036240.473
 108843727.024 8  84813307.14146  20712277.031                    20712283.637
 11  7 26 18  0  0.0000000  0 10G06G10G08G28G16G03G07G19G13G23
 120371146.954 7  93795727.93844  22905868.695                    22905878.352
 125829650.778 6  98049155.29943  23944596.094                    23944606.996
 125458155.940 6  97759540.02243  23873860.297                    23873870.676
 128866418.150 6 100415295.53943  24522428.750                    24522441.613
 124071027.473 6  96678737.77443  23609936.328                    23609944.730
 111248760.157 8  86687373.11045  21169934.609                    21169943.125
 115068043.443 7                  21896721.023
 110584832.791 7  86169980.79546  21043569.914                    21043577.176
 105296975.862 7  82049612.55446  20037348.742                    20037356.711
 108909346.464 8  84864439.10446  20724764.016                    20724771.027
 11  7 26 18  0 30.0000000  0 11G06G10G08G28G16G11G03G07G19G13G23
 120440346.283 6  93849649.46244  22919037.031                    22919046.504
 125855059.186 6  98068954.00143  23949430.727                    23949441.965
 125387948.208 7  97704832.74743  23860500.930                    23860510.465
 128793547.628 6 100358513.43243  24508562.883                    24508574.680
 124162311.232 7  96749867.93543  23627306.789                    23627315.797
 129988243.69616 101289623.70953  24735946.695                    24735961.059
 111297658.843 8  86725475.96145  21179239.547                    21179248.391
 115012434.158 7                  21886139.188
 110559347.082 7  86150121.81546  21038720.141                    21038727.289
 105303434.358 7  82054645.12946  20038577.922                    20038586.309
 108975460.615 8  84915956.56346  20737345.227                    20737352.039
 11  7 26 18  1  0.0000000  0 11G06G10G08G28G16G11G03G07G19G13G23
 120509961.612 7  93903895.15644  22932284.234                    22932294.340
 125880888.396 6  98089080.59443  23954346.422                    23954357.055
 125317686.903 7  97650083.72743  23847130.594                    23847140.621
 128720886.054 6 100301894.15943  24494735.625                    24494747.633
 124253587.831 7  96820992.53643  23644676.883                    23644685.426
 129911618.559 6 101229915.94043  24721365.516                    24721379.332
 111347126.063 8  86764021.83445  21188653.008                    21188661.875
 114956888.178 7                  21875568.852
 110534453.562 7  86130724.30146  21033983.328                    21033990.441
 105310485.363 8  82060139.39646  20039919.539                    20039927.734
 109042068.147 8  84967858.47346  20750019.984                    20750026.875
 11  7 26 18  1 30.0000000  0 11G06G10G08G28G16G11G03G07G19G13G23
 120579990.977 7  93958463.45944  22945610.336                    22945619.793
 125907136.698 6  98109533.74843  23959341.859                    23959352.531
 125247372.169 7  97595293.08044  23833750.078                    23833759.723
 128648433.906 6 100245438.07343  24480948.086                    24480960.441
 124344855.487 7  96892110.14344  23662044.289                    23662052.941
 129834859.575 7 101170103.88243  24706758.813                    24706772.398
 111397159.978 8  86803009.28745  21198174.336                    21198182.910
 114901406.395 7                  21865011.398
 110510153.531 7  86111789.24046  21029359.109                    21029366.148
 105318129.256 7  82066095.65546  20041374.289                    20041382.582
 109109167.221 8  85020143.39746  20762788.625                    20762795.594
 11  7 26 18  2  0.0000000  0 11G06G10G08G28G16G11G03G07G19G13G23
 120650432.321 7  94013352.77944  22959015.461                    22959024.711
 125933802.192 6  98130311.97843  23964416.258                    23964426.246
 125177004.317 7  97540461.02643  23820359.445                    23820369.441
 128576191.804 6 100189145.65343  24467200.133                    24467213.465
 124436113.245 7  96963220.02844  23679410.250                    23679418.461
 129757969.129 7 101110189.40043  24692126.453                    24692140.777
 111447758.899 7  86842437.01245  21207802.609                    21207811.551
 114845989.989 7                  21854465.977
 110486448.622 7  86093317.90546  21024847.852                    21024855.207
 105326366.943 8  82072514.60946  20042942.031                    20042949.887
 109176756.405 8  85072810.22946  20775650.219                    20775657.234
 11  7 26 18  2 30.0000000  0 11G06G10G08G28G16G11G03G07G19G13G23
 120721283.289 6  94068561.30344  22972497.695                    22972507.250
 125960882.686 6  98151413.60643  23969569.609                    23969580.277
 125106583.616 7  97485587.79144  23806959.250                    23806968.262
 128504159.980 6 100133017.06743  24453493.141                    24453506.004
 124527359.266 6  97034320.80344  23696773.461                    23696782.191
 129680949.319 6 101050174.13043  24677469.914                    24677483.871
 111498921.037 8  86882303.60745  21217538.695                    21217548.117
 114790639.743 7                  21843932.734
 110463339.959 7  86075311.18246  21020450.820                    21020457.730
 105335198.410 7  82079396.25346  20044622.398                    20044630.750
 109244833.408 8  85125857.17046  20788604.922                    20788612.008
 11  7 26 18  3  0.0000000  0 11G06G10G08G28G16G11G03G07G19G13G23
 120792541.493 7  94124087.15444  22986057.328                    22986066.992
 125988376.410 6  98172837.21643  23974801.266                    23974811.941
 125036110.325 7  97430673.55844  23793548.594                    23793558.262
 128432338.751 6 100077052.60343  24439826.055                    24439837.988
 124618592.129 6  97105411.28743  23714134.297                    23714142.879
 129603802.579 6 100990059.89943  24662788.984                    24662803.098
 111550644.817 7  86922607.84645  21227381.094                    21227390.609
 114735356.219 7                  21833412.852
 110440828.741 7  86057769.99846  21016166.992                    21016174.129
 105344624.071 8  82086740.89646  20046416.422                    20046424.301
 109313396.660 8  85179283.00746  20801652.250                    20801659.914
 11  7 26 18  3 30.0000000  0 11G06G10G08G28G16G11G03G07G19G13G23
 120864204.891 7  94179928.73944  22999694.313                    22999704.395
 126016281.381 6  98194581.29443  23980111.547                    23980121.926
 124965584.757 6  97375718.62644  23780127.398                    23780137.641
 128360728.437 6 100021252.51643  24426198.203                    24426210.820
 124709810.333 6  97176490.33543  23731493.102                    23731501.238
 129526531.335 6 100929848.71643  24648084.836                    24648098.887
 111602927.770 8  86963347.80145  21237330.055                    21237339.590
 114680140.686 7                  21822905.609
 110418915.966 7  86040695.12446  21011996.930                    21012004.398
 105354644.335 8  82094548.87246  20048322.773                    20048331.270
 109382444.275 8  85233086.28346  20814791.836                    20814798.617
 11  7 26 18  4  0.0000000  0 11G06G10G08G28G16G11G03G07G19G13G23
 120936271.143 7  94236084.23844  23013408.445                    23013417.352
 126044595.664 6  98216644.31443  23985498.836                    23985510.000
 124895007.033 7  97320723.02243  23766696.852                    23766707.227
 128289329.511 6  99965617.11243  24412611.141                    24412623.781
 124801012.245 6  97247556.72743  23748848.484                    23748856.203
 129449137.797 6 100869542.21743  24633358.000                    24633370.934
 111655768.049 8  87004522.03345  21247385.586                    21247394.434
 114624993.838 8                  21812411.336
 110397602.987 7  86024087.63846  21007941.383                    21007947.934
 105365259.469 7  82102820.38046  20050343.398                    20050351.203
 109451974.397 8  85287265.52646  20828022.898                    20828029.738
 11  7 26 18  4 30.0000000  0 11G06G10G08G28G16G11G03G07G19G13G23
 121008737.889 7  94292551.80344  23027198.164                    23027207.703
 126073317.051 6  98239024.54343  23990964.922                    23990975.895
 124824377.528 7  97265687.09243  23753256.648                    23753266.918
 128218142.174 6  99910146.56542  24399065.336                    24399077.133
 124892196.295 6  97318609.17143  23766199.914                    23766208.160
 129371624.353 6 100809142.25942  24618606.344                    24618620.367
 111709163.703 8  87046129.02545  21257546.211                    21257555.539
 114569916.791 8                  21801930.508
 110376890.832 8  86007948.31046  21003999.992                    21004006.645
 105376469.658 8  82111555.57646  20052476.055                    20052484.078
 109521985.155 8  85341819.29546  20841345.438                    20841352.676
 11  7 26 18  5  0.0000000  0 11G06G10G08G28G16G11G03G07G19G13G23
 121081603.125 7  94349329.88844  23041064.359                    23041073.898
 126102443.444 6  98261720.35044  23996508.078                    23996518.453
 124753696.258 7  97210610.82744  23739806.633                    23739816.699
 128147167.033 6  99854841.36842  24385558.688                    24385571.305
 124983361.232 6  97389646.72343  23783548.141                    23783555.676
 129293993.809 6 100748651.05342  24603834.203                    24603847.590
 111763112.712 8  87088167.20245  21267812.773                    21267821.887
 114514910.538 8                  21791463.484
 110356780.804 8  85992278.17946  21000173.102                    21000180.012
 105388275.367 8  82120754.80746  20054722.969                    20054731.012
 109592474.956 8  85396746.33646  20854759.445                    20854766.328
 11  7 26 18  5 30.0000000  0 11G06G10G08G28G16G11G03G07G19G13G23
 121154864.386 7  94406416.55144  23055004.891                    23055014.703
 126131972.812 6  98284730.19143  24002126.797                    24002137.215
 124682963.405 7  97155494.36244  23726346.102                    23726356.816
 128076404.097 6  99799701.53942  24372093.516                    24372105.457
 125074505.386 6  97460668.12843  23800892.570                    23800899.852
 129216248.252 6 100688070.23542  24589038.898                    24589053.656
 111817612.737 8  87130634.75045  21278183.438                    21278192.766
 114459976.019 8                  21781009.563
 110337273.709 7  85977077.86446  20996461.125                    20996467.848
 105400676.695 8  82130418.16546  20057082.672                    20057090.570
 109663441.663 8  85452045.00146  20868263.672                    20868271.031
 11  7 26 18  6  0.0000000  0 11G06G10G08G28G16G11G03G07G19G13G23
 121228519.151 7  94463809.85544  23069021.078                    23069030.754
 126161903.053 7  98308052.38743  24007822.211                    24007832.902
 124612179.629 7  97100338.21544  23712876.508                    23712886.273
 128005853.663 6  99744727.28442  24358667.867                    24358679.961
 125165627.217 7  97531672.10443  23818232.203                    23818240.055
 129138390.313 6 100627401.84942  24574223.914                    24574237.285
 111872662.218 7  87173530.43345  21288659.094                    21288668.496
 114405113.829 8                  21770569.648
 110318370.481 8  85962348.09046  20992863.586                    20992870.230
 105413673.632 8  82140545.62246  20059556.242                    20059563.961
 109734883.097 8  85507713.57846  20881859.016                    20881865.801
 11  7 26 18  6 30.0000000  0 11G06G10G08G28G16G11G03G07G19G13G23
 121302565.639 6  94521508.39544  23083112.102                    23083121.797
 126192232.456 6  98331685.63843  24013593.750                    24013604.898
 124541345.098 7  97045142.51144  23699397.219                    23699407.129
 127935516.097 6  99689918.90543  24345283.477                    24345295.594
 125256725.508 7  97602657.75643  23835567.602                    23835575.484
 129060422.347 6 100566647.67742  24559387.328                    24559400.129
 111928259.377 8  87216852.87345  21299238.820                    21299247.867
 114350325.325 8                  21760143.813
 110300072.622 8  85948090.04046  20989381.766                    20989388.906
 105427267.113 8  82151137.92546  20062143.117                    20062150.816
 109806797.858 8  85563750.97846  20895544.070                    20895550.840
 11  7 26 18  7  0.0000000  0 11G06G10G08G28G16G11G03G07G19G13G23
 121377001.147 7  94579510.04744  23097276.742                    23097285.930
 126222958.732 6  98355628.12343  24019441.039                    24019452.188
 124470459.558 7  96989907.08544  23685908.383                    23685917.848
 127865391.895 6  99635276.81343  24331938.781                    24331950.844
 125347798.917 6  97673624.03043  23852897.969                    23852906.285
 128982346.636 5 100505809.63742  24544528.766                    24544542.668
 111984401.532 7  87260599.99045  21309922.617                    21309931.578
 114295611.184 7                  21749732.180
 110282380.677 8  85934304.12846  20986014.703                    20986022.395
 105441456.569 8  82162194.61746  20064842.984                    20064850.973
 109879183.519 8  85620155.31946  20909318.719                    20909325.648
 11  7 26 18  7 30.0000000  0 11G06G10G08G28G16G11G03G07G19G13G23
 121451823.539 6  94637813.19144  23111515.102                    23111524.273
 126254079.383 6  98379877.90643  24025363.398                    24025373.824
 124399524.019 7  96934632.67644  23672410.063                    23672419.734
 127795481.172 6  99580801.04443  24318634.852                    24318646.855
 125438845.769 6  97744569.59143  23870223.719                    23870232.680
 128904165.73115 100444889.55751  24529651.469                    24529665.914
 112041087.050 8  87304770.50145  21320709.430                    21320718.648
 114240972.553 8                  21739334.516
 110265295.818 8  85920991.26746  20982764.141                    20982771.191
 105456242.209 8  82173715.87946  20067656.672                    20067664.387
 109952038.529 8  85676925.38746  20923182.234                    20923189.484
 11  7 26 18  8  0.0000000  0 11G06G10G08G28G16G11G03G07G19G13G23
 121527030.732 7  94696416.16944  23125826.313                    23125836.422
 126285593.093 6  98404433.94043  24031359.742                    24031370.793
 124328539.063 6  96879319.77344  23658901.344                    23658911.484
 127725784.563 6  99526492.13743  24305372.539                    24305383.988
 125529865.115 6  97815493.71343  23887544.258                    23887553.004
 128825882.25515                  24514754.633
 112098314.099 7  87349362.98545  21331599.352                    21331608.531
 114186410.871 8                  21728951.781
 110248819.629 8  85908152.69146  20979628.516                    20979635.625
 105471624.867 8  82185702.34446  20070583.844                    20070591.859
 110025361.099 8  85734059.79046  20937134.992                    20937142.258
 11  7 26 18  8 30.0000000  0 11G06G10G08G28G16G11G03G07G19G13G23
 121602619.995 6  94755316.86044  23140210.117                    23140220.551
 126317497.081 6  98429294.12243  24037431.391                    24037442.418
 124257504.207 7  96823967.98644  23645384.617                    23645393.867
 127656301.631 6  99472349.69443  24292150.031                    24292162.035
 125620854.950 6  97886394.83743  23904858.719                    23904868.066
 128747498.777 6 100322793.78052  24499838.594                    24499851.941
 112156079.818 7  87394375.21145  21342591.570                    21342600.984
 114131926.642 8                  21718583.742
 110232951.640 8  85895788.03746  20976609.391                    20976616.199
 105487603.912 8  82198153.52246  20073624.336                    20073632.637
 110099148.631 8  85791556.49046  20951176.570                    20951183.695
 11  7 26 18  9  0.0000000  0 11G06G10G08G28G16G11G03G07G19G13G23
 121678589.157 6  94814513.60444  23154667.055                    23154676.746
 126349789.156 6  98454456.68943  24043576.227                    24043587.512
 124186420.075 6  96768577.78444  23631856.969                    23631866.832
 127587032.987 6  99418374.24743  24278968.664                    24278980.680
 125711814.027 6  97957272.00943  23922167.891                    23922176.828
 128669017.430 6 100261639.62842  24484904.180                    24484917.637
 112214382.391 7  87439805.77545  21353686.352                    21353695.637
 114077520.899 8                  21708230.547
 110217693.365 8  85883898.48946  20973705.469                    20973712.422
 105504179.385 8  82211069.46046  20076778.773                    20076787.246
 110173399.527 8  85849414.25746  20965305.961                    20965313.191
 11  7 26 18  9 30.0000000  0 11G06G10G08G28G16G11G03G07G19G13G23
 121754935.687 7  94874004.37244  23169195.297                    23169204.836
 126382467.187 6  98479920.02443  24049794.555                    24049805.512
 124115287.109 7  96713149.51944  23618321.102                    23618330.082
 127517978.768 6  99364565.86943  24265828.008                    24265840.160
 125802741.452 6  98028124.48243  23939471.695                    23939479.988
 128590440.572 6 100200411.02543  24469951.172                    24469964.344
 112273219.745 7  87485653.04845  21364882.641                    21364891.848
 114023194.661 8                  21697892.508
 110203045.717 8  85872484.74646  20970918.227                    20970924.906
 105521351.494 8  82224450.29746  20080046.680                    20080054.645
 110248111.685 8  85907631.45146  20979523.297                    20979530.379
 11  7 26 18 10  0.0000000  0 11G06G10G08G28G16G11G03G07G19G13G23
 121831657.137 7  94933787.31544  23183795.297                    23183804.883
 126415529.036 6  98505682.41443  24056086.242                    24056097.168
 124044105.668 6  96657683.51144  23604775.281                    23604785.422
 127449139.222 6  99310924.79643  24252727.945                    24252739.691
 125893635.175 6  98098950.69943  23956767.375                    23956776.422
 128511770.909 6 100139110.11443  24454979.875                    24454994.410
 112332589.635 7  87531915.27545  21376180.055                    21376189.324
 113968948.830 8                  21687570.352
 110189009.382 8  85861547.35346  20968247.273                    20968253.762
 105539120.115 8  82238295.96046  20083427.961                    20083436.426
 110323282.740 8  85966206.23246  20993828.078                    20993835.738
 11  7 26 18 10 30.0000000  0 11G06G10G08G28G16G11G03G07G19G13G23
 121908751.556 6  94993860.85944  23198465.672                    23198475.199
 126448972.511 6  98531742.17943  24062450.398                    24062461.484
 123972875.883 6  96602179.82543  23591220.984                    23591230.316
 127380514.630 6  99257451.27643  24239669.164                    24239680.699
 125984494.086 6  98169749.80343  23974058.000                    23974066.367
 128433010.949 6 100077738.81343  24439993.578                    24440007.117
 112392490.088 7  87578590.93345  21387579.109                    21387588.180
 113914784.775 8                  21677263.203
 110175585.223 7  85851086.96746  20965692.617                    20965699.801
 105557485.153 7  82252606.35346  20086922.477                    20086930.688
 110398910.662 8  86025137.01346  21008219.430                    21008226.773
 11  7 26 18 11  0.0000000  0 11G06G10G08G28G16G11G03G07G19G13G23
 121986216.163 7  95054222.85644  23213206.594                    23213216.129
 126482795.589 6  98558097.73343  24068887.328                    24068897.848
 123901598.091 7  96546638.72344  23577657.531                    23577666.727
 127312105.049 6  99204145.26443  24226651.375                    24226662.859
 126075316.960 6  98240520.81043  23991340.461                    23991349.766
 128354163.070 6 100016299.05443  24424989.336                    24425002.934
 112452918.412 7  87625677.91945  21399078.758                    21399087.137
 113860703.512 8                  21666971.555
 110162773.784 8  85841104.03246  20963254.742                    20963261.410
 105576446.637 8  82267381.51446  20090530.922                    20090539.078
 110474993.717 8  86084422.43146  21022697.500                    21022704.859
 11  7 26 18 11 30.0000000  0 11G06G10G08G28G16G11G03G07G19G13G23
 122064049.082 7  95114871.86044  23228018.094                    23228026.762
 126516996.213 6  98584747.49143  24075395.008                    24075405.969
 123830272.987 6  96491060.76444  23564083.984                    23564093.852
 127243911.055 6  99151007.26243  24213674.148                    24213685.699
 126166102.534 6  98311262.78043  24008616.641                    24008625.711
 128275229.914 7  99954792.79443  24409968.250                    24409982.113
 112513872.877 7  87673174.88445  21410677.758                    21410686.316
 113806706.287 8                  21656696.594
 110150576.418 8  85831599.60846  20960933.609                    20960940.406
 105596004.696 7  82282621.53746  20094252.844                    20094260.656
 110551529.747 8  86144060.82446  21037261.906                    21037269.594
 11  7 26 18 12  0.0000000  0 11G06G10G08G28G16G11G03G07G19G13G23
 122142247.450 7  95175805.63344  23242898.531                    23242908.035
 126551571.544 6  98611689.22743  24081974.727                    24081985.930
 123758900.450 6  96435445.83744  23550502.555                    23550512.141
 127175932.415 6  99098037.06543  24200737.750                    24200750.230
 126256849.323 7  98381974.51544  24025885.609                    24025894.266
 128196214.234 7  99893222.21643  24394932.406                    24394945.949
 112575351.066 7  87721079.94745  21422376.672                    21422385.234
 113752793.744 8                  21646437.180
 110138993.338 7  85822573.83146  20958729.594                    20958736.133
 105616158.925 7  82298326.10346  20098088.031                    20098096.270
 110628516.396 8  86204050.34646  21051912.234                    21051919.691
 11  7 26 18 12 30.0000000  0 11G06G10G08G28G16G11G03G07G19G13G23
 122220809.123 7  95237022.48444  23257848.031                    23257857.348
 126586519.475 6  98638921.29843  24088625.000                    24088635.918
 123687481.159 6  96379794.47043  23536912.094                    23536921.609
 127108169.777 6  99045235.21343  24187843.055                    24187855.359
 126347556.000 6  98452654.96843  24043146.195                    24043155.543
 128117118.619 7  99831589.39043  24379880.625                    24379894.273
 112637350.846 7  87769391.43845  21434174.633                    21434183.633
 113698967.130 8                  21636194.281
 110128025.102 7  85814027.16346  20956642.266                    20956648.934
 105636909.603 7  82314495.44146  20102036.766                    20102044.773
 110705951.829 8  86264389.57546  21066648.016                    21066655.094
 11  7 26 18 13  0.0000000  0 11G06G10G08G28G16G11G03G07G19G13G23
 122299731.478 6  95298520.41744  23272866.336                    23272876.258
 126621837.979 6  98666442.10843  24095345.688                    24095356.992
 123616015.615 6  96324107.06144  23523312.438                    23523321.867
 127040622.712 6  98992601.31043  24174989.164                    24175000.910
 126438221.258 6  98523303.17944  24060399.430                    24060408.629
 128037945.292 7  99769895.99044  24364814.508                    24364828.047
 112699869.672 7  87818107.38245  21446071.156                    21446081.031
 113645227.383 8                  21625967.930
 110117672.761 7  85805960.42446  20954672.570                    20954678.883
 105658256.097 8  82331129.04946  20106099.008                    20106106.789
 110783833.501 8  86325076.51546  21081467.844                    21081475.445
 11  7 26 18 13 30.0000000  0 11G06G10G08G28G16G11G03G07G19G13G23
 122379012.381 6  95360297.73543  23287952.656                    23287962.902
 126657524.915 6  98694250.03543  24102136.906                    24102148.445
 123544504.455 6  96268384.10544  23509704.266                    23509713.816
 126973291.659 6  98940135.73043  24162176.320                    24162188.238
 126528843.861 6  98593918.18443  24077644.578                    24077653.598
 127958697.098 7  99708144.27944  24349734.406                    24349747.559
 112762905.397 7  87867226.11345  21458066.742                    21458076.320
 113591575.980 8                  21615758.742
 110107936.720 7  85798373.90746  20952819.289                    20952825.879
 105680198.489 8  82348226.98446  20110274.422                    20110282.738
 110862159.643 8  86386109.79646  21096373.484                    21096380.340
 11  7 26 18 14  0.0000000  0 11G06G10G08G28G16G11G03G07G19G13G23
 122458649.221 6  95422352.39843  23303107.453                    23303117.355
 126693577.776 6  98722343.09043  24108998.000                    24109009.141
 123472947.512 7  96212625.50544  23496087.750                    23496097.223
 126906176.977 6  98887838.72343  24149404.680                    24149415.988
 126619422.690 6  98664499.05743  24094880.688                    24094890.234
 127879376.348 7  99646336.03044  24334640.195                    24334653.129
 112826456.012 7  87916746.05645  21470160.156                    21470169.227
 113538013.703 8                  21605566.109
 110098817.455 7  85791268.00246  20951084.211                    20951090.930
 105702736.462 8  82365789.01546  20114562.727                    20114570.910
 110940927.937 8  86447487.61246  21111362.336                    21111370.043
 11  7 26 18 14 30.0000000  0 11G06G10G08G28G16G11G03G07G19G13G23
 122538639.782 6  95484682.69444  23318329.164                    23318339.227
 126729994.376 6  98750719.59243  24115927.930                    24115938.648
 123401345.638 7  96156831.88344  23482462.172                    23482471.582
 126839278.674 6  98835710.35443  24136674.078                    24136686.207
 126709956.539 6  98735044.85843  24112109.305                    24112117.660
 127799985.604 7  99584473.22643  24319532.492                    24319545.680
 112890518.705 7  87966665.01745  21482351.055                    21482360.617
 113484542.008 8                  21595390.836
 110090315.678 7  85784643.25546  20949466.539                    20949472.910
 105725870.015 8  82383815.12646  20118965.688                    20118973.828
 111020136.380 8  86509208.40046  21126435.547                    21126443.324
 11  7 26 18 15  0.0000000  0 11G06G10G08G28G16G11G03G07G19G13G23
 122618981.551 6  95547286.65544  23333617.492                    23333627.773
 126766772.180 6  98779377.51943  24122926.891                    24122936.980
 123329699.089 7  96101003.44244  23468828.984                    23468837.652
 126772596.816 6  98783750.60343  24123984.492                    24123996.906
 126800443.917 6  98805554.46143  24129328.000                    24129336.582
 127720527.690 7  99522558.10343  24304412.445                    24304425.383
 112955091.586 7  88016981.52345  21494638.531                    21494648.531
 113431161.768 8                  21585232.641
 110082431.894 7  85778500.06246  20947965.891                    20947972.762
 105749598.675 8  82402304.96946  20123480.844                    20123488.945
 111099782.613 8  86571270.32745  21141591.680                    21141599.137
 11  7 26 18 15 30.0000000  0 11G06G10G08G28G16G11G03G07G19G13G23
 122699672.081 6  95610162.36544  23348972.594                    23348982.410
 126803908.896 6  98808315.12143  24129993.203                    24130004.063
 123258008.573 7  96045140.74344  23455185.984                    23455196.117
 126706131.551 6  98731959.63443  24111336.695                    24111348.570
 126890883.580 6  98876026.89843  24146538.203                    24146546.621
 127641005.114 6  99460592.57643  24289278.898                    24289292.852
 113020172.010 7  88067693.51945  21507023.336                    21507032.609
 113377874.065 8                  21575092.641
 110075166.651 7  85772838.84546  20946583.648                    20946590.395
 105773922.174 8  82421258.31646  20128109.438                    20128117.422
 111179864.440 8  86633671.67746  21156830.672                    21156837.945
 11  7 26 18 16  0.0000000  0 11G06G10G08G28G16G11G03G07G19G13G23
 122780708.933 7  95673307.93844  23364394.070                    23364403.809
 126841402.400 6  98837530.75443  24137128.563                    24137139.309
 123186274.474 7  95989244.06244  23441534.773                    23441544.875
 126639883.112 6  98680337.62143  24098730.000                    24098741.563
 126981274.545 6  98946461.35543  24163738.938                    24163747.941
 127561420.663 6  99398578.81443  24274134.508                    24274147.391
 113085757.485 7  88118799.05145  21519503.883                    21519513.414
 113324680.306 8                  21564969.617
 110068520.537 8  85767660.05946  20945318.703                    20945325.180
 105798840.482 8  82440675.15046  20132851.070                    20132859.656
 111260379.986 8  86696410.98346  21172152.281                    21172160.105
 11  7 26 18 16 30.0000000  0 11G06G10G08G28G16G11G03G07G19G13G23
 122862089.685 6  95736721.48644  23379880.578                    23379889.500
 126879250.195 6  98867022.44243  24144331.031                    24144341.395
 123114497.371 7  95933313.86844  23427876.539                    23427886.234
 126573851.351 6  98628884.43343  24086165.023                    24086176.047
 127071615.352 6  99016856.74943  24180930.109                    24180939.176
 127481776.746 6  99336518.74643  24258978.344                    24258991.652
 113151845.995 7  88170296.57545  21532080.328                    21532089.230
 113271581.677 8                  21554865.625
 110062493.799 7  85762963.91546  20944172.227                    20944178.918
 105824352.911 8  82460554.94046  20137706.148                    20137714.375
 111341326.610 8  86759486.19445  21187556.383                    21187563.559
 11  7 26 18 17  0.0000000  0 11G06G10G08G28G16G11G03G07G19G13G23
 122943811.792 6  95800401.02844  23395431.875                    23395440.887
 126917449.773 6  98896788.26743  24151599.813                    24151611.238
 123042677.545 7  95877350.41944  23414210.195                    23414219.125
 126508036.479 6  98577600.24043  24073640.859                    24073652.152
 127161904.921 6  99087212.22043  24198112.211                    24198121.125
 127402076.115 6  99274414.47443  24243811.578                    24243824.941
 113218435.216 7  88222184.25245  21544751.945                    21544761.215
 113218579.196 8                  21544779.344
 110057087.136 7  85758750.93946  20943143.109                    20943150.090
 105850459.224 8  82480897.49646  20142674.313                    20142682.234
 111422701.917 8  86822895.44645  21203041.133                    21203048.863
 11  7 26 18 17 30.0000000  0 11G06G10G08G28G16G11G03G07G19G13G23
 123025872.697 6  95864344.55644  23411047.148                    23411056.559
 126955999.014 6  98926826.56243  24158935.453                    24158946.457
 122970815.307 7  95821353.89144  23400534.523                    23400544.359
 126442438.398 6  98526484.99243  24061157.578                    24061169.004
 127252142.181 6  99157526.92443  24215283.313                    24215292.258
 127322321.286 6  99212268.00842  24228634.570                    24228648.016
 113285522.228 7  88274459.81845  21557517.891                    21557526.355
 113165673.723 8                  21534712.109
 110052300.374 8  85755021.00146  20942231.945                    20942238.867
 105877158.563 8  82501702.15646  20147754.664                    20147762.941
 111504503.477 8  86886636.84946  21218607.664                    21218614.977
 11  7 26 18 18  0.0000000  0 11G06G10G08G28G16G11G03G07G19G13G23
 123108270.309 7  95928550.44044  23426726.266                    23426735.957
 126994895.657 6  98957135.50643  24166337.617                    24166348.684
 122898911.498 7  95765324.98644  23386851.953                    23386861.605
 126377057.592 6  98475539.01143  24048715.945                    24048727.750
 127342325.691 6  99227799.75043  24232444.711                    24232453.559
 127242514.997 6  99150081.38742  24213448.438                    24213461.910
 113353104.940 7  88327121.65045  21570378.461                    21570387.465
 113112866.909 8                  21524662.977
 110048134.126 7  85751774.58346  20941439.375                    20941446.059
 105904451.127 7  82522969.05946  20152948.367                    20152956.145
 111586729.353 8  86950708.87746  21234254.703                    21234262.152
 11  7 26 18 18 30.0000000  0 11G06G10G08G28G16G11G03G07G19G13G23
 123191002.144 6  95993016.76444  23442469.602                    23442479.629
 127034137.262 6  98987713.31643  24173804.930                    24173816.191
 122826966.832 7  95709264.22944  23373162.102                    23373170.969
 126311894.068 6  98424762.36243  24036316.102                    24036326.621
 127432454.573 6  99298029.98943  24249596.328                    24249604.344
 127162659.729 6  99087856.69042  24198252.008                    24198265.641
 113421181.066 7  88380167.96245  21583332.820                    21583342.246
 113060159.993 8                  21514633.219
 110044589.012 7  85749012.16646  20940764.852                    20940771.766
 105932336.483 8  82544697.87846  20158254.711                    20158262.883
 111669377.283 8  87015109.76946  21249982.219                    21249989.836
 11  7 26 18 19  0.0000000  0 11G06G10G08G28G16G11G03G07G19G13G23
 123274065.406 7  96057741.37144  23458276.336                    23458286.168
 127073721.277 6  99018557.89543  24181337.281                    24181348.438
 122754981.078 7  95653171.45244  23359463.086                    23359472.559
 126246947.515 6  98374154.74343  24023956.836                    24023967.363
 127522527.224 6  99368216.43643  24266735.852                    24266744.629
 127082758.127 5  99025595.84342  24183047.461                    24183060.430
 113489748.046 7  88433596.75445  21596380.844                    21596389.547
 113007553.818 8                  21504622.414
 110041665.135 8  85746733.83146  20940208.672                    20940215.441
 105960813.765 7  82566887.93546  20163673.961                    20163681.789
 111752445.253 8  87079837.98146  21265789.750                    21265797.656
 11  7 26 18 19 30.0000000  0 11G06G10G08G28G16G11G03G07G19G13G23
 123357457.845 7  96122722.45144  23474144.922                    23474155.035
 127113645.498 6  99049667.59243  24188934.859                    24188945.871
 122682955.184 7  95597047.41244  23345756.469                    23345766.191
 126182218.228 6  98323716.46343  24011638.531                    24011650.086
 127612543.061 6  99438358.60443  24283866.188                    24283874.148
 127002813.102 6  98963301.13642  24167834.508                    24167847.266
 113558803.474 7  88487406.16445  21609521.352                    21609530.801
 112955050.033 8                  21494631.430
 110039362.783 8  85744939.79946  20939770.648                    20939776.973
 105989882.854 7  82589539.14846  20169205.266                    20169213.918
 111835930.677 8  87144891.46446  21281676.773                    21281684.316
 11  7 26 18 20  0.0000000  0 11G06G10G08G28G16G11G03G07G19G13G23
 123441176.944 6  96187958.08144  23490076.578                    23490086.590
 127153907.149 6  99081040.19443  24196596.617                    24196607.352
 122610889.727 7  95540892.54644  23332043.688                    23332052.934
 126117706.041 6  98273447.33343  23999362.891                    23999374.027
 127702500.390 6  99508455.20443  24300984.148                    24300993.078
 126922827.228 6  98900974.56642  24152612.836                    24152626.309
 113628344.768 7  88541594.17545  21622754.602                    21622763.805
 112902649.348 8                  21484659.891
 110037682.106 7  85743630.18846  20939450.242                    20939456.898
 106019542.836 8  82612650.78946  20174849.602                    20174857.840
 111919830.828 8  87210268.13145  21297642.242                    21297649.820
 11  7 26 18 20 30.0000000  0 11G06G10G08G28G16G11G03G07G19G13G23
 123525220.178 7  96253446.28444  23506069.320                    23506080.008
 127194503.801 6  99112673.85143  24204322.453                    24204333.285
 122538785.619 7  95484707.53744  23318322.141                    23318332.250
 126053411.291 6  98223347.61543  23987127.398                    23987138.711
 127792398.371 6  99578505.49843  24318091.219                    24318099.969
 126842803.075 6  98838618.21742  24137385.406                    24137397.680
 113698369.411 7  88596158.81145  21636079.859                    21636088.984
 112850353.465 7                  21474708.164
 110036623.488 7  85742805.30946  20939248.750                    20939255.574
 106049793.480 8  82636222.69546  20180606.063                    20180614.129
 112004143.943 8  87275966.57545  21313686.461                    21313693.980
 11  7 26 18 21  0.0000000  0 11G06G10G08G28G16G11G03G07G19G13G23
 123609585.003 7  96319185.09344  23522123.734                    23522134.012
 127235433.045 6  99144566.70743  24212110.430                    24212122.234
 122466643.284 7  95428492.75544  23304593.664                    23304603.375
 125989333.987 6  98173417.31543  23974934.367                    23974945.414
 127882235.634 6  99648508.54043  24335186.680                    24335195.816
 126762743.463 6  98776234.21643  24122150.305                    24122163.063
 113768874.939 7  88651098.17045  21649496.883                    21649506.082
 112798163.294 8                  21464776.773
 110036186.826 8  85742465.06046  20939165.813                    20939172.750
 106080634.128 8  82660254.34046  20186474.922                    20186483.438
 112088867.015 8  87341984.47245  21329808.930                    21329816.691
 11  7 26 18 21 30.0000000  0 11G06G10G08G28G16G11G03G07G19G13G23
 123694268.884 7  96385172.50643  23538238.750                    23538248.551
 127276692.503 6  99176716.83843  24219961.164                    24219973.020
 122394463.189 7  95372248.57344  23290858.359                    23290868.000
 125925473.835 6  98123656.28243  23962781.289                    23962792.793
 127972011.394 6  99718463.61043  24352270.859                    24352279.461
 126682650.880 6  98713824.51943  24106909.680                    24106921.438
 113839858.761 7  88706410.21845  21663004.305                    21663014.055
 112746080.111 8                  21454865.844
 110036372.410 7  85742609.69046  20939200.914                    20939208.027
 106112063.919 8  82684745.05546  20192455.563                    20192464.094
 112173997.898 8  87408320.14345  21346008.820                    21346016.566
 11  7 26 18 22  0.0000000  0 11G06G10G08G28G16G11G03G07G19G13G23
 123779269.463 7  96451406.68444  23554414.047                    23554423.527
 127318279.587 6  99209122.27543  24227875.594                    24227886.977
 122322245.445 7  95315975.02444  23277115.719                    23277125.449
 125861830.984 6  98074064.53043  23950670.609                    23950681.621
 128061724.399 6  99788369.81543  24369342.625                    24369351.184
 126602528.251 6  98651391.44143  24091661.898                    24091674.766
 113911318.263 7  88762092.93445  21676603.172                    21676611.934
 112694105.344 8                  21444975.328
 110037180.286 7  85743239.22746  20939354.625                    20939361.582
 106144082.487 8  82709694.55446  20198548.914                    20198557.094
 112259534.320 8  87474971.82345  21362285.836                    21362293.531
 11  7 26 18 22 30.0000000  0 11G06G10G08G28G16G11G03G07G19G13G23
 123864584.105 7  96517885.59543  23570649.234                    23570658.102
 127360191.757 6  99241780.99343  24235850.406                    24235863.016
 122249991.099 7  95259672.97544  23263365.977                    23263375.973
 125798405.137 6  98024641.87843  23938600.922                    23938612.480
 128151373.822 6  99858226.45743  24386402.219                    24386410.859
 126522378.194 6  98588936.97943  24076410.031                    24076422.488
 113983250.768 7  88818144.22345  21690290.820                    21690300.574
 112642240.173 8                  21435105.547
 110038610.647 8  85744353.80646  20939627.148                    20939633.855
 106176688.894 8  82735102.10946  20204753.672                    20204761.793
 112345473.715 8  87541937.49745  21378639.664                    21378647.000
 11  7 26 18 23  0.0000000  0 11G06G10G08G28G16G11G03G07G19G13G23
 123950210.255 7  96584607.26043  23586943.172                    23586952.090
 127402426.606 6  99274691.17443  24243888.547                    24243899.965
 122177700.786 7  95203342.88744  23249609.773                    23249619.516
 125735196.404 6  97975388.43843  23926572.727                    23926584.316
 128240958.025 6  99928032.26743  24403449.523                    24403458.648
 126442203.347 6  98526463.20443  24061153.133                    24061165.465
 114055653.971 7  88874562.28045  21704069.531                    21704078.137
 112590485.651 8                  21425257.234
 110040663.528 8  85745953.46346  20940017.750                    20940024.406
 106209882.431 8  82760967.17446  20211070.297                    20211078.414
 112431813.568 8  87609215.23045  21395069.563                    21395077.555
 11  7 26 18 23 30.0000000  0 11G06G10G08G28G16G11G03G07G19G13G23
 124036145.625 7  96651569.85944  23603296.031                    23603305.328
 127444981.821 6  99307850.98443  24251986.391                    24251998.461
 122105374.965 7  95146985.13744  23235846.453                    23235855.801
 125672205.050 6  97926304.31943  23914586.031                    23914597.125
 128330476.400 6  99997786.80343  24420483.789                    24420493.340
 126362006.727 6  98463972.44243  24045892.438                    24045904.754
 114128525.556 7  88931345.31745  21717935.422                    21717944.828
 112538843.233 8                  21415429.969
 110043338.988 8  85748038.25946  20940526.570                    20940533.797
 106243662.949 8  82787289.62546  20217498.297                    20217506.711
 112518551.789 8  87676803.36445  21411575.422                    21411583.180
 11  7 26 18 24  0.0000000  0 11G06G10G08G28G16G11G03G07G19G13G23
 124122387.454 7  96718771.27543  23619707.320                    23619716.098
 127487854.584 6  99341258.20043  24260145.055                    24260157.098
 122033014.163 7  95090600.13644  23222077.023                    23222086.563
 125609430.680 6  97877389.32143  23902640.211                    23902651.430
 128419927.489 6 100067488.87843  24437506.461                    24437515.078
 126281790.817 7  98401466.66843  24030627.328                    24030639.707
 114201862.656 7  88988491.09145  21731891.578                    21731900.930
 112487314.066 8                  21405623.977
 110046636.858 8  85750608.04546  20941154.172                    20941161.379
 106278029.114 8  82814068.41846  20224038.023                    20224046.586
 112605686.077 8  87744700.13045  21428156.734                    21428164.293
 11  7 26 18 24 30.0000000  0 11G06G10G08G28G16G11G03G07G19G13G23
 124208933.479 7  96786209.72044  23636176.000                    23636185.430
 127531042.565 6  99374911.08843  24268363.320                    24268375.164
 121960619.392 7  95034188.64944  23208300.695                    23208309.918
 125546873.643 6  97828643.71243  23890735.688                    23890747.309
 128509310.559 5 100137137.96243  24454515.977                    24454524.539
 126201558.235 7  98338947.88443  24015359.609                    24015371.922
 114275662.751 7  89045997.64545  21745935.602                    21745944.313
 112435899.753 8                  21395840.797
 110050557.509 8  85753663.11846  20941900.367                    20941907.098
 106312980.414 8  82841303.16646  20230688.750                    20230697.543
 112693213.548 8  87812903.26545  21444812.734                    21444820.676
 11  7 26 18 25  0.0000000  0 11G06G10G08G28G16G11G03G07G19G13G23
 124295781.171 6  96853883.22744  23652702.844                    23652712.141
 127574543.293 6  99408807.67443  24276641.477                    24276653.359
 121888191.045 7  94977751.00244  23194517.844                    23194527.293
 125484533.543 6  97780067.11143  23878872.773                    23878883.945
 128598624.734 6 100206733.38142  24471511.570                    24471520.457
 126121312.115 6  98276418.56443  24000089.039                    24000101.992
 114349923.227 7  89103862.93545  21760066.383                    21760075.738
 112384601.718 8                  21386079.117
 110055100.742 7  85757203.31846  20942764.609                    20942771.840
 106348516.052 7  82868993.23846  20237451.305                    20237459.406
 112781131.732 8  87881410.85145  21461543.133                    21461550.824
 11  7 26 18 25 30.0000000  0 11G06G10G08G28G16G11G03G07G19G13G23
 124382927.822 6  96921789.67844  23669286.375                    23669295.574
 127618353.862 6  99442945.67143  24284978.352                    24284990.309
 121815729.505 7  94921287.49044  23180728.492                    23180738.418
 125422410.403 6  97731659.58243  23867051.602                    23867062.023
 128687868.687 6 100276274.07043  24488494.109                    24488502.566
 126041055.123 6  98213880.78343  23984816.297                    23984829.008
 114424641.233 7  89162084.74645  21774284.906                    21774294.156
 112333420.934 8                  21376339.508
 110060266.174 7  85761228.34546  20943747.664                    20943754.625
 106384635.233 8  82897138.02046  20244324.352                    20244333.152
 112869438.249 8  87950221.04545  21478347.352                    21478354.887
 11  7 26 18 26  0.0000000  0 11G06G10G08G28G16G11G03G07G19G13G23
 124470370.949 7  96989927.14244  23685925.883                    23685935.469
 127662472.201 6  99477323.45143  24293374.625                    24293385.594
 121743235.989 7  94864799.06044  23166933.672                    23166943.074
 125360504.507 6  97683421.34143  23855271.031                    23855282.305
 128777041.578 6 100345759.32443  24505463.383                    24505472.207
 125960789.871 6  98151336.57143  23969543.156                    23969554.801
 114499814.314 7  89220661.13145  21788589.859                    21788599.293
 112282358.893 8                  21366622.617
 110066054.083 8  85765738.41446  20944849.383                    20944856.398
 106421337.171 8  82925736.89446  20251308.703                    20251317.152
 112958130.679 8  88019331.93845  21495225.086                    21495232.691
 11  7 26 18 26 30.0000000  0 11G06G10G08G28G16G11G03G07G19G13G23
 124558108.296 6  97058293.87344  23702621.977                    23702631.605
 127706895.532 6  99511938.92043  24301827.695                    24301839.238
 121670711.092 7  94808286.19644  23153133.086                    23153142.164
 125298815.308 6  97635351.95243  23843532.328                    23843543.074
 128866142.472 6 100415188.55643  24522418.266                    24522427.973
 125880519.091 6  98088788.05743  23954266.680                    23954279.938
 114575439.906 7  89279590.14745  21802981.125                    21802990.469
 112231417.106 7                  21356928.773
 110072464.250 7  85770733.36346  20946068.906                    20946075.992
 106458621.008 8  82954789.20146  20258403.609                    20258412.410
 113047206.597 8  88088741.66245  21512175.516                    21512183.484
 11  7 26 18 27  0.0000000  0 11G06G10G08G28G16G11G03G07G19G13G23
 124646136.909 6  97126887.55643  23719373.453                    23719382.645
 127751621.161 6  99546789.95643  24310338.492                    24310350.043
 121598155.434 7  94751749.32944  23139326.391                    23139335.043
 125237342.726 7  97587451.35343  23831833.781                    23831844.867
 128955170.105 6 100484560.70442  24539360.219                    24539368.211
 125800245.787 6  98026237.57243  23938991.484                    23939004.539
 114651515.256 7  89338869.61345  21817458.109                    21817467.270
 112180596.558 8                  21347257.656
 110079496.247 7  85776212.85646  20947407.016                    20947413.871
 106496485.727 8  82984294.14146  20265609.273                    20265617.641
 113136663.178 8  88158448.00545  21529198.852                    21529206.656
 11  7 26 18 27 30.0000000  0 11G06G10G08G28G16G11G03G07G19G13G23
 124734454.328 6  97195706.27344  23736179.625                    23736189.754
 127796646.778 6  99581874.73443  24318906.328                    24318919.234
 121525569.331 7  94695188.75444  23125513.117                    23125522.633
 125176086.441 6  97539719.29743  23820177.164                    23820187.957
 129044123.436 6 100553874.96142  24556286.977                    24556296.254
 125719972.315 6  97963686.98643  23923715.945                    23923728.809
 114728037.880 7  89398497.60045  21832019.469                    21832028.910
 112129898.587 8                  21337610.445
 110087149.984 7  85782176.81346  20948863.438                    20948870.223
 106534930.028 8  83014250.70646  20272924.852                    20272933.266
 113226497.879 8  88228448.98645  21546293.797                    21546301.504
 11  7 26 18 28  0.0000000  0 11G06G10G08G28G16G11G03G07G19G13G23
 124823058.074 6  97264748.09844  23753040.133                    23753050.762
 127841969.508 6  99617191.01343  24327531.414                    24327543.828
 121452953.706 7  94638605.16644  23111695.055                    23111704.168
 125115046.780 7  97492156.04443  23808561.781                    23808572.125
 129133001.779 6 100623130.73343  24573200.672                    24573208.727
 125639701.834 6  97901138.69743  23908440.234                    23908453.457
 114805005.134 7  89458472.05145  21846666.156                    21846675.320
 112079324.589 8                  21327986.547
 110095425.395 8  85788625.18946  20950438.523                    20950444.828
 106573953.221 8  83044658.35846  20280350.648                    20280359.281
 113316708.371 8  88298742.78645  21563460.164                    21563468.242
 11  7 26 18 28 30.0000000  0 11G06G10G08G28G16G11G03G07G19G13G23
 124911945.681 6  97334011.14044  23769955.813                    23769964.676
 127887586.819 6  99652736.85543  24336212.195                    24336224.262
 121380309.391 7  94581999.23744  23097870.602                    23097880.203
 125054223.409 6  97444761.30943  23796986.914                    23796997.797
 129221804.140 6 100692327.34243  24590098.977                    24590107.359
 125559437.235 6  97838595.00443  23893166.805                    23893179.637
 114882414.207 7  89518790.79044  21861396.852                    21861405.625
 112028876.245 8                  21318386.133
 110104322.056 8  85795557.66246  20952131.266                    20952137.848
 106613554.673 8  83075516.60846  20287886.398                    20287895.543
 113407292.098 7  88369327.43245  21580697.570                    21580705.270
 11  7 26 18 29  0.0000000  0 11G06G10G08G28G16G11G03G07G19G13G23
 125001114.577 6  97403493.38843  23786924.273                    23786934.105
 127933496.048 6  99688510.14343  24344949.039                    24344960.672
 121307637.129 7  94525371.53644  23084042.125                    23084051.328
 124993616.188 6  97397535.01143  23785453.641                    23785464.453
 129310529.660 6 100761464.08543  24606982.867                    24606991.168
 125479181.051 6  97776057.88943  23877893.625                    23877906.840
 114960262.189 7  89579451.52244  21876210.414                    21876219.316
 111978554.445 8                  21308810.531
 110113839.710 8  85802974.02346  20953942.133                    20953948.965
 106653733.145 8  83106824.47346  20295532.539                    20295541.090
 113498246.732 7  88440201.08745  21598006.000                    21598013.945
 11  7 26 18 29 30.0000000  0 11G06G10G08G28G16G11G03G07G19G13G23
 125090562.327 6  97473192.87343  23803945.133                    23803954.801
 127979694.715 6  99724508.99143  24353739.633                    24353752.199
 121234937.573 7  94468722.54144  23070207.773                    23070216.969
 124933225.162 6  97350477.17743  23773961.305                    23773972.227
 129399177.104 6 100830539.98043  24623852.094                    24623860.352
 125398936.384 6  97713529.70743  23862624.664                    23862636.738
 115038546.802 7  89640452.49344  21891107.461                    21891117.016
 111928360.709 8                  21299258.695
 110123978.181 8  85810874.14146  20955871.859                    20955879.004
 106694487.804 8  83138581.32846  20303287.750                    20303296.176
 113589569.213 8  88511361.37945  21615384.422                    21615391.680
 11  7 26 18 30  0.0000000  0 11G06G10G08G28G16G11G03G07G19G13G23
 125180286.344 6  97543107.67843  23821019.180                    23821028.789
 128026180.299 6  99760731.39743  24362585.758                    24362597.980
 121162211.678 7  94412053.04444  23056368.641                    23056377.766
 124873049.868 6  97303587.46943  23762511.164                    23762521.371
 129487745.840 6 100899554.52443  24640706.320                    24640715.035
 125318706.034 6  97651012.66543  23847357.586                    23847368.852
 115117265.442 7  89701791.66844  21906087.305                    21906096.504
 111878296.982 8                  21289732.117
 110134737.221 8  85819257.81546  20957919.484                    20957925.809
 106735817.443 8  83170786.20346  20311152.516                    20311161.309
 113681257.542 7  88582806.73545  21632831.906                    21632840.063
 11  7 26 18 30 30.0000000  0 11G06G10G08G28G16G11G03G07G19G13G23
 125270284.024 6  97613235.70743  23838144.742                    23838154.930
 128072949.997 6  99797175.16943  24371486.555                    24371498.145
 121089460.161 7  94355363.56944  23042524.406                    23042533.977
 124813090.805 6  97256866.22343  23751100.250                    23751111.895
 129576234.938 6 100968507.01943  24657544.969                    24657553.871
 125238492.527 6  97588508.75743  23832092.633                    23832104.637
 115196415.224 7  89763466.79644  21921148.984                    21921158.008
 111828364.346 7                  21280230.250
 110146116.297 8  85828124.64146  20960084.398                    20960091.324
 106777720.990 8  83203438.28746  20319126.477                    20319135.145
 113773308.876 8  88654534.95645  21650348.570                    21650356.969
 11  7 26 18 31  0.0000000  0 11G06G10G08G28G16G11G03G07G19G13G23
 125360552.753 6  97683574.94843  23855322.266                    23855332.207
 128120001.169 6  99833838.28743  24380439.273                    24380452.031
 121016683.806 7  94298654.74944  23028674.773                    23028684.992
 124753346.903 6  97210312.65843  23739731.633                    23739742.609
 129664643.287 6 101037396.58843  24674368.945                    24674377.918
 125158298.862 6  97526020.29343  23816832.672                    23816844.227
 115275993.265 7  89825475.63144  21936292.422                    21936301.090
 111778563.901 7                  21270753.445
 110158114.644 7  85837474.00146  20962368.148                    20962374.500
 106820197.353 8  83236536.71746  20327209.555                    20327218.320
 113865720.194 8  88726543.67845  21667934.039                    21667942.176
 11  7 26 18 31 30.0000000  0 11G06G10G08G28G16G11G03G07G19G13G23
 125451090.062 6  97754123.48443  23872551.086                    23872560.867
 128167331.153 6  99870718.68043  24389446.555                    24389458.395
 120943883.652 7  94241927.36844  23014821.281                    23014831.652
 124693818.471 6  97163926.95443  23728403.563                    23728414.430
 129752970.221 6 101106222.71943  24691176.711                    24691185.391
 125078127.968 7  97463549.54043  23801576.313                    23801587.641
 115355996.997 7  89887816.16445  21951516.766                    21951525.637
 111728897.340 7                  21261301.922
 110170732.317 7  85847305.96046  20964768.922                    20964775.602
 106863245.479 8  83270080.67946  20335401.227                    20335409.801
 113958489.167 8  88798831.09445  21685587.289                    21685595.418
 11  7 26 18 32  0.0000000  0 11G06G10G08G28G16G11G03G07G19G13G23
 125541893.429 7  97824879.29643  23889830.523                    23889840.340
 128214937.431 6  99907814.34043  24398505.109                    24398517.570
 120871059.842 7  94185181.57544  23000963.805                    23000973.730
 124634505.209 6  97117708.95143  23717116.664                    23717127.586
 129841214.864 6 101174984.70243  24707968.891                    24707978.430
 124997982.489 7  97401098.62643  23786325.234                    23786336.887
 115436422.954 7  89950485.71644  21966820.961                    21966830.066
 111679365.887 7                  21251876.617
 110183968.752 7  85857620.07546  20967287.820                    20967294.387
 106906864.255 8  83304069.30446  20343701.781                    20343710.574
 114051613.277 8  88871395.24045  21703308.633                    21703316.391
 11  7 26 18 32 30.0000000  0 11G06G10G08G28G16G11G03G07G19G13G23
 125632960.287 7  97895840.43843  23907159.547                    23907169.375
 128262817.334 6  99945123.20243  24407616.820                    24407628.648
 120798213.495 7  94128418.21044  22987101.859                    22987111.117
 124575406.976 6  97071658.49743  23705870.258                    23705881.211
 129929376.161 6 101243681.73943  24724745.797                    24724754.055
 124917865.551 7  97338669.96543  23771079.211                    23771091.582
 115517269.178 7  90013482.76345  21982205.617                    21982215.098
 111629971.261 8                  21242477.336
 110197823.471 8  85868415.97246  20969924.469                    20969930.965
 106951052.349 8  83338501.54346  20352110.492                    20352118.844
 114145089.978 8  88944234.12645  21721096.523                    21721104.508
 11  7 26 18 33  0.0000000  0 11G06G10G08G28G16G11G03G07G19G13G23
 125724288.179 6  97967005.00243  23924539.656                    23924548.645
 128310968.185 6  99982643.20443  24416779.680                    24416792.250
 120725345.497 7  94071637.97544  22973235.930                    22973244.980
 124516523.388 6  97025775.29844  23694664.984                    23694676.281
 130017453.339 6 101312313.23943  24741505.523                    24741515.523
 124837779.872 7  97276265.64343  23755839.234                    23755851.102
 115598533.005 7  90076805.21244  21997669.680                    21997678.688
 111580714.696 8                  21233103.891
 110212296.081 8  85879693.33846  20972677.953                    20972684.359
 106995808.773 8  83373376.65546  20360627.359                    20360635.863
 114238916.543 7  89017345.64045  21738951.141                    21738959.422
 11  7 26 18 33 30.0000000  0 11G06G10G08G28G16G11G03G07G19G13G23
 125815874.454 6  98038370.88143  23941966.773                    23941977.086
 128359387.251 6 100020372.21843  24425993.602                    24426006.387
 120652456.904 7  94014841.68844  22959365.266                    22959374.738
 124457854.591 7  96980059.43444  23683500.828                    23683511.793
 130105445.552 6 101380878.52743  24758250.719                    24758259.977
 124757728.084 7  97213887.72743  23740606.297                    23740618.090
 115680211.639 7  90140450.88544  22013212.680                    22013222.211
 111531597.680 8                  21223757.000
 110227386.055 8  85891451.76846  20975549.656                    20975556.336
 107041132.262 8  83408693.61746  20369252.008                    20369260.711
 114333090.291 8  89090727.68145  21756871.813                    21756880.227
 11  7 26 18 34  0.0000000  0 11G06G10G08G28G16G11G03G07G19G13G23
 125907716.738 6  98109936.22843  23959445.391                    23959454.105
 128408072.061 6 100058308.31543  24435258.492                    24435270.656
 120579548.577 7  93958030.03144  22945491.211                    22945500.988
 124399400.255 7  96934510.70544  23672377.328                    23672387.824
 130193352.022 6 101449376.94942  24774978.594                    24774987.352
 124677713.677 7  97151538.94043  23725380.305                    23725391.566
 115762302.285 7  90204417.61045  22028833.563                    22028843.371
 111482621.922 8                  21214437.648
 110243092.951 8  85903690.92446  20978538.078                    20978545.168
 107087021.839 8  83444451.69946  20377984.867                    20377993.207
 114427608.990 7  89164378.51045  21774858.383                    21774866.973
 11  7 26 18 34 30.0000000  0 11G06G10G08G28G16G11G03G07G19G13G23
 125999812.031 6  98181698.74643  23976970.008                    23976979.695
 128457020.071 6 100096449.47443  24444573.094                    24444585.430
 120506620.725 7  93901203.16144  22931613.508                    22931622.680
 124341159.876 7  96889128.68244  23661294.594                    23661304.895
 130281171.679 6 101517807.83142  24791690.227                    24791699.352
 124597738.851 7  97089220.99043  23710161.297                    23710172.781
 115844802.008 7  90268703.06945  22044533.180                    22044542.691
 111433788.649 8                  21205144.938
 110259415.460 8  85916409.77846  20981644.367                    20981651.457
 107133475.476 8  83480649.29346  20386824.875                    20386833.480
 114522469.278 8  89238295.51145  21792909.789                    21792918.125
 11  7 26 18 35  0.0000000  0 11G06G10G08G28G16G11G03G07G19G13G23
 126092158.300 6  98253656.82943  23994542.563                    23994552.207
 128506228.326 6 100134793.41443  24453937.477                    24453949.645
 120433674.838 7  93844362.22444  22917732.148                    22917741.551
 124283133.601 7  96843913.49144  23650252.711                    23650263.570
 130368904.042 6 101586170.61142  24808385.781                    24808394.496
 124517807.069 7  97026936.59844  23694950.086                    23694962.406
 115927707.877 7  90333305.01645  22060309.469                    22060318.555
 111385099.739 8                  21195879.609
 110276353.858 8  85929608.53846  20984868.344                    20984874.375
 107180492.580 8  83517285.96146  20395771.961                    20395780.398
 114617669.131 8  89312477.10345  21811026.109                    21811034.219
 11  7 26 18 35 30.0000000  0 11G06G10G08G28G16G11G03G07G19G13G23
 126184752.623 6  98325808.17944  24012163.039                    24012172.914
 128555694.128 6 100173338.03243  24463349.531                    24463362.414
 120360711.240 7  93787507.50144  22903847.688                    22903857.016
 124225320.883 7  96798864.69744  23639251.305                    23639261.363
 130456548.179 6 101654464.67142  24825063.391                    24825072.250
 124437920.873 7  96964687.74343  23679748.039                    23679760.145
 116011017.209 7  90398221.35844  22076162.586                    22076172.305
 111336555.953 8                  21186642.305
 110293906.953 8  85943286.28546  20988207.914                    20988214.566
 107228071.482 8  83554360.38546  20404825.984                    20404834.398
 114713205.176 8  89386920.68045  21829205.797                    21829213.988
 11  7 26 18 36  0.0000000  0 11G06G10G08G28G16G11G03G07G19G13G23
 126277592.592 6  98398150.99843  24029829.539                    24029839.848
 128605414.685 6 100212081.18243  24472812.211                    24472824.168
 120287731.365 7  93730640.08144  22889960.141                    22889969.160
 124167721.722 7  96753982.31544  23628290.109                    23628300.883
 130544103.318 6 101722689.44443  24841724.164                    24841733.898
 124358083.103 6  96902476.62144  23664555.719                    23664567.516
 116094727.408 7  90463450.06144  22092092.500                    22092101.672
 111288159.214 8                  21177432.773
 110312073.932 8  85957442.39246  20991665.336                    20991671.883
 107276210.974 8  83591871.63846  20413986.125                    20413994.852
 114809074.966 8  89461624.30745  21847449.594                    21847457.453
 11  7 26 18 36 30.0000000  0 11G06G10G08G28G16G11G03G07G19G13G23
 126370675.723 6  98470683.26043  24047542.578                    24047553.090
 128655387.305 6 100251020.74843  24482321.125                    24482334.043
 120214736.003 7  93673760.59944  22876069.672                    22876078.980
 124110335.508 7  96709265.89244  23617370.164                    23617380.277
 130631568.654 6 101790844.20342  24858368.758                    24858377.785
 124278296.990 6  96840305.74244  23649372.523                    23649385.449
 116178835.684 7  90528988.94544  22108097.672                    22108106.734
 111239911.114 8                  21168251.070
 110330854.613 8  85972076.70846  20995238.820                    20995245.531
 107324909.951 8  83629818.84446  20423253.438                    20423262.203
 114905276.011 8  89536586.06145  21865755.906                    21865764.422
 11  7 26 18 37  0.0000000  0 11G06G10G08G28G16G11G03G07G19G13G23
 126463999.276 6  98543402.86044  24065302.164                    24065311.898
 128705609.417 6 100290154.70643  24491878.234                    24491890.547
 120141725.824 7  93616869.56544  22862176.641                    22862185.645
 124053162.102 7  96664715.27244  23606490.047                    23606500.348
 130718943.393 6 101858928.34042  24874995.328                    24875004.809
 124198565.268 6  96778177.24144  23634199.797                    23634211.969
 116263338.955 7  90594835.62044  22124178.055                    22124187.320
 111191812.911 8                  21159098.477
 110350247.843 8  85987188.32646  20998929.461                    20998935.609
 107374166.543 8  83668200.56046  20432626.555                    20432635.156
 115001805.653 8  89611803.86445  21884125.055                    21884133.355
 11  7 26 18 37 30.0000000  0 10G06G10G08G28G11G03G07G19G13G23
 126557560.919 6  98616308.00843  24083106.039                    24083116.191
 128756078.274 6 100329480.88943  24501482.430                    24501495.332
 120068701.739 7  93559967.69844  22848280.547                    22848289.094
 123996201.472 7  96620330.45144  23595651.227                    23595661.215
 124118890.928 6  96716093.44943  23619038.797                    23619050.438
 116348234.600 7  90660988.04444  22140333.406                    22140342.328
 111143866.355 8                  21149974.344
 110370253.167 8  86002776.91046  21002736.305                    21002743.188
 107423979.743 8  83707015.99846  20442105.898                    20442114.535
 115098660.966 8  89687275.42845  21902556.023                    21902564.180
 11  7 26 18 38  0.0000000  0 10G06G10G08G28G11G03G07G19G13G23
 126651358.126 6  98689396.69843  24100954.734                    24100965.129
 128806791.08116 100368997.24153  24511132.781                    24511145.406
 119995665.002 7  93503055.99444  22834381.328                    22834390.805
 123939453.320 6  96576111.20544  23584852.117                    23584862.441
 124039276.898 7  96654056.65243  23603889.430                    23603900.277
 116433519.774 7  90727444.00144  22156562.922                    22156571.113
 111096072.833 8                  21140879.828
 110390869.957 8  86018841.95446  21006659.203                    21006666.242
 107474347.883 8  83746263.85046  20451690.711                    20451699.230
 115195839.616 7  89762998.94445  21921048.477                    21921056.902
 11  7 26 18 38 30.0000000  0 10G06G10G08G28G11G03G07G19G13G23
 126745387.951 6  98762666.66043  24118848.430                    24118858.809
 128857744.951 6 100408701.40143  24520829.516                    24520841.754
 119922616.215 7  93446134.88144  22820481.156                    22820490.258
 123882916.946 7  96532056.99043  23574093.742                    23574103.664
 123959725.748 6  96592068.86844  23588750.898                    23588762.652
 116519191.628 7  90794201.28644  22172864.820                    22172874.094
 111048433.509 8                  21131814.289
 110412096.829 8  86035382.38546  21010698.563                    21010705.516
 107525269.532 8  83785943.01046  20461381.203                    20461389.313
 115293338.426 7  89838971.93845  21939602.305                    21939610.637
 11  7 26 18 39  0.0000000  0 10G06G10G08G28G11G03G07G19G13G23
 126839648.062 6  98836116.06343  24136784.680                    24136795.398
 128908937.143 6 100448591.26243  24530570.977                    24530582.742
 119849556.743 7  93389205.45744  22806578.047                    22806587.629
 123826592.242 7  96488167.72143  23563374.656                    23563384.887
 123880240.805 6  96530132.67444  23573624.602                    23573636.656
 116605247.723 7  90861257.97044  22189240.594                    22189250.195
 111000950.400 8                  21122778.203
 110433933.191 8  86052397.75146  21014853.852                    21014860.973
 107576743.479 8  83826052.53646  20471176.195                    20471184.672
 115391154.823 8  89915192.40745  21958215.953                    21958224.301
 11  7 26 18 39 30.0000000  0 10G06G10G08G28G11G03G07G19G13G23
 126934136.077 6  98909743.04043  24154766.250                    24154775.875
 128960365.287 6 100488664.98843  24540356.961                    24540370.195
 119776487.233 7  93332268.19344  22792673.695                    22792682.816
 123770478.957 7  96444443.15544  23552696.875                    23552707.148
 123800824.960 7  96468250.31044  23558512.539                    23558524.336
 116691685.033 7  90928611.69444  22205689.539                    22205699.395
 110953625.052 8                  21113772.734
 110456378.414 8  86069887.54346  21019125.055                    21019131.910
 107628768.179 8  83866591.21746  20481076.258                    20481084.688
 115489285.994 7  89991658.15245  21976889.555                    21976898.164
 11  7 26 18 40  0.0000000  0 10G06G10G08G28G11G03G07G19G13G23
 127028849.296 6  98983545.48943  24172789.000                    24172799.398
 129012026.297 6 100528920.13643  24550189.258                    24550200.648
 119703408.751 7  93275323.94744  22778766.938                    22778776.594
 123714576.188 7  96400882.64343  23542058.820                    23542069.234
 123721481.260 7  96406424.15844  23543413.836                    23543425.176
 116778500.294 7  90996259.92544  22222209.969                    22222219.180
 110906458.894 8                  21104797.266
 110479431.187 8  86087850.75746  21023512.273                    21023518.656
 107681341.572 8  83907557.45546  20491080.539                    20491088.828
 115587729.215 7  90068367.05045  21995623.000                    21995631.457
 11  7 26 18 40 30.0000000  0 10G06G10G08G28G11G03G07G19G13G23
 127123784.964 6  99057521.28443  24190855.391                    24190865.094
 129063917.344 6 100569354.55643  24560062.883                    24560075.168
 119630322.026 7  93218373.29144  22764859.219                    22764868.891
 123658884.369 7  96357486.49344  23531460.914                    23531471.129
 123642212.219 7  96344656.21243  23528328.555                    23528340.820
 116865690.638 7  91064200.42944  22238802.383                    22238811.469
 110859453.349 8                  21095852.516
 110503090.713 8  86106286.75946  21028014.492                    21028021.164
 107734462.096 8  83948950.01946  20501188.906                    20501197.301
 115686481.842 8  90145317.04345  22014415.023                    22014423.531
 11  7 26 18 41  0.0000000  0 10G06G10G08G28G11G03G07G19G13G23
 127218940.969 6  99131668.79243  24208962.773                    24208972.238
 129116036.221 6 100609966.53243  24569980.547                    24569993.395
 119557228.631 7  93161417.41645  22750950.109                    22750959.020
 123603403.181 7  96314254.47943  23520903.352                    23520913.438
 123563021.070 6  96282948.93743  23513259.945                    23513270.852
 116953253.678 7  91132431.33644  22255464.281                    22255474.039
 110812610.248 8                  21086938.516
 110527356.477 8  86125195.15346  21032631.727                    21032638.777
 107788128.926 8  83990768.28246  20511401.539                    20511410.117
 115785540.936 7  90222505.83945  22033265.484                    22033273.988
 11  7 26 18 41 30.0000000  0 10G06G10G08G28G11G03G07G19G13G23
 127314314.360 6  99205985.66043  24227111.578                    24227121.371
 129168379.581 6 100650753.39443  24579941.828                    24579954.191
 119484129.088 7  93104456.77145  22737038.992                    22737048.598
 123548131.813 7  96271185.94644  23510385.414                    23510395.355
 123483910.774 7  96221304.64543  23498205.617                    23498217.043
 117041186.222 7  91200950.17144  22272197.305                    22272206.973
 110765930.769 8                  21078055.727
 110552227.004 8  86144574.78246  21037364.422                    21037371.344
 107842339.989 8  84033010.62546  20521717.461                    20521725.965
 115884903.799 7  90299931.34745  22052173.758                    22052182.066
 11  7 26 18 42  0.0000000  0 10G06G10G08G28G11G03G07G19G13G23
 127409902.901 6  99280470.15743  24245302.500                    24245310.809
 129220944.869 6 100691713.14043  24589945.109                    24589957.434
 119411024.644 7  93047492.28445  22723127.547                    22723137.547
 123493070.122 7  96228280.79144  23499907.383                    23499917.777
 123404884.256 7  96159725.68843  23483167.016                    23483178.465
 117129485.624 7  91269754.87444  22289000.523                    22289009.875
 110719416.759 8                  21069204.648
 110577701.325 8  86164424.90546  21042212.164                    21042219.246
 107897093.722 8  84075675.82246  20532136.727                    20532145.313
 115984567.728 8  90377591.43445  22071139.133                    22071147.859
 11  7 26 18 42 30.0000000  0 10G06G10G08G28G11G03G07G19G13G23
 127505703.882 6  99355120.20843  24263531.695                    24263542.164
 129273729.403 6 100732843.82643  24599990.555                    24600002.738
 119337916.369 7  92990524.81944  22709216.102                    22709225.254
 123438217.791 7  96185538.79844  23489469.438                    23489480.145
 123325944.445 6  96098214.26544  23468144.867                    23468156.156
 117218148.884 7  91338843.10344  22305873.070                    22305882.141
 110673069.911 8                  21060385.000
 110603778.762 7  86184744.99346  21047174.617                    21047181.316
 107952388.680 8  84118762.75046  20542659.102                    20542668.031
 116084529.847 8  90455483.88445  22090161.164                    22090169.926
 11  7 26 18 43  0.0000000  0 10G06G10G08G28G11G03G07G19G13G23
 127601714.678 6  99429933.76243  24281802.141                    24281812.543
 129326730.495 6 100774143.21043  24610075.672                    24610088.031
 119264805.060 7  92933555.00145  22695303.508                    22695313.168
 123383574.199 7  96142959.43544  23479071.359                    23479081.039
 123247094.288 7  96036772.70743  23453140.727                    23453151.234
 117307173.334 7  91408212.77044  22322813.758                    22322822.875
 110626891.692 8                  21051597.586
 110630458.037 8  86205534.03746  21052251.719                    21052258.555
 108008222.962 8  84162269.94346  20553284.148                    20553292.645
 116184787.330 7  90533606.48645  22109239.969                    22109248.688
 11  7 26 18 43 30.0000000  0 10G06G10G08G28G11G03G07G19G13G23
 127697932.866 6  99504908.92143  24300112.375                    24300122.047
 129379945.034 6 100815608.87843  24620202.164                    24620215.094
 119191691.858 7  92876583.68645  22681390.797                    22681399.559
 123329139.254 7  96100542.66144  23468712.195                    23468722.344
 123168336.461 6  95975403.08843  23438153.258                    23438164.281
 117396555.777 7  91477861.40044  22339822.836                    22339831.770
 110580883.567 8                  21042842.906
 110657737.977 8  86226791.13346  21057442.227                    21057449.250
 108064595.088 8  84206196.22946  20564011.438                    20564020.188
 116285337.507 7  90611957.15745  22128373.578                    22128382.449
 11  7 26 18 44  0.0000000  0 10G06G10G08G28G11G03G07G19G13G23
 127794356.083 6  99580043.84843  24318461.586                    24318471.191
 129433370.230 6 100857238.71343  24630368.102                    24630381.906
 119118578.099 7  92819611.95845  22667477.148                    22667486.754
 123274912.649 7  96058288.23744  23458393.695                    23458403.531
 123089674.587 6  95914108.28643  23423185.086                    23423195.438
 117486293.819 7  91547787.12844  22356899.430                    22356908.191
 110535047.257 8                  21034120.234
 110685617.875 7  86248515.74246  21062748.273                    21062754.945
 108121503.334 8  84250540.26746  20574840.422                    20574849.656
 116386177.723 7  90690533.83545  22147563.289                    22147571.715
 11  7 26 18 44 30.0000000  0 10G06G10G08G28G11G03G07G19G13G23
 127890981.544 6  99655336.38743  24336847.656                    24336857.969
 129487003.420 6 100899030.67043  24640574.852                    24640587.773
 119045464.631 7  92762640.43745  22653564.578                    22653573.488
 123220893.434 7  96016195.39944  23448113.922                    23448124.324
 123011111.490 6  95852890.41443  23408233.203                    23408244.773
 117576384.186 7  91617987.38844  22374042.656                    22374052.055
 110489384.627 8                  21025430.805
 110714095.896 7  86270706.40746  21068167.063                    21068174.039
 108178945.591 8  84295300.41846  20585771.438                    20585780.316
 116487304.903 7  90769334.12045  22166807.305                    22166815.938
 11  7 26 18 45  0.0000000  0 10G06G10G08G28G11G03G07G19G13G23
 127987806.692 6  99730784.49143  24355273.742                    24355283.297
 129540842.025 6 100940982.64443  24650820.031                    24650833.473
 118972352.192 7  92705669.72345  22639651.422                    22639660.375
 123167081.426 7  95974264.01144  23437874.078                    23437883.789
 122932649.936 6  95791751.66943  23393303.242                    23393314.551
 117666824.036 7  91688459.96244  22391252.328                    22391262.117
 110443896.788 8                  21016774.805
 110743171.336 8  86293362.60246  21073700.039                    21073706.727
 108236920.289 8  84340475.45346  20596803.734                    20596812.715
 116588716.258 7  90848355.84245  22186105.461                    22186113.938
 11  7 26 18 45 30.0000000  0 10G06G10G08G28G11G03G07G19G13G23
 128084828.964 6  99806386.19343  24373735.641                    24373746.453
 129594883.153 6 100983092.40343  24661104.469                    24661116.758
 118899242.288 7  92648700.98045  22625738.898                    22625748.383
 123113476.524 7  95932494.02544  23427672.992                    23427682.711
 122854292.950 6  95730694.38543  23378392.023                    23378403.527
 117757610.763 7  91759202.83344  22408528.820                    22408538.344
 110398585.576 8                  21008152.250
 110772843.048 8  86316483.42846  21079346.414                    21079353.336
 108295425.971 8  84386064.25846  20607937.055                    20607945.922
 116690409.070 7  90927596.86745  22205456.742                    22205465.898
 11  7 26 18 46  0.0000000  0 10G06G10G08G28G11G03G07G19G13G23
 128182045.998 6  99882139.66043  24392236.203                    24392246.301
 129649123.854 6 101025357.70643  24671425.563                    24671438.898
 118826136.179 7  92591735.19445  22611827.453                    22611836.781
 123060077.960 7  95890884.82744  23417511.969                    23417521.508
 122776043.566 6  95669720.96343  23363501.625                    23363512.961
 117848741.089 7  91830213.44644  22425870.172                    22425879.730
 110353452.737 8                  20999563.781
 110803109.521 8  86340067.69146  21085105.781                    21085112.891
 108354460.565 8  84432065.18146  20619171.172                    20619179.633
 116792380.477 7  91007054.99145  22224861.336                    22224870.027
 11  7 26 18 46 30.0000000  0 10G06G10G08G28G11G03G07G19G13G23
 128279455.416 6  99958043.06343  24410772.188                    24410782.492
 129703561.673 6 101067776.62843  24681785.391                    24681797.328
 118753034.771 7  92534773.08545  22597916.820                    22597925.859
 123006885.601 7  95849436.29144  23407389.531                    23407399.473
 122697904.852 7  95608833.79343  23348632.414                    23348643.348
 117940212.442 6  91901489.78944  22443276.859                    22443286.316
 110308499.874 7                  20991009.672
 110833970.140 7  86364114.93546  21090978.227                    21090985.297
 108414022.689 7  84478477.17546  20630505.281                    20630514.191
 116894627.816 7  91086728.12045  22244318.656                    22244327.586
 11  7 26 18 47  0.0000000  0 10G06G10G08G28G11G03G07G19G13G23
 128377054.166 6 100034093.96443  24429345.242                    24429355.090
 129758193.405 6 101110346.66743  24692180.758                    24692194.703
 118679938.851 7  92477815.23345  22584006.836                    22584015.914
 122953898.708 7  95808147.86944  23397306.164                    23397316.379
 122619879.501 6  95548034.94343  23333784.359                    23333795.977
 118032021.546 7  91973029.30644  22460747.516                    22460757.059
 110263728.319 8                  20982489.516
 110865422.679 7  86388623.41246  21096963.883                    21096970.613
 108474109.622 8  84525298.11446  20641939.680                    20641948.621
 116997147.475 7  91166613.44545  22263827.719                    22263836.941
 11  7 26 18 47 30.0000000  0 10G06G10G08G28G11G03G07G19G13G23
 128474840.314 6 100110290.94343  24447952.359                    24447963.191
 129813016.563 6 101153065.81143  24702613.539                    24702627.273
 118606850.246 7  92420863.09144  22570098.406                    22570107.453
 122901117.021 7  95767019.33544  23387262.297                    23387271.828
 122541970.754 6  95487326.93444  23318958.820                    23318970.078
 118124166.053 6  92044830.19044  22478282.180                    22478291.445
 110219140.257 8                  20974004.922
 110897466.873 7  86413592.91646  21103061.945                    21103068.199
 108534720.323 8  84572527.18346  20653473.445                    20653482.031
 117099937.620 7  91246709.54544  22283387.781                    22283396.605
 11  7 26 18 48  0.0000000  0 10G06G10G08G28G11G03G07G19G13G23
 128572811.084 6 100186631.73643  24466596.633                    24466606.863
 129868028.002 6 101195931.68143  24713082.484                    24713095.699
 118533769.913 7  92363917.40444  22556191.930                    22556201.445
 122848540.098 7  95726050.37044  23377257.086                    23377266.902
 122464181.751 7  95426712.27544  23304155.883                    23304167.328
 118216642.692 7  92116889.88144  22495880.313                    22495889.633
 110174737.041 8                  20965555.008
 110930101.007 8  86439022.11046  21109271.898                    21109278.508
 108595852.708 8  84620162.76446  20665106.727                    20665115.430
 117202995.216 7  91327014.04845  22302999.125                    22303008.250
 11  7 26 18 48 30.0000000  0 10G06G10G08G28G11G03G07G19G13G23
 128670964.189 6 100263114.58943  24485274.172                    24485284.766
 129923225.045 6 101238942.19143  24723586.016                    24723599.320
 118460698.929 7  92306978.99345  22542286.672                    22542296.199
 122796167.663 7  95685240.75444  23367290.992                    23367300.727
 122386515.426 7  95366193.18044  23289376.117                    23289387.734
 118309448.757 7  92189206.25444  22513540.406                    22513549.910
 110130520.507 8                  20957140.773
 110963323.897 7  86464910.07546  21115593.898                    21115600.211
 108657505.517 8  84668203.85246  20676838.977                    20676848.121
 117306317.228 7  91407524.57845  22322661.352                    22322669.641
 11  7 26 18 49  0.0000000  0 10G06G10G08G28G11G03G07G19G13G23
 128769296.606 6 100339737.20643  24503986.102                    24503996.324
 129978605.111 6 101282095.30843  24734124.492                    24734138.258
 118387638.251 7  92250048.61445  22528383.992                    22528393.270
 122743999.034 7  95644589.93744  23357363.375                    23357373.504
 122308974.731 7  95305771.98944  23274620.891                    23274631.883
 118402581.212 7  92261776.95044  22531263.133                    22531272.684
 110086492.025 8                  20948763.297
 110997133.781 7  86491255.43446  21122027.563                    21122034.578
 108719675.988 8  84716648.33346  20688669.438                    20688678.633
 117409900.707 7  91488238.85945  22342372.266                    22342380.883
 11  7 26 18 49 30.0000000  0 10G06G10G08G28G11G03G07G19G13G23
 128867805.978 6 100416497.65042  24522731.961                    24522742.355
 130034165.005 6 101325388.56743  24744697.680                    24744711.141
 118314589.209 7  92193127.31045  22514483.016                    22514492.754
 122692033.808 7  95604097.63844  23347475.133                    23347484.746
 122231562.521 7  95245450.93244  23259889.508                    23259900.969
 118496037.123 7  92334599.69944  22549047.852                    22549057.164
 110042653.296 8                  20940420.547
 111031529.392 7  86518057.20846  21128572.906                    21128579.512
 108782361.767 8  84765494.33846  20700598.164                    20700607.012
 117513742.749 7  91569154.59845  22362132.617                    22362141.688
 11  7 26 18 50  0.0000000  0 10G06G10G08G28G11G03G07G19G13G23
 128966489.951 6 100493394.28142  24541510.469                    24541521.016
 130089902.025 6 101368819.81643  24755304.148                    24755317.945
 118241553.104 7  92136216.08145  22500585.039                    22500594.355
 122640271.206 7  95563763.22144  23337624.398                    23337634.645
 122154282.084 7  95185232.53244  23245183.398                    23245194.461
 118589813.884 7  92407672.47344  22566892.063                    22566902.117
 109999006.086 8                  20932115.148
 111066509.537 7  86545314.46246  21135229.078                    21135235.867
 108845561.525 8  84814740.84546  20712624.805                    20712633.477
 117617840.794 7  91650269.82445  22381942.289                    22381951.238
 11  7 26 18 50 30.0000000  0 10G06G10G08G28G11G03G07G19G13G23
 129065345.996 6 100570424.90243  24560323.273                    24560332.828
 130145813.240 6 101412386.81043  24765943.836                    24765957.371
 118168531.104 7  92079315.85845  22486688.969                    22486698.965
 122588710.995 7  95523586.52044  23327813.125                    23327822.906
 122077136.241 7  95125119.01544  23230503.148                    23230514.770
 118683908.391 7  92480992.82844  22584797.727                    22584807.387
 109955552.079 8                  20923845.891
 111102072.728 7  86573026.03846  21141996.672                    21142003.438
 108909273.457 8  84864386.46046  20724749.148                    20724757.887
 117722191.817 7  91731582.16544  22401799.344                    22401808.742
 11  7 26 18 51  0.0000000  0 10G06G10G08G28G11G03G07G19G13G23
 129164371.612 6 100647587.64543  24579166.672                    24579176.605
 130201896.155 6 101456087.60643  24776616.547                    24776629.621
 118095524.334 7  92022427.49645  22472795.938                    22472805.523
 122537352.716 7  95483567.15544  23318039.547                    23318049.805
 122000128.191 7  95065112.87144  23215848.633                    23215859.828
 118778317.849 7  92554558.60044  22602763.008                    22602772.656
 109912293.326 8                  20915614.266
 111138217.494 7  86601190.80346  21148874.523                    21148881.301
 108973495.237 8  84914429.35346  20736969.898                    20736978.863
 117826792.979 7  91813089.41545  22421704.539                    22421713.715
 11  7 26 18 51 30.0000000  0 10G06G10G08G28G11G03G07G19G13G23
 129263564.201 6 100724880.51243  24598042.883                    24598051.852
 130258147.800 6 101499919.92043  24787320.055                    24787334.805
 118022534.138 7  91965552.05045  22458906.859                    22458916.375
 122486195.691 7  95443704.61544  23308304.500                    23308315.020
 121923261.091 7  95005216.55744  23201221.539                    23201232.441
 118873039.215 7  92628367.42744  22620787.875                    22620797.492
 109869230.975 8                  20907419.445
 111174942.470 7  86629807.66746  21155863.344                    21155870.047
 109038225.023 8  84964868.09146  20749287.836                    20749296.137
 117931641.450 7  91894789.37844  22441656.820                    22441665.992
 11  7 26 18 52  0.0000000  0 10G06G10G08G28G11G03G07G19G13G23
 129362921.447 6 100802301.69743  24616949.414                    24616959.398
 130314565.435 6 101543881.52143  24798056.984                    24798070.676
 117949562.221 7  91908690.84945  22445020.672                    22445029.906
 122435239.792 7  95403998.79544  23298607.938                    23298617.633
 121846537.460 7  94945432.05544  23186621.086                    23186632.230
 118968069.711 6  92702417.11844  22638871.242                    22638881.352
 109826366.954 8                  20899262.773
 111212245.971 7  86658875.33146  21162961.930                    21162968.957
 109103460.914 8  85015701.20746  20761701.430                    20761710.672
 118036734.231 7  91976679.71545  22461655.070                    22461664.375
 11  7 26 18 52 30.0000000  0 10G06G10G08G28G11G03G07G19G13G23
 129462440.802 6 100879849.20843  24635887.375                    24635897.531
 130371145.947 6 101587970.02343  24808824.023                    24808837.355
 117876609.583 7  91851844.66045  22431138.320                    22431147.875
 122384484.281 7  95364449.12344  23288949.859                    23288959.594
 121769960.876 7  94885762.14044  23172049.172                    23172059.559
 119063406.442 7  92776705.42744  22657013.500                    22657023.316
 109783703.159 8                  20891144.313
 111250126.532 7  86688392.66246  21170170.328                    21170177.117
 109169201.021 8  85066927.20946  20774211.633                    20774220.461
 118142068.754 7  92058758.41545  22481700.047                    22481709.480
 11  7 26 18 53  0.0000000  0 10G06G10G08G28G11G03G07G19G13G23
 129562119.926 6 100957521.20443  24654855.891                    24654865.867
 130427886.761 5 101632183.46742  24819620.742                    24819634.410
 117803677.386 7  91795014.40445  22417259.813                    22417268.895
 122333928.881 7  95325055.37344  23279329.344                    23279339.180
 121693534.210 7  94826209.02844  23157505.813                    23157515.801
 119159046.368 7  92851230.00844  22675213.922                    22675222.922
 109741241.171 8                  20883063.914
 111288582.973 8  86718358.71846  21177488.172                    21177495.051
 109235443.088 8  85118544.35746  20786817.156                    20786825.891
 118247641.981 7  92141023.11145  22501789.883                    22501799.273
 11  7 26 18 53 30.0000000  0 10G06G10G08G28G11G03G07G19G13G23
 129661956.111 6 101035315.62443  24673853.922                    24673863.875
 130484785.122 6 101676519.69243  24830449.469                    24830462.363
 117730766.917 7  91738201.06345  22403385.539                    22403394.574
 122283572.853 7  95285816.97744  23269746.992                    23269756.535
 121617260.536 7  94766775.13544  23142991.328                    23143001.398
 119254986.724 7  92925988.69044  22693471.063                    22693479.914
 109698982.652 8                  20875022.125
 111327613.481 7  86748772.10446  21184915.578                    21184921.930
 109302184.949 8  85170550.94546  20799517.891                    20799527.086
 118353451.092 7  92223471.63844  22521925.273                    22521934.172
 11  7 26 18 54  0.0000000  0 10G06G10G08G28G11G03G07G19G13G23
 129761946.977 6 101113230.51143  24692881.680                    24692891.461
 130541837.985 6 101720976.29842  24841305.914                    24841319.219
 117657879.204 7  91681405.46445  22389515.203                    22389524.379
 122233415.524 7  95246733.41744  23260202.141                    23260211.813
 121541142.773 7  94707462.73144  23128506.313                    23128516.586
 119351224.768 7  93000979.33944  22711784.141                    22711793.645
 109656929.247 8                  20867019.625
 111367216.437 8  86779631.55146  21192451.828                    21192458.363
 109369424.105 8  85222945.04046  20812312.906                    20812321.785
 118459492.844 7  92306101.42644  22542104.461                    22542113.707
 11  7 26 18 54 30.0000000  0 10G06G10G08G28G11G03G07G19G13G23
 129862089.900 6 101191263.85843  24711938.602                    24711948.422
 130599042.531 5 101765551.10142  24852191.289                    24852205.848
 117585015.353 7  91624628.45745  22375649.578                    22375658.875
 122183456.373 7  95207804.25444  23250695.023                    23250704.680
 121465183.968 6  94648274.18043  23114051.563                    23114062.367
 119447757.175 6  93076199.34444  22730153.711                    22730163.184
 109615082.601 8                  20859056.445
 111407389.926 7  86810935.56946  21200096.750                    21200103.395
 109437158.705 8  85275725.20146  20825202.273                    20825211.027
 118565764.670 7  92388910.48444  22562326.930                    22562336.316
 11  7 26 18 55  0.0000000  0 10G06G10G08G28G11G03G07G19G13G23
 129962382.467 6 101269413.88543  24731022.727                    24731033.137
 130656396.240 5 101810242.06742  24863105.797                    24863119.645
 117512177.402 7  91567871.63645  22361788.945                    22361798.363
 122133694.882 7  95169029.13644  23241226.414                    23241235.332
 121389387.088 7  94589211.79244  23099627.867                    23099638.359
 119544581.184 7  93151646.57044  22748578.633                    22748588.668
 109573444.517 8                  20851133.281
 111448132.673 7  86842683.17146  21207849.734                    21207856.781
 109505386.746 8  85328889.85846  20838185.617                    20838194.727
 118672263.656 7  92471896.56544  22582593.102                    22582602.629
 11  7 26 18 55 30.0000000  0 10G06G10G08G28G11G03G07G19G13G23
 130062822.499 6 101347678.77843  24750136.016                    24750147.055
 130713896.042 6 101855046.96642  24874047.875                    24874061.602
 117439366.607 7  91511135.97545  22347933.664                    22347942.348
 122084130.901 7  95130407.91444  23231794.023                    23231803.469
 121313755.405 7  94530278.14944  23085235.469                    23085246.391
 119641694.197 7  93227319.00144  22767058.797                    22767068.316
 109532017.144 8                  20843249.742
 111489443.127 7  86874873.13446  21215710.992                    21215717.348
 109574106.401 8  85382437.59846  20851262.711                    20851271.645
 118778987.118 7  92555057.54544  22602902.266                    22602911.680
 11  7 26 18 56  0.0000000  0 10G06G10G08G28G11G03G07G19G13G23
 130163407.195 5 101426056.40743  24769276.297                    24769287.453
 130771539.000 5 101899963.35642  24885017.367                    24885031.078
 117366583.934 7  91454422.21945  22334083.641                    22334092.836
 122034763.474 7  95091939.85344  23222399.398                    23222408.781
 121238291.947 7  94471475.57444  23070875.563                    23070886.504
 119739092.774 7  93303213.93544  22785593.313                    22785603.305
 109490801.762 8                  20835406.766
 111531319.256 8  86907503.88546  21223679.742                    21223686.363
 109643314.990 8  85436366.32846  20864432.813                    20864441.898
 118885931.883 7  92638390.97745  22623253.008                    22623262.781
 11  7 26 18 56 30.0000000  0 10G06G10G08G28G11G03G07G19G13G23
 130264134.115 6 101504544.87043  24788445.219                    24788455.156
 130829322.181 6 101944988.95242  24896013.039                    24896027.172
 117293830.766 7  91397731.44245  22320238.992                    22320248.414
 121985591.921 7  95053624.41144  23213042.383                    23213052.102
 121162999.583 7  94412806.30744  23056547.805                    23056558.523
 119836774.707 7  93379329.68444  22804181.805                    22804191.125
 109449800.360 8                  20827604.477
 111573759.602 7  86940574.27946  21231756.031                    21231762.602
 109713010.325 8  85490674.32846  20877695.109                    20877704.391
 118993095.016 7  92721894.56444  22643645.883                    22643655.488
 11  7 26 18 57  0.0000000  0 10G06G10G08G28G11G03G07G19G13G23
 130365000.977 5 101583142.39042  24807639.305                    24807649.855
 130887242.896 6 101990121.79942  24907034.898                    24907048.457
 117221108.750 7  91341064.95845  22306400.836                    22306409.875
 121936616.029 7  95015461.44544  23203722.867                    23203732.434
 121087881.324 7  94354272.69444  23042252.773                    23042264.145
 119934736.542 7  93455663.53044  22822823.086                    22822832.570
 109409014.521 8                  20819843.305
 111616762.403 7  86974082.95546  21239938.984                    21239945.883
 109783190.300 8  85545359.98546  20891050.094                    20891059.063
 119100473.725 7  92805566.13444  22664079.094                    22664088.898
 11  7 26 18 57 30.0000000  0 10G06G10G08G28G11G03G07G19G13G23
 130466005.523 5 101661847.13642  24826859.313                    24826870.363
 130945298.702 6 102035360.06042  24918082.148                    24918096.742
 117148419.307 7  91284423.84145  22292568.523                    22292577.551
 121887835.391 7  94977450.61844  23194439.930                    23194450.152
 121012940.552 7  94295877.40544  23027992.289                    23028002.871
 120032976.061 7  93532213.75244  22841517.031                    22841527.066
 109368446.220 8                  20812123.461
 111660326.248 7  87008028.81146  21248228.750                    21248235.953
 109853853.029 8  85600421.79446  20904496.766                    20904505.777
 119208065.112 7  92889403.41744  22684553.297                    22684563.566
 11  7 26 18 58  0.0000000  0  9G06G08G28G11G03G07G19G13G23
 130567145.30416 101740657.31552  24846106.680                    24846116.363
 117075763.969 7  91227809.31745  22278742.148                    22278751.242
 121839249.152 7  94939591.27844  23185194.508                    23185203.996
 120938180.332 7  94237622.78344  23013765.563                    23013776.480
 120131490.247 7  93608978.02544  22860264.555                    22860273.672
 109328097.545 8                  20804445.297
 111704449.213 8  87042410.34046  21256624.906                    21256632.078
 109924996.236 8  85655858.01146  20918035.109                    20918044.238
 119315866.712 7  92973404.50244  22705067.297                    22705077.086
 11  7 26 18 58 30.0000000  0  9G06G08G28G11G03G07G19G13G23
 130668417.487 6 101819570.65843  24865378.242                    24865388.484
 117003143.638 7  91171222.06245  22264923.086                    22264932.324
 121790856.780 7  94901882.99244  23175985.641                    23175995.414
 120863603.443 7  94179511.03744  22999574.250                    22999584.711
 120230275.524 7  93685953.52544  22879062.273                    22879071.914
 109287969.744 8                  20796808.906
 111749129.153 7  87077225.88546  21265127.445                    21265134.387
 109996617.383 8  85711666.65546  20931664.281                    20931673.383
 119423875.126 7  93057566.74344  22725620.477                    22725630.617
 11  7 26 18 59  0.0000000  0  9G06G08G28G11G03G07G19G13G23
 130769819.716 6 101898585.32042  24884673.242                    24884684.184
 116930559.847 7  91114663.28445  22251110.859                    22251119.938
 121742657.511 7  94864325.19144  23166812.828                    23166823.707
 120789212.853 7  94121544.43944  22985418.297                    22985428.641
 120329329.329 7  93763138.27244  22897911.227                    22897921.219
 109248064.480 8                  20789215.453
 111794364.659 7  87112474.33046  21273735.570                    21273742.156
 110068714.223 8  85767845.95646  20945383.852                    20945392.973
 119532087.471 7  93141887.88644  22746213.391                    22746222.945
 11  7 26 18 59 30.0000000  0  8G08G28G11G03G07G19G13G23
 116858014.404 7  91058134.38445  22237305.828                    22237315.301
 121694650.944 7  94826917.54144  23157677.688                    23157687.801
 120715011.993 7  94063725.69344  22971297.617                    22971308.664
 120428648.847 7  93840530.07444  22916810.805                    22916821.344
 109208384.109 8                  20781664.469
 111840153.840 7  87148154.21646  21282448.969                    21282455.629
 110141284.387 8  85824394.08746  20959193.508                    20959202.516
 119640501.256 7  93226365.99944  22766844.063                    22766853.535
 11  7 26 19  0  0.0000000  0  8G08G28G11G03G07G19G13G23
 116785508.335 7  91001636.16545  22223508.516                    22223517.492
 121646836.173 7  94789659.35644  23148578.516                    23148589.000
 120641004.010 6  94006057.23244  22957214.375                    22957225.309
 120528231.298 7  93918126.75344  22935761.016                    22935770.688
 109168929.741 8                  20774156.563
 111886494.809 8  87184264.05846  21291267.141                    21291273.625
 110214326.005 8  85881309.58546  20973092.680                    20973101.898
 119749112.972 7  93310998.34544  22787511.672                    22787521.977
 11  7 26 19  0 30.0000000  0  8G08G28G11G03G07G19G13G23
 116713042.432 7  90945169.24945  22209718.828                    22209727.613
 121599212.623 7  94752550.17444  23139516.430                    23139526.348
 120567191.087 7  93948540.75544  22943168.063                    22943179.188
 120628073.541 7  93995925.86644  22954760.766                    22954770.488
 109129703.034 8                  20766691.766
 111933385.132 7  87220801.97146  21300190.234                    21300196.809
 110287835.705 8  85938589.82046  20987081.234                    20987090.238
 119857919.494 7  93395782.46944  22808217.406                    22808227.574
 11  7 26 19  1  0.0000000  0  8G08G28G11G03G07G19G13G23
 116640619.107 7  90888735.49845  22195936.813                    22195946.191
 121551779.869 7  94715589.65144  23130490.656                    23130500.293
 120493577.012 7  93891179.23044  22929159.883                    22929170.160
 120728172.786 7  94073925.23243  22973808.828                    22973818.789
 109090706.301 8                  20759271.211
 111980823.715 7  87257767.09346  21309217.422                    21309224.016
 110361811.934 8  85996233.58946  21001158.461                    21001167.824
 119966918.616 7  93480716.67044  22828959.313                    22828969.230
 11  7 26 19  1 30.0000000  0  8G08G28G11G03G07G19G13G23
 116568239.401 7  90832335.75945  22182163.836                    22182172.746
 121504536.990 7  94678777.09444  23121500.398                    23121509.766
 120420164.195 7  93833974.52544  22915190.164                    22915199.828
 120828525.885 6  94152122.40444  22992905.180                    22992915.090
 109051940.784 8                  20751894.422
 112028807.701 7  87295157.20446  21318348.203                    21318355.012
 110436251.771 8  86054238.61346  21015324.133                    21015333.406
 120076106.757 7  93565798.17144  22849737.320                    22849746.586
 11  7 26 19  2  0.0000000  0  8G08G28G11G03G07G19G13G23
 116495905.092 7  90775971.37045  22168398.703                    22168407.699
 121457483.629 7  94642112.20244  23112546.578                    23112555.980
 120346955.884 7  93776929.17244  22901258.984                    22901268.914
 120929130.295 6  94230515.39444  23012049.570                    23012059.945
 109013408.577 8                  20744561.789
 112077335.877 7  87332971.36046  21327583.141                    21327589.586
 110511153.365 8  86112603.43946  21029577.398                    21029586.746
 120185481.415 7  93651025.00244  22870550.883                    22870561.223
 11  7 26 19  2 30.0000000  0  8G08G28G11G03G07G19G13G23
 116423617.619 7  90719643.48745  22154642.898                    22154651.488
 121410619.218 7  94605594.53444  23103627.953                    23103637.855
 120273955.679 7  93720045.98244  22887367.320                    22887377.523
 121029983.027 6  94309101.87144  23031241.773                    23031251.090
 108975111.698 8                  20737273.977
 112126406.530 7  87371208.22446  21336921.242                    21336927.574
 110586514.103 8  86171326.03946  21043918.148                    21043927.391
 120295039.662 7  93736394.89444  22891399.383                    22891408.672
 11  7 26 19  3  0.0000000  0  8G08G28G11G03G07G19G13G23
 116351378.249 7  90663353.08445  22140896.305                    22140905.328
 121363942.671 7  94569223.26644  23094745.672                    23094755.637
 120201166.215 7  93663326.98444  22873516.125                    22873526.168
 121131081.104 6  94387879.55143  23050480.367                    23050489.703
 108937051.656 8                  20730031.547
 112176017.261 7  87409865.92246  21346361.164                    21346368.055
 110662331.304 8  86230404.31746  21058345.594                    21058354.684
 120404778.413 7  93821905.44244  22912281.969                    22912292.215
 11  7 26 19  3 30.0000000  0  8G08G28G11G03G07G19G13G23
 116279188.525 7  90607101.36745  22127158.938                    22127168.176
 121317453.615 7  94532998.08744  23085899.703                    23085908.676
 120128590.479 7  93606774.54144  22859705.219                    22859715.352
 121232421.887 7  94466846.34143  23069764.180                    23069773.762
 108899230.242 8                  20722834.133
 112226166.189 7  87448943.00746  21355904.609                    21355911.219
 110738602.783 8  86289836.58946  21072859.234                    21072868.707
 120514694.921 7  93907554.50644  22933198.180                    22933208.242
 11  7 26 19  4  0.0000000  0  8G08G28G11G03G07G19G13G23
 116207049.963 7  90550889.51945  22113431.156                    22113440.137
 121271151.445 7  94496918.52944  23077088.305                    23077097.902
 120056231.493 7  93550390.99344  22845935.867                    22845945.926
 121334002.473 7  94545999.98544  23089094.203                    23089104.102
 108861649.147 8                  20715682.594
 112276851.135 7  87488437.76446  21365549.734                    21365556.453
 110815326.310 8  86349621.09446  21087459.383                    21087468.359
 120624786.009 6  93993339.59844  22954147.992                    22954158.004
 11  7 26 19  4 30.0000000  0  8G08G28G11G03G07G19G13G23
 116134964.384 7  90494718.95345  22099714.180                    22099722.918
 121225035.597 7  94460984.16744  23068312.906                    23068321.988
 119984092.777 7  93494179.09244  22832207.891                    22832218.414
 121435819.922 7  94625338.20643  23108470.305                    23108479.984
 108824310.689 8                  20708577.758
 112328070.535 7  87528348.97746  21375296.305                    21375303.180
 110892499.682 8  86409756.14146  21102145.227                    21102154.469
 120735049.448 7  94079258.98944  22975130.227                    22975140.188
 11  7 26 19  5  0.0000000  0  8G08G28G11G03G07G19G13G23
 116062933.065 8  90438590.66045  22086006.758                    22086015.969
 121179105.116 7  94425194.23444  23059572.367                    23059581.402
 119912176.960 7  93438140.87344  22818523.258                    22818532.793
 121537871.414 7  94704858.82144  23127890.367                    23127899.086
 108787216.223 8                  20701518.820
 112379821.898 8  87568674.70246  21385144.492                    21385150.945
 110970119.841 8  86470239.32746  21116916.180                    21116925.039
 120845481.771 7  94165309.97244  22996145.563                    22996155.891
 11  7 26 19  5 30.0000000  0  9G24G08G28G11G03G07G19G13G23
 128024209.24016  99759215.10252  24362205.219                    24362220.367
 115990957.275 7  90382505.64245  22072309.969                    22072319.395
 121133359.384 7  94389548.27644  23050867.320                    23050876.512
 119840486.673 7  93382278.39544  22804880.766                    22804890.500
 121640153.406 7  94784559.02444  23147353.922                    23147363.020
 108750367.336 8                  20694506.758
 112432102.804 7  87609413.07046  21395093.102                    21395099.477
 111048184.136 8  86531068.58846  21131771.289                    21131780.355
 120956079.786 7  94251490.06044  23017192.008                    23017201.805
 11  7 26 19  6  0.0000000  0  9G24G08G28G11G03G07G19G13G23
 127948834.368 6  99700481.66443  24347862.445                    24347877.121
 115919038.526 7  90326465.07145  22058624.508                    22058633.656
 121087797.628 7  94354045.66344  23042197.258                    23042206.328
 119769025.404 7  93326594.38144  22791282.023                    22791291.828
 121742663.787 7  94864437.19043  23166861.031                    23166870.434
 108713766.028 8                  20687541.813
 112484911.922 7  87650563.02746  21405142.281                    21405149.289
 111126690.338 8  86592242.19546  21146710.406                    21146719.668
 121066840.832 7  94337797.19044  23038268.672                    23038279.098
 11  7 26 19  6 30.0000000  0  9G24G08G28G11G03G07G19G13G23
 127873403.304 6  99641704.47743  24333507.883                    24333523.488
 115847179.233 7  90270470.82945  22044950.273                    22044958.941
 121042419.586 7  94318686.21044  23033561.945                    23033570.613
 119697796.434 7  93271091.38444  22777727.281                    22777737.297
 121845399.649 7  94944491.06643  23186410.773                    23186420.488
 108677414.654 8                  20680623.984
 112538247.041 7  87692122.85146  21415291.422                    21415298.262
 111205636.119 8  86653758.32946  21161733.406                    21161742.906
 121177762.323 6  94424229.33944  23059376.414                    23059386.891
 11  7 26 19  7  0.0000000  0  9G24G08G28G11G03G07G19G13G23
 127797918.611 6  99582885.46243  24319142.961                    24319158.270
 115775380.473 8  90214523.76345  22031287.625                    22031296.629
 120997224.413 7  94283469.24644  23024961.711                    23024970.840
 119626802.686 7  93215771.67644  22764217.828                    22764228.133
 121948358.344 7  95024718.59043  23206003.281                    23206012.973
 108641314.489 8                  20673754.727
 112592106.057 8  87734090.91046  21425540.711                    21425547.438
 111285018.709 8  86715614.83946  21176839.422                    21176848.789
 121288840.926 6  94510783.91344  23080514.469                    23080524.711
 11  7 26 19  7 30.0000000  0  9G24G08G28G11G03G07G19G13G23
 127722383.058 6  99524026.85443  24304768.445                    24304784.375
 115703644.115 7  90158625.31645  22017636.375                    22017645.477
 120952211.411 7  94248394.25244  23016395.734                    23016404.824
 119556047.151 7  93160637.58744  22750752.914                    22750763.551
 122051537.036 6  95105117.52243  23225637.242                    23225647.094
 108605467.705 8                  20666933.484
 112646486.684 8  87776465.41846  21435889.109                    21435895.684
 111364835.902 8  86777810.00046  21192028.367                    21192037.496
 121400074.031 6  94597458.88144  23101681.328                    23101692.133
 11  7 26 19  8  0.0000000  0  9G24G08G28G11G03G07G19G13G23
 127646799.775 6  99465131.00643  24290385.539                    24290401.078
 115631971.534 7  90102776.56945  22003997.422                    22004006.742
 120907380.028 7  94213460.78144  23007864.156                    23007873.785
 119485532.992 7  93105691.60444  22737334.195                    22737345.156
 122154932.540 6  95185685.36743  23245312.797                    23245323.012
 108569876.000 8                  20660160.469
 112701387.025 8  87819244.90046  21446336.047                    21446342.852
 111445084.890 8  86840341.62446  21207299.047                    21207308.629
 121511458.817 6  94684252.02044  23122877.313                    23122888.324
 11  7 26 19  8 30.0000000  0  9G24G08G28G11G03G07G19G13G23
 127571171.298 6  99406199.93343  24275994.055                    24276008.977
 115560364.405 7  90046978.82445  21990371.164                    21990380.289
 120862729.582 7  94178668.29444  22999367.961                    22999376.883
 119415263.013 7  93050935.88744  22723962.531                    22723973.035
 122258542.027 7  95266419.97043  23265029.461                    23265039.773
 108534541.031 8                  20653436.273
 112756804.747 8  87862427.53346  21456881.695                    21456888.605
 111525763.118 8  86903207.72846  21222651.969                    21222661.297
 121622992.157 7  94771160.92144  23144101.539                    23144111.891
 11  7 26 19  9  0.0000000  0  9G24G08G28G11G03G07G19G13G23
 127495500.555 6  99347235.85343  24261594.375                    24261608.633
 115488824.202 7  89991233.23945  21976757.430                    21976766.410
 120818259.030 7  94144015.98844  22990905.445                    22990914.426
 119345240.391 7  92996372.91844  22710637.836                    22710647.953
 122362362.887 6  95347319.28344  23284785.992                    23284796.152
 108499464.723 8                  20646761.422
 112812737.607 7  87906011.57246  21467525.125                    21467532.109
 111606867.795 8  86966406.12546  21238085.336                    21238095.031
 121734671.139 7  94858183.30444  23165353.422                    23165364.133
 11  7 26 19  9 30.0000000  0  9G24G08G28G11G03G07G19G13G23
 127419790.259 6  99288241.04342  24247187.398                    24247201.973
 115417353.055 7  89935541.45845  21963156.969                    21963165.785
 120773968.060 7  94109503.61544  22982476.555                    22982486.402
 119275468.235 7  92942005.10744  22697360.719                    22697369.988
 122466392.419 6  95428381.18643  23304582.656                    23304592.230
 108464648.989 8                  20640136.070
 112869183.816 8  87949995.62346  21478267.055                    21478273.512
 111688396.994 8  87029935.32046  21253600.031                    21253609.441
 121846493.181 7  94945317.17444  23186633.375                    23186642.582
 11  7 26 19 10  0.0000000  0  9G24G08G28G11G03G07G19G13G23
 127344043.378 6  99229217.68343  24232772.836                    24232787.652
 115345952.577 7  89879904.73745  21949569.773                    21949578.930
 120729855.738 7  94075130.43644  22974082.570                    22974091.887
 119205949.738 7  92887834.96944  22684131.563                    22684141.758
 122570627.589 7  95509603.33844  23324417.430                    23324427.457
 108430095.801 7                  20633560.742
 112926141.128 8  87994377.93746  21489105.391                    21489112.449
 111770347.784 8  87093793.03145  21269194.602                    21269204.027
 121958455.142 7  95032560.09544  23207938.430                    23207949.215
 11  7 26 19 10 30.0000000  0  9G24G08G28G11G03G07G19G13G23
 127268262.597 6  99170167.94043  24218352.172                    24218366.957
 115274624.179 7  89824324.18645  21935995.820                    21936005.316
 120685921.479 7  94040896.00944  22965721.648                    22965731.109
 119136687.756 7  92833864.69444  22670951.352                    22670961.551
 122675065.885 7  95590983.79743  23344291.680                    23344301.688
 108395807.078 7                  20627036.195
 112983606.839 7  88039156.41146  21500040.742                    21500047.750
 111852717.625 7  87157977.26446  21284869.055                    21284878.766
 122070554.151 7  95119909.76944  23229270.523                    23229280.813
 11  7 26 19 11  0.0000000  0  9G24G08G28G11G03G07G19G13G23
 127192451.161 6  99111094.24743  24203924.898                    24203939.750
 115203369.759 7  89768801.27445  21922437.188                    21922446.277
 120642164.642 7  94006799.84544  22957395.500                    22957404.508
 119067685.352 7  92780096.70044  22657820.477                    22657829.988
 122779704.361 6  95672520.21144  23364203.445                    23364213.777
 108361784.770 7                  20620561.586
 113041579.562 7  88084329.95246  21511072.609                    21511079.547
 111935504.059 8  87222486.13345  21300623.008                    21300632.102
 122182787.576 7  95207364.20644  23250627.852                    23250638.594
 11  7 26 19 11 30.0000000  0  9G24G08G28G11G03G07G19G13G23
 127116611.579 6  99051998.66543  24189493.281                    24189508.133
 115132191.062 7  89713337.37845  21908892.125                    21908900.984
 120598584.723 7  93972841.52444  22949102.336                    22949111.910
 118998945.773 7  92726533.49344  22644739.422                    22644749.383
 122884540.114 7  95754210.35943  23384152.586                    23384163.406
 108328030.650 8                  20614138.492
 113100056.551 7  88129896.43346  21522200.555                    21522207.414
 112018704.513 8  87287317.58546  21316455.359                    21316464.543
 122295152.323 7  95294920.96144  23272010.695                    23272021.379
 11  7 26 19 12  0.0000000  0  9G24G08G28G11G03G07G19G13G23
 127040746.062 6  98992882.83143  24175055.938                    24175071.227
 115061089.120 7  89657933.29645  21895361.836                    21895370.969
 120555180.426 7  93939020.05644  22940842.516                    22940852.113
 118930471.206 7  92673176.78644  22631709.352                    22631718.984
 122989570.247 7  95836051.97343  23404139.477                    23404149.910
 108294545.653 8                  20607767.016
 113159034.971 7  88175853.62946  21533423.828                    21533430.590
 112102315.363 8  87352468.84545  21332366.172                    21332375.922
 122407645.035 7  95382577.41444  23293417.055                    23293427.563
